<?xml version="1.0" encoding="UTF-8" standalone="no" ?>
<gpx xmlns="http://www.topografix.com/GPX/1/1" xmlns:xsi="http://www.w3.org/2001/XMLSchema-instance" xsi:schemaLocation="http://www.topografix.com/GPX/1/1 http://www.topografix.com/GPX/1/1/gpx.xsd" version="1.1" creator="VisuGPX - https://www.visugpx.com">
  <metadata>
    <name>83-libre-Berne</name>
    <desc><![CDATA[83-libre-Berne - Cagnosc
2021-05-02]]></desc>
  </metadata>
  <trk>
    <name><![CDATA[2021-05-02_berne-A2]]></name>
    <extensions>
      <line xmlns="http://www.topografix.com/GPX/gpx_style/0/2">
        <width>4</width>
      </line>
    </extensions>
    <trkseg>
      <trkpt lat="43.49681" lon="6.38038">
        <ele>237.1</ele>
        <time>2021-05-02T06:20:41.000Z</time>
      </trkpt>
      <trkpt lat="43.4968" lon="6.38038">
        <ele>237.1</ele>
        <time>2021-05-02T06:20:42.000Z</time>
      </trkpt>
      <trkpt lat="43.4968" lon="6.38038">
        <ele>237</ele>
        <time>2021-05-02T06:20:44.000Z</time>
      </trkpt>
      <trkpt lat="43.4968" lon="6.38038">
        <ele>236.9</ele>
        <time>2021-05-02T06:20:45.000Z</time>
      </trkpt>
      <trkpt lat="43.4968" lon="6.38038">
        <ele>236.8</ele>
        <time>2021-05-02T06:20:46.000Z</time>
      </trkpt>
      <trkpt lat="43.4968" lon="6.38038">
        <ele>236.8</ele>
        <time>2021-05-02T06:20:47.000Z</time>
      </trkpt>
      <trkpt lat="43.4968" lon="6.38038">
        <ele>236.7</ele>
        <time>2021-05-02T06:20:48.000Z</time>
      </trkpt>
      <trkpt lat="43.4968" lon="6.38038">
        <ele>236.9</ele>
        <time>2021-05-02T06:21:03.000Z</time>
      </trkpt>
      <trkpt lat="43.49681" lon="6.38037">
        <ele>237</ele>
        <time>2021-05-02T06:21:08.000Z</time>
      </trkpt>
      <trkpt lat="43.49681" lon="6.38037">
        <ele>236.9</ele>
        <time>2021-05-02T06:21:16.000Z</time>
      </trkpt>
      <trkpt lat="43.49681" lon="6.38037">
        <ele>236.9</ele>
        <time>2021-05-02T06:21:16.000Z</time>
      </trkpt>
      <trkpt lat="43.49679" lon="6.38041">
        <ele>236.5</ele>
        <time>2021-05-02T06:21:44.000Z</time>
      </trkpt>
      <trkpt lat="43.4968" lon="6.38042">
        <ele>236.3</ele>
        <time>2021-05-02T06:21:46.000Z</time>
      </trkpt>
      <trkpt lat="43.4968" lon="6.38042">
        <ele>236.4</ele>
        <time>2021-05-02T06:21:47.000Z</time>
      </trkpt>
      <trkpt lat="43.4968" lon="6.38042">
        <ele>236.4</ele>
        <time>2021-05-02T06:21:48.000Z</time>
      </trkpt>
      <trkpt lat="43.4968" lon="6.38041">
        <ele>236.2</ele>
        <time>2021-05-02T06:21:53.000Z</time>
      </trkpt>
      <trkpt lat="43.49681" lon="6.38041">
        <ele>236.2</ele>
        <time>2021-05-02T06:21:54.000Z</time>
      </trkpt>
      <trkpt lat="43.49684" lon="6.38038">
        <ele>236.3</ele>
        <time>2021-05-02T06:22:06.000Z</time>
      </trkpt>
      <trkpt lat="43.49683" lon="6.38039">
        <ele>236.4</ele>
        <time>2021-05-02T06:22:07.000Z</time>
      </trkpt>
      <trkpt lat="43.49676" lon="6.38044">
        <ele>236.2</ele>
        <time>2021-05-02T06:22:27.000Z</time>
      </trkpt>
      <trkpt lat="43.49676" lon="6.38043">
        <ele>236.3</ele>
        <time>2021-05-02T06:22:33.000Z</time>
      </trkpt>
      <trkpt lat="43.49678" lon="6.3804">
        <ele>236</ele>
        <time>2021-05-02T06:22:38.000Z</time>
      </trkpt>
      <trkpt lat="43.49679" lon="6.3804">
        <ele>236.1</ele>
        <time>2021-05-02T06:22:44.000Z</time>
      </trkpt>
      <trkpt lat="43.49679" lon="6.3804">
        <ele>236</ele>
        <time>2021-05-02T06:22:46.000Z</time>
      </trkpt>
      <trkpt lat="43.49678" lon="6.3804">
        <ele>236.1</ele>
        <time>2021-05-02T06:22:50.000Z</time>
      </trkpt>
      <trkpt lat="43.49678" lon="6.38039">
        <ele>236</ele>
        <time>2021-05-02T06:22:52.000Z</time>
      </trkpt>
      <trkpt lat="43.49678" lon="6.38039">
        <ele>236.2</ele>
        <time>2021-05-02T06:22:53.000Z</time>
      </trkpt>
      <trkpt lat="43.49678" lon="6.3804">
        <ele>236.1</ele>
        <time>2021-05-02T06:22:56.000Z</time>
      </trkpt>
      <trkpt lat="43.49678" lon="6.3804">
        <ele>235.9</ele>
        <time>2021-05-02T06:22:57.000Z</time>
      </trkpt>
      <trkpt lat="43.49678" lon="6.3804">
        <ele>235.9</ele>
        <time>2021-05-02T06:22:58.000Z</time>
      </trkpt>
      <trkpt lat="43.49679" lon="6.38039">
        <ele>236</ele>
        <time>2021-05-02T06:23:31.000Z</time>
      </trkpt>
      <trkpt lat="43.49677" lon="6.38037">
        <ele>235.9</ele>
        <time>2021-05-02T06:23:41.000Z</time>
      </trkpt>
      <trkpt lat="43.49677" lon="6.38038">
        <ele>235.9</ele>
        <time>2021-05-02T06:23:43.000Z</time>
      </trkpt>
      <trkpt lat="43.49679" lon="6.3804">
        <ele>236.1</ele>
        <time>2021-05-02T06:23:50.000Z</time>
      </trkpt>
      <trkpt lat="43.49679" lon="6.3804">
        <ele>236.2</ele>
        <time>2021-05-02T06:23:52.000Z</time>
      </trkpt>
      <trkpt lat="43.49678" lon="6.38046">
        <ele>236</ele>
        <time>2021-05-02T06:24:08.000Z</time>
      </trkpt>
      <trkpt lat="43.49678" lon="6.38046">
        <ele>236.1</ele>
        <time>2021-05-02T06:24:24.000Z</time>
      </trkpt>
      <trkpt lat="43.4968" lon="6.3804">
        <ele>236.1</ele>
        <time>2021-05-02T06:24:36.000Z</time>
      </trkpt>
      <trkpt lat="43.4968" lon="6.3804">
        <ele>236.2</ele>
        <time>2021-05-02T06:24:41.000Z</time>
      </trkpt>
      <trkpt lat="43.4968" lon="6.3804">
        <ele>236.2</ele>
        <time>2021-05-02T06:24:42.000Z</time>
      </trkpt>
      <trkpt lat="43.4968" lon="6.3804">
        <ele>235.9</ele>
        <time>2021-05-02T06:24:48.000Z</time>
      </trkpt>
      <trkpt lat="43.4968" lon="6.3804">
        <ele>236</ele>
        <time>2021-05-02T06:24:49.000Z</time>
      </trkpt>
      <trkpt lat="43.4968" lon="6.3804">
        <ele>235.8</ele>
        <time>2021-05-02T06:24:55.000Z</time>
      </trkpt>
      <trkpt lat="43.4968" lon="6.3804">
        <ele>235.9</ele>
        <time>2021-05-02T06:24:56.000Z</time>
      </trkpt>
      <trkpt lat="43.4968" lon="6.3804">
        <ele>235.9</ele>
        <time>2021-05-02T06:25:03.000Z</time>
      </trkpt>
      <trkpt lat="43.4968" lon="6.3804">
        <ele>236.1</ele>
        <time>2021-05-02T06:25:04.000Z</time>
      </trkpt>
      <trkpt lat="43.4968" lon="6.3804">
        <ele>236</ele>
        <time>2021-05-02T06:25:12.000Z</time>
      </trkpt>
      <trkpt lat="43.4968" lon="6.3804">
        <ele>236</ele>
        <time>2021-05-02T06:25:13.000Z</time>
      </trkpt>
      <trkpt lat="43.4968" lon="6.3804">
        <ele>236</ele>
        <time>2021-05-02T06:25:26.000Z</time>
      </trkpt>
      <trkpt lat="43.4968" lon="6.38039">
        <ele>235.9</ele>
        <time>2021-05-02T06:25:29.000Z</time>
      </trkpt>
      <trkpt lat="43.4968" lon="6.38039">
        <ele>235.9</ele>
        <time>2021-05-02T06:25:30.000Z</time>
      </trkpt>
      <trkpt lat="43.4968" lon="6.38042">
        <ele>235.9</ele>
        <time>2021-05-02T06:25:35.000Z</time>
      </trkpt>
      <trkpt lat="43.4968" lon="6.38042">
        <ele>236.1</ele>
        <time>2021-05-02T06:25:40.000Z</time>
      </trkpt>
      <trkpt lat="43.4968" lon="6.38042">
        <ele>235.9</ele>
        <time>2021-05-02T06:25:41.000Z</time>
      </trkpt>
      <trkpt lat="43.4968" lon="6.38042">
        <ele>236</ele>
        <time>2021-05-02T06:25:43.000Z</time>
      </trkpt>
      <trkpt lat="43.49682" lon="6.38042">
        <ele>235.7</ele>
        <time>2021-05-02T06:25:46.000Z</time>
      </trkpt>
      <trkpt lat="43.49682" lon="6.38042">
        <ele>235.8</ele>
        <time>2021-05-02T06:25:47.000Z</time>
      </trkpt>
      <trkpt lat="43.49682" lon="6.38042">
        <ele>235.9</ele>
        <time>2021-05-02T06:25:48.000Z</time>
      </trkpt>
      <trkpt lat="43.49682" lon="6.38042">
        <ele>236</ele>
        <time>2021-05-02T06:25:49.000Z</time>
      </trkpt>
      <trkpt lat="43.49683" lon="6.38042">
        <ele>236.1</ele>
        <time>2021-05-02T06:25:56.000Z</time>
      </trkpt>
      <trkpt lat="43.49683" lon="6.38042">
        <ele>236</ele>
        <time>2021-05-02T06:25:59.000Z</time>
      </trkpt>
      <trkpt lat="43.49683" lon="6.38042">
        <ele>236</ele>
        <time>2021-05-02T06:26:00.000Z</time>
      </trkpt>
      <trkpt lat="43.49683" lon="6.38041">
        <ele>235.8</ele>
        <time>2021-05-02T06:26:06.000Z</time>
      </trkpt>
      <trkpt lat="43.49683" lon="6.38041">
        <ele>236</ele>
        <time>2021-05-02T06:26:08.000Z</time>
      </trkpt>
      <trkpt lat="43.49683" lon="6.3804">
        <ele>236</ele>
        <time>2021-05-02T06:26:09.000Z</time>
      </trkpt>
      <trkpt lat="43.49683" lon="6.3804">
        <ele>235.9</ele>
        <time>2021-05-02T06:26:10.000Z</time>
      </trkpt>
      <trkpt lat="43.49683" lon="6.3804">
        <ele>235.9</ele>
        <time>2021-05-02T06:26:11.000Z</time>
      </trkpt>
      <trkpt lat="43.49683" lon="6.3804">
        <ele>236.1</ele>
        <time>2021-05-02T06:26:12.000Z</time>
      </trkpt>
      <trkpt lat="43.49683" lon="6.38039">
        <ele>236.1</ele>
        <time>2021-05-02T06:26:14.000Z</time>
      </trkpt>
      <trkpt lat="43.49684" lon="6.38038">
        <ele>236</ele>
        <time>2021-05-02T06:26:18.000Z</time>
      </trkpt>
      <trkpt lat="43.49684" lon="6.38038">
        <ele>236</ele>
        <time>2021-05-02T06:26:19.000Z</time>
      </trkpt>
      <trkpt lat="43.49684" lon="6.38038">
        <ele>236</ele>
        <time>2021-05-02T06:26:20.000Z</time>
      </trkpt>
      <trkpt lat="43.49684" lon="6.38038">
        <ele>235.8</ele>
        <time>2021-05-02T06:26:24.000Z</time>
      </trkpt>
      <trkpt lat="43.49684" lon="6.38038">
        <ele>235.8</ele>
        <time>2021-05-02T06:26:27.000Z</time>
      </trkpt>
      <trkpt lat="43.49684" lon="6.38038">
        <ele>236</ele>
        <time>2021-05-02T06:26:29.000Z</time>
      </trkpt>
      <trkpt lat="43.49683" lon="6.38035">
        <ele>236.2</ele>
        <time>2021-05-02T06:26:35.000Z</time>
      </trkpt>
      <trkpt lat="43.49683" lon="6.38035">
        <ele>236.1</ele>
        <time>2021-05-02T06:26:42.000Z</time>
      </trkpt>
      <trkpt lat="43.49675" lon="6.38028">
        <ele>236</ele>
        <time>2021-05-02T06:26:52.000Z</time>
      </trkpt>
      <trkpt lat="43.49665" lon="6.38026">
        <ele>235.9</ele>
        <time>2021-05-02T06:27:00.000Z</time>
      </trkpt>
      <trkpt lat="43.49663" lon="6.38027">
        <ele>236.3</ele>
        <time>2021-05-02T06:27:04.000Z</time>
      </trkpt>
      <trkpt lat="43.49663" lon="6.38027">
        <ele>236.3</ele>
        <time>2021-05-02T06:27:05.000Z</time>
      </trkpt>
      <trkpt lat="43.49654" lon="6.38022">
        <ele>236.3</ele>
        <time>2021-05-02T06:27:17.000Z</time>
      </trkpt>
      <trkpt lat="43.4965" lon="6.38011">
        <ele>236.8</ele>
        <time>2021-05-02T06:27:29.000Z</time>
      </trkpt>
      <trkpt lat="43.49657" lon="6.38003">
        <ele>239.2</ele>
        <time>2021-05-02T06:27:44.000Z</time>
      </trkpt>
      <trkpt lat="43.49667" lon="6.38001">
        <ele>241.2</ele>
        <time>2021-05-02T06:27:57.000Z</time>
      </trkpt>
      <trkpt lat="43.49676" lon="6.38003">
        <ele>242.4</ele>
        <time>2021-05-02T06:28:07.000Z</time>
      </trkpt>
      <trkpt lat="43.49685" lon="6.38008">
        <ele>242.2</ele>
        <time>2021-05-02T06:28:16.000Z</time>
      </trkpt>
      <trkpt lat="43.49694" lon="6.38013">
        <ele>241.8</ele>
        <time>2021-05-02T06:28:25.000Z</time>
      </trkpt>
      <trkpt lat="43.49703" lon="6.38017">
        <ele>242.3</ele>
        <time>2021-05-02T06:28:34.000Z</time>
      </trkpt>
      <trkpt lat="43.49712" lon="6.38017">
        <ele>243.4</ele>
        <time>2021-05-02T06:28:44.000Z</time>
      </trkpt>
      <trkpt lat="43.49722" lon="6.38018">
        <ele>244.7</ele>
        <time>2021-05-02T06:28:53.000Z</time>
      </trkpt>
      <trkpt lat="43.49731" lon="6.38015">
        <ele>246.4</ele>
        <time>2021-05-02T06:29:03.000Z</time>
      </trkpt>
      <trkpt lat="43.49738" lon="6.38024">
        <ele>247</ele>
        <time>2021-05-02T06:29:15.000Z</time>
      </trkpt>
      <trkpt lat="43.49743" lon="6.38036">
        <ele>247.8</ele>
        <time>2021-05-02T06:29:24.000Z</time>
      </trkpt>
      <trkpt lat="43.49748" lon="6.38048">
        <ele>248</ele>
        <time>2021-05-02T06:29:34.000Z</time>
      </trkpt>
      <trkpt lat="43.49752" lon="6.3806">
        <ele>248.3</ele>
        <time>2021-05-02T06:29:42.000Z</time>
      </trkpt>
      <trkpt lat="43.49756" lon="6.38071">
        <ele>248.6</ele>
        <time>2021-05-02T06:29:49.000Z</time>
      </trkpt>
      <trkpt lat="43.49761" lon="6.38082">
        <ele>248.9</ele>
        <time>2021-05-02T06:29:57.000Z</time>
      </trkpt>
      <trkpt lat="43.49768" lon="6.38092">
        <ele>249.5</ele>
        <time>2021-05-02T06:30:07.000Z</time>
      </trkpt>
      <trkpt lat="43.49776" lon="6.38099">
        <ele>250</ele>
        <time>2021-05-02T06:30:21.000Z</time>
      </trkpt>
      <trkpt lat="43.49784" lon="6.38106">
        <ele>249.9</ele>
        <time>2021-05-02T06:30:30.000Z</time>
      </trkpt>
      <trkpt lat="43.49794" lon="6.38109">
        <ele>250.9</ele>
        <time>2021-05-02T06:30:37.000Z</time>
      </trkpt>
      <trkpt lat="43.49803" lon="6.38113">
        <ele>251</ele>
        <time>2021-05-02T06:30:45.000Z</time>
      </trkpt>
      <trkpt lat="43.49813" lon="6.38117">
        <ele>251.5</ele>
        <time>2021-05-02T06:30:53.000Z</time>
      </trkpt>
      <trkpt lat="43.49821" lon="6.38122">
        <ele>252.1</ele>
        <time>2021-05-02T06:31:01.000Z</time>
      </trkpt>
      <trkpt lat="43.4983" lon="6.38128">
        <ele>252.2</ele>
        <time>2021-05-02T06:31:10.000Z</time>
      </trkpt>
      <trkpt lat="43.49838" lon="6.38135">
        <ele>252.9</ele>
        <time>2021-05-02T06:31:19.000Z</time>
      </trkpt>
      <trkpt lat="43.49847" lon="6.3814">
        <ele>252.9</ele>
        <time>2021-05-02T06:31:27.000Z</time>
      </trkpt>
      <trkpt lat="43.49856" lon="6.38145">
        <ele>253.8</ele>
        <time>2021-05-02T06:31:36.000Z</time>
      </trkpt>
      <trkpt lat="43.49864" lon="6.38151">
        <ele>253.9</ele>
        <time>2021-05-02T06:31:44.000Z</time>
      </trkpt>
      <trkpt lat="43.49871" lon="6.3816">
        <ele>253.8</ele>
        <time>2021-05-02T06:31:52.000Z</time>
      </trkpt>
      <trkpt lat="43.49879" lon="6.38167">
        <ele>253.5</ele>
        <time>2021-05-02T06:32:00.000Z</time>
      </trkpt>
      <trkpt lat="43.49886" lon="6.38176">
        <ele>254.3</ele>
        <time>2021-05-02T06:32:11.000Z</time>
      </trkpt>
      <trkpt lat="43.49895" lon="6.38172">
        <ele>254.9</ele>
        <time>2021-05-02T06:32:18.000Z</time>
      </trkpt>
      <trkpt lat="43.49904" lon="6.38173">
        <ele>256.2</ele>
        <time>2021-05-02T06:32:27.000Z</time>
      </trkpt>
      <trkpt lat="43.49914" lon="6.38171">
        <ele>256.7</ele>
        <time>2021-05-02T06:32:36.000Z</time>
      </trkpt>
      <trkpt lat="43.49921" lon="6.38162">
        <ele>257.3</ele>
        <time>2021-05-02T06:32:44.000Z</time>
      </trkpt>
      <trkpt lat="43.49924" lon="6.3815">
        <ele>259.1</ele>
        <time>2021-05-02T06:32:53.000Z</time>
      </trkpt>
      <trkpt lat="43.49922" lon="6.38136">
        <ele>260.5</ele>
        <time>2021-05-02T06:33:03.000Z</time>
      </trkpt>
      <trkpt lat="43.4992" lon="6.38124">
        <ele>261.7</ele>
        <time>2021-05-02T06:33:14.000Z</time>
      </trkpt>
      <trkpt lat="43.49922" lon="6.38111">
        <ele>263.3</ele>
        <time>2021-05-02T06:33:26.000Z</time>
      </trkpt>
      <trkpt lat="43.49923" lon="6.38099">
        <ele>265.6</ele>
        <time>2021-05-02T06:33:42.000Z</time>
      </trkpt>
      <trkpt lat="43.49926" lon="6.38086">
        <ele>268.4</ele>
        <time>2021-05-02T06:33:58.000Z</time>
      </trkpt>
      <trkpt lat="43.49928" lon="6.38073">
        <ele>270.4</ele>
        <time>2021-05-02T06:34:09.000Z</time>
      </trkpt>
      <trkpt lat="43.4993" lon="6.38061">
        <ele>272.9</ele>
        <time>2021-05-02T06:34:26.000Z</time>
      </trkpt>
      <trkpt lat="43.49933" lon="6.38056">
        <ele>274.1</ele>
        <time>2021-05-02T06:34:34.000Z</time>
      </trkpt>
      <trkpt lat="43.49933" lon="6.38056">
        <ele>274.4</ele>
        <time>2021-05-02T06:34:39.000Z</time>
      </trkpt>
      <trkpt lat="43.49935" lon="6.38049">
        <ele>276.2</ele>
        <time>2021-05-02T06:34:49.000Z</time>
      </trkpt>
      <trkpt lat="43.49935" lon="6.38048">
        <ele>276.4</ele>
        <time>2021-05-02T06:34:50.000Z</time>
      </trkpt>
      <trkpt lat="43.49939" lon="6.38036">
        <ele>279.1</ele>
        <time>2021-05-02T06:35:07.000Z</time>
      </trkpt>
      <trkpt lat="43.49941" lon="6.38024">
        <ele>280.9</ele>
        <time>2021-05-02T06:35:18.000Z</time>
      </trkpt>
      <trkpt lat="43.4995" lon="6.38021">
        <ele>281.1</ele>
        <time>2021-05-02T06:35:30.000Z</time>
      </trkpt>
      <trkpt lat="43.4996" lon="6.38017">
        <ele>280.6</ele>
        <time>2021-05-02T06:35:42.000Z</time>
      </trkpt>
      <trkpt lat="43.49969" lon="6.38012">
        <ele>280.3</ele>
        <time>2021-05-02T06:35:53.000Z</time>
      </trkpt>
      <trkpt lat="43.49977" lon="6.38006">
        <ele>279.8</ele>
        <time>2021-05-02T06:36:02.000Z</time>
      </trkpt>
      <trkpt lat="43.49986" lon="6.37998">
        <ele>278.9</ele>
        <time>2021-05-02T06:36:11.000Z</time>
      </trkpt>
      <trkpt lat="43.49993" lon="6.3799">
        <ele>278.9</ele>
        <time>2021-05-02T06:36:18.000Z</time>
      </trkpt>
      <trkpt lat="43.5" lon="6.3798">
        <ele>279</ele>
        <time>2021-05-02T06:36:25.000Z</time>
      </trkpt>
      <trkpt lat="43.50005" lon="6.37968">
        <ele>279.3</ele>
        <time>2021-05-02T06:36:34.000Z</time>
      </trkpt>
      <trkpt lat="43.50008" lon="6.37955">
        <ele>279.6</ele>
        <time>2021-05-02T06:36:42.000Z</time>
      </trkpt>
      <trkpt lat="43.50012" lon="6.37944">
        <ele>280.1</ele>
        <time>2021-05-02T06:36:50.000Z</time>
      </trkpt>
      <trkpt lat="43.50016" lon="6.37933">
        <ele>280.5</ele>
        <time>2021-05-02T06:36:57.000Z</time>
      </trkpt>
      <trkpt lat="43.5002" lon="6.3792">
        <ele>280.2</ele>
        <time>2021-05-02T06:37:05.000Z</time>
      </trkpt>
      <trkpt lat="43.50022" lon="6.37908">
        <ele>280.4</ele>
        <time>2021-05-02T06:37:13.000Z</time>
      </trkpt>
      <trkpt lat="43.50023" lon="6.37895">
        <ele>280.8</ele>
        <time>2021-05-02T06:37:23.000Z</time>
      </trkpt>
      <trkpt lat="43.5002" lon="6.37881">
        <ele>282.1</ele>
        <time>2021-05-02T06:37:33.000Z</time>
      </trkpt>
      <trkpt lat="43.50017" lon="6.37868">
        <ele>283</ele>
        <time>2021-05-02T06:37:42.000Z</time>
      </trkpt>
      <trkpt lat="43.50016" lon="6.37856">
        <ele>282.8</ele>
        <time>2021-05-02T06:37:50.000Z</time>
      </trkpt>
      <trkpt lat="43.50018" lon="6.37843">
        <ele>282.8</ele>
        <time>2021-05-02T06:38:00.000Z</time>
      </trkpt>
      <trkpt lat="43.5002" lon="6.37829">
        <ele>282.9</ele>
        <time>2021-05-02T06:38:08.000Z</time>
      </trkpt>
      <trkpt lat="43.50023" lon="6.37816">
        <ele>282.4</ele>
        <time>2021-05-02T06:38:15.000Z</time>
      </trkpt>
      <trkpt lat="43.50026" lon="6.37803">
        <ele>281.8</ele>
        <time>2021-05-02T06:38:24.000Z</time>
      </trkpt>
      <trkpt lat="43.50026" lon="6.3779">
        <ele>282</ele>
        <time>2021-05-02T06:38:33.000Z</time>
      </trkpt>
      <trkpt lat="43.50025" lon="6.37776">
        <ele>282.3</ele>
        <time>2021-05-02T06:38:41.000Z</time>
      </trkpt>
      <trkpt lat="43.50024" lon="6.37764">
        <ele>282.3</ele>
        <time>2021-05-02T06:38:48.000Z</time>
      </trkpt>
      <trkpt lat="43.50025" lon="6.37751">
        <ele>282.2</ele>
        <time>2021-05-02T06:38:56.000Z</time>
      </trkpt>
      <trkpt lat="43.50024" lon="6.37738">
        <ele>282.4</ele>
        <time>2021-05-02T06:39:05.000Z</time>
      </trkpt>
      <trkpt lat="43.50023" lon="6.37723">
        <ele>282.6</ele>
        <time>2021-05-02T06:39:11.000Z</time>
      </trkpt>
      <trkpt lat="43.50021" lon="6.37711">
        <ele>283</ele>
        <time>2021-05-02T06:39:19.000Z</time>
      </trkpt>
      <trkpt lat="43.50019" lon="6.37698">
        <ele>283.9</ele>
        <time>2021-05-02T06:39:27.000Z</time>
      </trkpt>
      <trkpt lat="43.50015" lon="6.37687">
        <ele>283.3</ele>
        <time>2021-05-02T06:39:35.000Z</time>
      </trkpt>
      <trkpt lat="43.50011" lon="6.37674">
        <ele>282.7</ele>
        <time>2021-05-02T06:39:44.000Z</time>
      </trkpt>
      <trkpt lat="43.50011" lon="6.3766">
        <ele>282.9</ele>
        <time>2021-05-02T06:39:52.000Z</time>
      </trkpt>
      <trkpt lat="43.50011" lon="6.37646">
        <ele>282.8</ele>
        <time>2021-05-02T06:40:00.000Z</time>
      </trkpt>
      <trkpt lat="43.50008" lon="6.37632">
        <ele>282.7</ele>
        <time>2021-05-02T06:40:08.000Z</time>
      </trkpt>
      <trkpt lat="43.50005" lon="6.3762">
        <ele>282.9</ele>
        <time>2021-05-02T06:40:17.000Z</time>
      </trkpt>
      <trkpt lat="43.50008" lon="6.37608">
        <ele>283.8</ele>
        <time>2021-05-02T06:40:24.000Z</time>
      </trkpt>
      <trkpt lat="43.50012" lon="6.37596">
        <ele>283.4</ele>
        <time>2021-05-02T06:40:35.000Z</time>
      </trkpt>
      <trkpt lat="43.50015" lon="6.37583">
        <ele>284.3</ele>
        <time>2021-05-02T06:40:45.000Z</time>
      </trkpt>
      <trkpt lat="43.50018" lon="6.37569">
        <ele>285.1</ele>
        <time>2021-05-02T06:40:54.000Z</time>
      </trkpt>
      <trkpt lat="43.50019" lon="6.37555">
        <ele>285.6</ele>
        <time>2021-05-02T06:41:03.000Z</time>
      </trkpt>
      <trkpt lat="43.5002" lon="6.37542">
        <ele>286.4</ele>
        <time>2021-05-02T06:41:11.000Z</time>
      </trkpt>
      <trkpt lat="43.5002" lon="6.37529">
        <ele>286.6</ele>
        <time>2021-05-02T06:41:19.000Z</time>
      </trkpt>
      <trkpt lat="43.50022" lon="6.37517">
        <ele>287.3</ele>
        <time>2021-05-02T06:41:27.000Z</time>
      </trkpt>
      <trkpt lat="43.5002" lon="6.37504">
        <ele>287.8</ele>
        <time>2021-05-02T06:41:34.000Z</time>
      </trkpt>
      <trkpt lat="43.50019" lon="6.37491">
        <ele>287.7</ele>
        <time>2021-05-02T06:41:41.000Z</time>
      </trkpt>
      <trkpt lat="43.50015" lon="6.37479">
        <ele>288</ele>
        <time>2021-05-02T06:41:48.000Z</time>
      </trkpt>
      <trkpt lat="43.50011" lon="6.37467">
        <ele>289</ele>
        <time>2021-05-02T06:41:56.000Z</time>
      </trkpt>
      <trkpt lat="43.5001" lon="6.37454">
        <ele>289.3</ele>
        <time>2021-05-02T06:42:05.000Z</time>
      </trkpt>
      <trkpt lat="43.50012" lon="6.37442">
        <ele>290.1</ele>
        <time>2021-05-02T06:42:12.000Z</time>
      </trkpt>
      <trkpt lat="43.50019" lon="6.37432">
        <ele>290.8</ele>
        <time>2021-05-02T06:42:20.000Z</time>
      </trkpt>
      <trkpt lat="43.50023" lon="6.3742">
        <ele>291.6</ele>
        <time>2021-05-02T06:42:31.000Z</time>
      </trkpt>
      <trkpt lat="43.50028" lon="6.37409">
        <ele>291.2</ele>
        <time>2021-05-02T06:42:39.000Z</time>
      </trkpt>
      <trkpt lat="43.50035" lon="6.37399">
        <ele>290.4</ele>
        <time>2021-05-02T06:42:50.000Z</time>
      </trkpt>
      <trkpt lat="43.50044" lon="6.37398">
        <ele>288.6</ele>
        <time>2021-05-02T06:43:01.000Z</time>
      </trkpt>
      <trkpt lat="43.50054" lon="6.37397">
        <ele>287.1</ele>
        <time>2021-05-02T06:43:10.000Z</time>
      </trkpt>
      <trkpt lat="43.50064" lon="6.37393">
        <ele>286.1</ele>
        <time>2021-05-02T06:43:18.000Z</time>
      </trkpt>
      <trkpt lat="43.50074" lon="6.37391">
        <ele>285.7</ele>
        <time>2021-05-02T06:43:25.000Z</time>
      </trkpt>
      <trkpt lat="43.50084" lon="6.37389">
        <ele>284.9</ele>
        <time>2021-05-02T06:43:36.000Z</time>
      </trkpt>
      <trkpt lat="43.50092" lon="6.37383">
        <ele>284.1</ele>
        <time>2021-05-02T06:43:47.000Z</time>
      </trkpt>
      <trkpt lat="43.50096" lon="6.3737">
        <ele>283.5</ele>
        <time>2021-05-02T06:43:56.000Z</time>
      </trkpt>
      <trkpt lat="43.501" lon="6.37358">
        <ele>283.5</ele>
        <time>2021-05-02T06:44:04.000Z</time>
      </trkpt>
      <trkpt lat="43.50104" lon="6.37346">
        <ele>283.6</ele>
        <time>2021-05-02T06:44:12.000Z</time>
      </trkpt>
      <trkpt lat="43.50109" lon="6.37334">
        <ele>281.7</ele>
        <time>2021-05-02T06:44:21.000Z</time>
      </trkpt>
      <trkpt lat="43.50114" lon="6.37324">
        <ele>280.8</ele>
        <time>2021-05-02T06:44:29.000Z</time>
      </trkpt>
      <trkpt lat="43.50124" lon="6.37326">
        <ele>280.7</ele>
        <time>2021-05-02T06:44:42.000Z</time>
      </trkpt>
      <trkpt lat="43.5013" lon="6.37335">
        <ele>281.5</ele>
        <time>2021-05-02T06:44:54.000Z</time>
      </trkpt>
      <trkpt lat="43.5013" lon="6.37347">
        <ele>282.7</ele>
        <time>2021-05-02T06:45:05.000Z</time>
      </trkpt>
      <trkpt lat="43.50129" lon="6.3736">
        <ele>283.6</ele>
        <time>2021-05-02T06:45:17.000Z</time>
      </trkpt>
      <trkpt lat="43.50127" lon="6.37373">
        <ele>283.7</ele>
        <time>2021-05-02T06:45:31.000Z</time>
      </trkpt>
      <trkpt lat="43.50122" lon="6.37385">
        <ele>284.1</ele>
        <time>2021-05-02T06:45:40.000Z</time>
      </trkpt>
      <trkpt lat="43.50119" lon="6.37397">
        <ele>284.1</ele>
        <time>2021-05-02T06:45:47.000Z</time>
      </trkpt>
      <trkpt lat="43.50118" lon="6.3741">
        <ele>283.9</ele>
        <time>2021-05-02T06:45:56.000Z</time>
      </trkpt>
      <trkpt lat="43.50114" lon="6.37416">
        <ele>283.8</ele>
        <time>2021-05-02T06:46:09.000Z</time>
      </trkpt>
      <trkpt lat="43.50114" lon="6.37416">
        <ele>283.9</ele>
        <time>2021-05-02T06:46:11.000Z</time>
      </trkpt>
      <trkpt lat="43.50114" lon="6.37416">
        <ele>283.9</ele>
        <time>2021-05-02T06:46:12.000Z</time>
      </trkpt>
      <trkpt lat="43.50115" lon="6.37416">
        <ele>284</ele>
        <time>2021-05-02T06:46:18.000Z</time>
      </trkpt>
      <trkpt lat="43.50115" lon="6.37417">
        <ele>283.8</ele>
        <time>2021-05-02T06:46:22.000Z</time>
      </trkpt>
      <trkpt lat="43.50115" lon="6.37417">
        <ele>283.9</ele>
        <time>2021-05-02T06:46:23.000Z</time>
      </trkpt>
      <trkpt lat="43.50115" lon="6.37417">
        <ele>283.9</ele>
        <time>2021-05-02T06:46:24.000Z</time>
      </trkpt>
      <trkpt lat="43.50115" lon="6.37417">
        <ele>283.7</ele>
        <time>2021-05-02T06:46:26.000Z</time>
      </trkpt>
      <trkpt lat="43.50116" lon="6.37416">
        <ele>283.8</ele>
        <time>2021-05-02T06:46:30.000Z</time>
      </trkpt>
      <trkpt lat="43.50116" lon="6.37416">
        <ele>283.7</ele>
        <time>2021-05-02T06:46:34.000Z</time>
      </trkpt>
      <trkpt lat="43.50116" lon="6.37415">
        <ele>283.9</ele>
        <time>2021-05-02T06:46:38.000Z</time>
      </trkpt>
      <trkpt lat="43.50116" lon="6.37415">
        <ele>283.9</ele>
        <time>2021-05-02T06:46:40.000Z</time>
      </trkpt>
      <trkpt lat="43.50116" lon="6.37415">
        <ele>283.7</ele>
        <time>2021-05-02T06:46:41.000Z</time>
      </trkpt>
      <trkpt lat="43.50116" lon="6.37415">
        <ele>283.8</ele>
        <time>2021-05-02T06:46:46.000Z</time>
      </trkpt>
      <trkpt lat="43.50116" lon="6.37415">
        <ele>283.8</ele>
        <time>2021-05-02T06:46:48.000Z</time>
      </trkpt>
      <trkpt lat="43.50116" lon="6.37415">
        <ele>284.1</ele>
        <time>2021-05-02T06:46:53.000Z</time>
      </trkpt>
      <trkpt lat="43.50116" lon="6.37415">
        <ele>284.1</ele>
        <time>2021-05-02T06:46:55.000Z</time>
      </trkpt>
      <trkpt lat="43.50116" lon="6.37415">
        <ele>283.5</ele>
        <time>2021-05-02T06:47:15.000Z</time>
      </trkpt>
      <trkpt lat="43.50116" lon="6.37415">
        <ele>283.4</ele>
        <time>2021-05-02T06:47:16.000Z</time>
      </trkpt>
      <trkpt lat="43.50116" lon="6.37416">
        <ele>283.4</ele>
        <time>2021-05-02T06:47:20.000Z</time>
      </trkpt>
      <trkpt lat="43.50117" lon="6.37416">
        <ele>283.6</ele>
        <time>2021-05-02T06:47:22.000Z</time>
      </trkpt>
      <trkpt lat="43.50117" lon="6.37416">
        <ele>283.9</ele>
        <time>2021-05-02T06:47:25.000Z</time>
      </trkpt>
      <trkpt lat="43.50117" lon="6.37416">
        <ele>283.8</ele>
        <time>2021-05-02T06:47:26.000Z</time>
      </trkpt>
      <trkpt lat="43.50117" lon="6.37416">
        <ele>283.7</ele>
        <time>2021-05-02T06:47:28.000Z</time>
      </trkpt>
      <trkpt lat="43.50117" lon="6.37416">
        <ele>283.6</ele>
        <time>2021-05-02T06:47:29.000Z</time>
      </trkpt>
      <trkpt lat="43.50117" lon="6.37416">
        <ele>283.6</ele>
        <time>2021-05-02T06:47:33.000Z</time>
      </trkpt>
      <trkpt lat="43.50117" lon="6.37416">
        <ele>283.6</ele>
        <time>2021-05-02T06:47:34.000Z</time>
      </trkpt>
      <trkpt lat="43.50117" lon="6.37416">
        <ele>283.6</ele>
        <time>2021-05-02T06:47:42.000Z</time>
      </trkpt>
      <trkpt lat="43.50115" lon="6.37429">
        <ele>283</ele>
        <time>2021-05-02T06:47:52.000Z</time>
      </trkpt>
      <trkpt lat="43.50116" lon="6.37442">
        <ele>282.1</ele>
        <time>2021-05-02T06:48:01.000Z</time>
      </trkpt>
      <trkpt lat="43.50116" lon="6.37454">
        <ele>280.5</ele>
        <time>2021-05-02T06:48:10.000Z</time>
      </trkpt>
      <trkpt lat="43.5012" lon="6.37466">
        <ele>278.8</ele>
        <time>2021-05-02T06:48:19.000Z</time>
      </trkpt>
      <trkpt lat="43.50125" lon="6.37478">
        <ele>277.8</ele>
        <time>2021-05-02T06:48:29.000Z</time>
      </trkpt>
      <trkpt lat="43.5013" lon="6.37488">
        <ele>276.6</ele>
        <time>2021-05-02T06:48:38.000Z</time>
      </trkpt>
      <trkpt lat="43.50137" lon="6.37497">
        <ele>276.1</ele>
        <time>2021-05-02T06:48:46.000Z</time>
      </trkpt>
      <trkpt lat="43.50146" lon="6.37504">
        <ele>276</ele>
        <time>2021-05-02T06:48:52.000Z</time>
      </trkpt>
      <trkpt lat="43.50152" lon="6.37514">
        <ele>275.7</ele>
        <time>2021-05-02T06:49:00.000Z</time>
      </trkpt>
      <trkpt lat="43.50161" lon="6.37518">
        <ele>275.9</ele>
        <time>2021-05-02T06:49:09.000Z</time>
      </trkpt>
      <trkpt lat="43.50169" lon="6.37523">
        <ele>276</ele>
        <time>2021-05-02T06:49:16.000Z</time>
      </trkpt>
      <trkpt lat="43.50178" lon="6.37528">
        <ele>276.3</ele>
        <time>2021-05-02T06:49:24.000Z</time>
      </trkpt>
      <trkpt lat="43.50186" lon="6.37534">
        <ele>276.5</ele>
        <time>2021-05-02T06:49:34.000Z</time>
      </trkpt>
      <trkpt lat="43.50193" lon="6.37542">
        <ele>276.6</ele>
        <time>2021-05-02T06:49:40.000Z</time>
      </trkpt>
      <trkpt lat="43.50202" lon="6.37549">
        <ele>276.9</ele>
        <time>2021-05-02T06:49:48.000Z</time>
      </trkpt>
      <trkpt lat="43.50209" lon="6.37557">
        <ele>277</ele>
        <time>2021-05-02T06:49:57.000Z</time>
      </trkpt>
      <trkpt lat="43.50217" lon="6.37564">
        <ele>277.5</ele>
        <time>2021-05-02T06:50:07.000Z</time>
      </trkpt>
      <trkpt lat="43.50226" lon="6.37569">
        <ele>278.6</ele>
        <time>2021-05-02T06:50:18.000Z</time>
      </trkpt>
      <trkpt lat="43.50234" lon="6.37575">
        <ele>279.5</ele>
        <time>2021-05-02T06:50:30.000Z</time>
      </trkpt>
      <trkpt lat="43.50243" lon="6.37582">
        <ele>281.1</ele>
        <time>2021-05-02T06:50:42.000Z</time>
      </trkpt>
      <trkpt lat="43.50249" lon="6.3759">
        <ele>282.6</ele>
        <time>2021-05-02T06:50:51.000Z</time>
      </trkpt>
      <trkpt lat="43.50257" lon="6.37597">
        <ele>283.9</ele>
        <time>2021-05-02T06:51:03.000Z</time>
      </trkpt>
      <trkpt lat="43.50264" lon="6.37606">
        <ele>285.6</ele>
        <time>2021-05-02T06:51:14.000Z</time>
      </trkpt>
      <trkpt lat="43.50271" lon="6.37614">
        <ele>286.3</ele>
        <time>2021-05-02T06:51:23.000Z</time>
      </trkpt>
      <trkpt lat="43.50279" lon="6.37621">
        <ele>287.5</ele>
        <time>2021-05-02T06:51:32.000Z</time>
      </trkpt>
      <trkpt lat="43.50287" lon="6.37628">
        <ele>288.4</ele>
        <time>2021-05-02T06:51:43.000Z</time>
      </trkpt>
      <trkpt lat="43.50294" lon="6.37636">
        <ele>290</ele>
        <time>2021-05-02T06:51:55.000Z</time>
      </trkpt>
      <trkpt lat="43.50303" lon="6.37643">
        <ele>291</ele>
        <time>2021-05-02T06:52:05.000Z</time>
      </trkpt>
      <trkpt lat="43.5031" lon="6.37651">
        <ele>292.6</ele>
        <time>2021-05-02T06:52:18.000Z</time>
      </trkpt>
      <trkpt lat="43.50317" lon="6.37659">
        <ele>293.8</ele>
        <time>2021-05-02T06:52:27.000Z</time>
      </trkpt>
      <trkpt lat="43.50325" lon="6.37666">
        <ele>294.7</ele>
        <time>2021-05-02T06:52:36.000Z</time>
      </trkpt>
      <trkpt lat="43.50332" lon="6.37675">
        <ele>295.6</ele>
        <time>2021-05-02T06:52:48.000Z</time>
      </trkpt>
      <trkpt lat="43.5034" lon="6.37682">
        <ele>295.6</ele>
        <time>2021-05-02T06:53:00.000Z</time>
      </trkpt>
      <trkpt lat="43.50348" lon="6.37691">
        <ele>295.9</ele>
        <time>2021-05-02T06:53:10.000Z</time>
      </trkpt>
      <trkpt lat="43.50355" lon="6.377">
        <ele>295.5</ele>
        <time>2021-05-02T06:53:16.000Z</time>
      </trkpt>
      <trkpt lat="43.50362" lon="6.37708">
        <ele>294.9</ele>
        <time>2021-05-02T06:53:24.000Z</time>
      </trkpt>
      <trkpt lat="43.50369" lon="6.37718">
        <ele>294.5</ele>
        <time>2021-05-02T06:53:32.000Z</time>
      </trkpt>
      <trkpt lat="43.50375" lon="6.37729">
        <ele>293.6</ele>
        <time>2021-05-02T06:53:42.000Z</time>
      </trkpt>
      <trkpt lat="43.50383" lon="6.37737">
        <ele>293.2</ele>
        <time>2021-05-02T06:53:51.000Z</time>
      </trkpt>
      <trkpt lat="43.50391" lon="6.37743">
        <ele>292.7</ele>
        <time>2021-05-02T06:53:59.000Z</time>
      </trkpt>
      <trkpt lat="43.50398" lon="6.37751">
        <ele>292.1</ele>
        <time>2021-05-02T06:54:09.000Z</time>
      </trkpt>
      <trkpt lat="43.50404" lon="6.37761">
        <ele>292.4</ele>
        <time>2021-05-02T06:54:16.000Z</time>
      </trkpt>
      <trkpt lat="43.50411" lon="6.37769">
        <ele>292.6</ele>
        <time>2021-05-02T06:54:24.000Z</time>
      </trkpt>
      <trkpt lat="43.50416" lon="6.37779">
        <ele>292.6</ele>
        <time>2021-05-02T06:54:33.000Z</time>
      </trkpt>
      <trkpt lat="43.50415" lon="6.37793">
        <ele>291.5</ele>
        <time>2021-05-02T06:54:45.000Z</time>
      </trkpt>
      <trkpt lat="43.50412" lon="6.37807">
        <ele>290.5</ele>
        <time>2021-05-02T06:54:55.000Z</time>
      </trkpt>
      <trkpt lat="43.50408" lon="6.37819">
        <ele>289.8</ele>
        <time>2021-05-02T06:55:05.000Z</time>
      </trkpt>
      <trkpt lat="43.50405" lon="6.3783">
        <ele>290</ele>
        <time>2021-05-02T06:55:12.000Z</time>
      </trkpt>
      <trkpt lat="43.50401" lon="6.37841">
        <ele>289.6</ele>
        <time>2021-05-02T06:55:20.000Z</time>
      </trkpt>
      <trkpt lat="43.504" lon="6.37854">
        <ele>290</ele>
        <time>2021-05-02T06:55:28.000Z</time>
      </trkpt>
      <trkpt lat="43.504" lon="6.37867">
        <ele>289.6</ele>
        <time>2021-05-02T06:55:35.000Z</time>
      </trkpt>
      <trkpt lat="43.50397" lon="6.37879">
        <ele>288.9</ele>
        <time>2021-05-02T06:55:42.000Z</time>
      </trkpt>
      <trkpt lat="43.50396" lon="6.37893">
        <ele>288.2</ele>
        <time>2021-05-02T06:55:51.000Z</time>
      </trkpt>
      <trkpt lat="43.50398" lon="6.37906">
        <ele>287.6</ele>
        <time>2021-05-02T06:56:00.000Z</time>
      </trkpt>
      <trkpt lat="43.504" lon="6.3792">
        <ele>286.9</ele>
        <time>2021-05-02T06:56:10.000Z</time>
      </trkpt>
      <trkpt lat="43.50403" lon="6.37932">
        <ele>286</ele>
        <time>2021-05-02T06:56:17.000Z</time>
      </trkpt>
      <trkpt lat="43.50406" lon="6.37945">
        <ele>284.9</ele>
        <time>2021-05-02T06:56:27.000Z</time>
      </trkpt>
      <trkpt lat="43.50409" lon="6.37958">
        <ele>283.6</ele>
        <time>2021-05-02T06:56:37.000Z</time>
      </trkpt>
      <trkpt lat="43.50412" lon="6.3797">
        <ele>282</ele>
        <time>2021-05-02T06:56:47.000Z</time>
      </trkpt>
      <trkpt lat="43.50411" lon="6.37984">
        <ele>280.6</ele>
        <time>2021-05-02T06:56:56.000Z</time>
      </trkpt>
      <trkpt lat="43.50415" lon="6.37996">
        <ele>279.8</ele>
        <time>2021-05-02T06:57:03.000Z</time>
      </trkpt>
      <trkpt lat="43.50421" lon="6.38005">
        <ele>279.2</ele>
        <time>2021-05-02T06:57:10.000Z</time>
      </trkpt>
      <trkpt lat="43.50428" lon="6.38014">
        <ele>278.6</ele>
        <time>2021-05-02T06:57:19.000Z</time>
      </trkpt>
      <trkpt lat="43.50434" lon="6.38024">
        <ele>277.2</ele>
        <time>2021-05-02T06:57:29.000Z</time>
      </trkpt>
      <trkpt lat="43.50441" lon="6.38034">
        <ele>276.4</ele>
        <time>2021-05-02T06:57:36.000Z</time>
      </trkpt>
      <trkpt lat="43.50448" lon="6.38041">
        <ele>275.1</ele>
        <time>2021-05-02T06:57:43.000Z</time>
      </trkpt>
      <trkpt lat="43.50454" lon="6.38051">
        <ele>273.9</ele>
        <time>2021-05-02T06:57:53.000Z</time>
      </trkpt>
      <trkpt lat="43.50463" lon="6.38057">
        <ele>273.1</ele>
        <time>2021-05-02T06:58:02.000Z</time>
      </trkpt>
      <trkpt lat="43.50473" lon="6.3806">
        <ele>271.7</ele>
        <time>2021-05-02T06:58:12.000Z</time>
      </trkpt>
      <trkpt lat="43.50481" lon="6.38066">
        <ele>270.7</ele>
        <time>2021-05-02T06:58:20.000Z</time>
      </trkpt>
      <trkpt lat="43.5049" lon="6.38063">
        <ele>270</ele>
        <time>2021-05-02T06:58:27.000Z</time>
      </trkpt>
      <trkpt lat="43.50498" lon="6.3807">
        <ele>268.3</ele>
        <time>2021-05-02T06:58:39.000Z</time>
      </trkpt>
      <trkpt lat="43.50506" lon="6.38076">
        <ele>266.8</ele>
        <time>2021-05-02T06:58:49.000Z</time>
      </trkpt>
      <trkpt lat="43.50516" lon="6.38077">
        <ele>264.9</ele>
        <time>2021-05-02T06:58:59.000Z</time>
      </trkpt>
      <trkpt lat="43.50526" lon="6.38077">
        <ele>264.1</ele>
        <time>2021-05-02T06:59:08.000Z</time>
      </trkpt>
      <trkpt lat="43.50535" lon="6.38072">
        <ele>263</ele>
        <time>2021-05-02T06:59:17.000Z</time>
      </trkpt>
      <trkpt lat="43.50545" lon="6.38072">
        <ele>261.7</ele>
        <time>2021-05-02T06:59:28.000Z</time>
      </trkpt>
      <trkpt lat="43.50554" lon="6.38072">
        <ele>260.5</ele>
        <time>2021-05-02T06:59:38.000Z</time>
      </trkpt>
      <trkpt lat="43.50563" lon="6.3807">
        <ele>258.9</ele>
        <time>2021-05-02T06:59:48.000Z</time>
      </trkpt>
      <trkpt lat="43.50573" lon="6.38066">
        <ele>257.5</ele>
        <time>2021-05-02T06:59:57.000Z</time>
      </trkpt>
      <trkpt lat="43.50583" lon="6.38063">
        <ele>256.3</ele>
        <time>2021-05-02T07:00:06.000Z</time>
      </trkpt>
      <trkpt lat="43.50591" lon="6.38057">
        <ele>255.2</ele>
        <time>2021-05-02T07:00:14.000Z</time>
      </trkpt>
      <trkpt lat="43.50599" lon="6.38053">
        <ele>254.6</ele>
        <time>2021-05-02T07:00:22.000Z</time>
      </trkpt>
      <trkpt lat="43.50609" lon="6.38051">
        <ele>252.7</ele>
        <time>2021-05-02T07:00:31.000Z</time>
      </trkpt>
      <trkpt lat="43.50619" lon="6.38049">
        <ele>251.3</ele>
        <time>2021-05-02T07:00:40.000Z</time>
      </trkpt>
      <trkpt lat="43.50628" lon="6.38046">
        <ele>250.4</ele>
        <time>2021-05-02T07:00:50.000Z</time>
      </trkpt>
      <trkpt lat="43.50637" lon="6.3804">
        <ele>249.5</ele>
        <time>2021-05-02T07:01:01.000Z</time>
      </trkpt>
      <trkpt lat="43.50646" lon="6.38038">
        <ele>248</ele>
        <time>2021-05-02T07:01:12.000Z</time>
      </trkpt>
      <trkpt lat="43.50656" lon="6.38036">
        <ele>246.7</ele>
        <time>2021-05-02T07:01:20.000Z</time>
      </trkpt>
      <trkpt lat="43.50665" lon="6.38033">
        <ele>246</ele>
        <time>2021-05-02T07:01:31.000Z</time>
      </trkpt>
      <trkpt lat="43.50674" lon="6.38031">
        <ele>245.5</ele>
        <time>2021-05-02T07:01:40.000Z</time>
      </trkpt>
      <trkpt lat="43.50684" lon="6.38029">
        <ele>244.6</ele>
        <time>2021-05-02T07:01:50.000Z</time>
      </trkpt>
      <trkpt lat="43.50693" lon="6.38025">
        <ele>243.3</ele>
        <time>2021-05-02T07:02:00.000Z</time>
      </trkpt>
      <trkpt lat="43.50702" lon="6.38025">
        <ele>242.8</ele>
        <time>2021-05-02T07:02:09.000Z</time>
      </trkpt>
      <trkpt lat="43.50711" lon="6.38019">
        <ele>242.1</ele>
        <time>2021-05-02T07:02:16.000Z</time>
      </trkpt>
      <trkpt lat="43.50719" lon="6.38013">
        <ele>241.2</ele>
        <time>2021-05-02T07:02:25.000Z</time>
      </trkpt>
      <trkpt lat="43.50727" lon="6.38006">
        <ele>239.6</ele>
        <time>2021-05-02T07:02:33.000Z</time>
      </trkpt>
      <trkpt lat="43.50736" lon="6.37999">
        <ele>238.3</ele>
        <time>2021-05-02T07:02:43.000Z</time>
      </trkpt>
      <trkpt lat="43.50745" lon="6.37999">
        <ele>238.8</ele>
        <time>2021-05-02T07:02:57.000Z</time>
      </trkpt>
      <trkpt lat="43.50755" lon="6.37996">
        <ele>238.4</ele>
        <time>2021-05-02T07:03:06.000Z</time>
      </trkpt>
      <trkpt lat="43.50764" lon="6.37991">
        <ele>238.1</ele>
        <time>2021-05-02T07:03:13.000Z</time>
      </trkpt>
      <trkpt lat="43.50773" lon="6.37993">
        <ele>237.1</ele>
        <time>2021-05-02T07:03:24.000Z</time>
      </trkpt>
      <trkpt lat="43.50784" lon="6.37992">
        <ele>236.7</ele>
        <time>2021-05-02T07:03:31.000Z</time>
      </trkpt>
      <trkpt lat="43.50793" lon="6.37991">
        <ele>236.6</ele>
        <time>2021-05-02T07:03:37.000Z</time>
      </trkpt>
      <trkpt lat="43.50803" lon="6.3799">
        <ele>236.3</ele>
        <time>2021-05-02T07:03:44.000Z</time>
      </trkpt>
      <trkpt lat="43.50812" lon="6.37993">
        <ele>235.8</ele>
        <time>2021-05-02T07:03:54.000Z</time>
      </trkpt>
      <trkpt lat="43.50821" lon="6.37996">
        <ele>235.5</ele>
        <time>2021-05-02T07:04:04.000Z</time>
      </trkpt>
      <trkpt lat="43.50831" lon="6.37997">
        <ele>235.1</ele>
        <time>2021-05-02T07:04:12.000Z</time>
      </trkpt>
      <trkpt lat="43.5084" lon="6.38">
        <ele>235.7</ele>
        <time>2021-05-02T07:04:23.000Z</time>
      </trkpt>
      <trkpt lat="43.50848" lon="6.38004">
        <ele>236.7</ele>
        <time>2021-05-02T07:04:32.000Z</time>
      </trkpt>
      <trkpt lat="43.50857" lon="6.38009">
        <ele>237.6</ele>
        <time>2021-05-02T07:04:43.000Z</time>
      </trkpt>
      <trkpt lat="43.50866" lon="6.38013">
        <ele>238.3</ele>
        <time>2021-05-02T07:04:52.000Z</time>
      </trkpt>
      <trkpt lat="43.50875" lon="6.38018">
        <ele>239.1</ele>
        <time>2021-05-02T07:05:01.000Z</time>
      </trkpt>
      <trkpt lat="43.50884" lon="6.38019">
        <ele>240</ele>
        <time>2021-05-02T07:05:10.000Z</time>
      </trkpt>
      <trkpt lat="43.50893" lon="6.38018">
        <ele>240.8</ele>
        <time>2021-05-02T07:05:18.000Z</time>
      </trkpt>
      <trkpt lat="43.50902" lon="6.38016">
        <ele>240.5</ele>
        <time>2021-05-02T07:05:26.000Z</time>
      </trkpt>
      <trkpt lat="43.50912" lon="6.38015">
        <ele>240.9</ele>
        <time>2021-05-02T07:05:33.000Z</time>
      </trkpt>
      <trkpt lat="43.50921" lon="6.38019">
        <ele>241.9</ele>
        <time>2021-05-02T07:05:44.000Z</time>
      </trkpt>
      <trkpt lat="43.50929" lon="6.38011">
        <ele>242</ele>
        <time>2021-05-02T07:05:51.000Z</time>
      </trkpt>
      <trkpt lat="43.50938" lon="6.38005">
        <ele>241.3</ele>
        <time>2021-05-02T07:05:58.000Z</time>
      </trkpt>
      <trkpt lat="43.50947" lon="6.38001">
        <ele>243.3</ele>
        <time>2021-05-02T07:06:08.000Z</time>
      </trkpt>
      <trkpt lat="43.50956" lon="6.37999">
        <ele>244.5</ele>
        <time>2021-05-02T07:06:18.000Z</time>
      </trkpt>
      <trkpt lat="43.50966" lon="6.37996">
        <ele>245.4</ele>
        <time>2021-05-02T07:06:29.000Z</time>
      </trkpt>
      <trkpt lat="43.50975" lon="6.37993">
        <ele>245.1</ele>
        <time>2021-05-02T07:06:38.000Z</time>
      </trkpt>
      <trkpt lat="43.50985" lon="6.37996">
        <ele>244.6</ele>
        <time>2021-05-02T07:06:46.000Z</time>
      </trkpt>
      <trkpt lat="43.50994" lon="6.37996">
        <ele>244.2</ele>
        <time>2021-05-02T07:06:54.000Z</time>
      </trkpt>
      <trkpt lat="43.51003" lon="6.37996">
        <ele>243.3</ele>
        <time>2021-05-02T07:07:06.000Z</time>
      </trkpt>
      <trkpt lat="43.51014" lon="6.37998">
        <ele>242.9</ele>
        <time>2021-05-02T07:07:14.000Z</time>
      </trkpt>
      <trkpt lat="43.51023" lon="6.38002">
        <ele>242.3</ele>
        <time>2021-05-02T07:07:21.000Z</time>
      </trkpt>
      <trkpt lat="43.51032" lon="6.38006">
        <ele>241.1</ele>
        <time>2021-05-02T07:07:29.000Z</time>
      </trkpt>
      <trkpt lat="43.51042" lon="6.38008">
        <ele>240.8</ele>
        <time>2021-05-02T07:07:36.000Z</time>
      </trkpt>
      <trkpt lat="43.51051" lon="6.38013">
        <ele>240.3</ele>
        <time>2021-05-02T07:07:46.000Z</time>
      </trkpt>
      <trkpt lat="43.51061" lon="6.38015">
        <ele>239.9</ele>
        <time>2021-05-02T07:07:54.000Z</time>
      </trkpt>
      <trkpt lat="43.5107" lon="6.38018">
        <ele>238.6</ele>
        <time>2021-05-02T07:08:02.000Z</time>
      </trkpt>
      <trkpt lat="43.51079" lon="6.3802">
        <ele>237.6</ele>
        <time>2021-05-02T07:08:10.000Z</time>
      </trkpt>
      <trkpt lat="43.51089" lon="6.38023">
        <ele>236.1</ele>
        <time>2021-05-02T07:08:19.000Z</time>
      </trkpt>
      <trkpt lat="43.51098" lon="6.38025">
        <ele>234.6</ele>
        <time>2021-05-02T07:08:28.000Z</time>
      </trkpt>
      <trkpt lat="43.51107" lon="6.38027">
        <ele>233.1</ele>
        <time>2021-05-02T07:08:37.000Z</time>
      </trkpt>
      <trkpt lat="43.51117" lon="6.38025">
        <ele>232.1</ele>
        <time>2021-05-02T07:08:45.000Z</time>
      </trkpt>
      <trkpt lat="43.51126" lon="6.38018">
        <ele>231.5</ele>
        <time>2021-05-02T07:08:55.000Z</time>
      </trkpt>
      <trkpt lat="43.51133" lon="6.3801">
        <ele>230.6</ele>
        <time>2021-05-02T07:09:03.000Z</time>
      </trkpt>
      <trkpt lat="43.51141" lon="6.38004">
        <ele>229.9</ele>
        <time>2021-05-02T07:09:11.000Z</time>
      </trkpt>
      <trkpt lat="43.51149" lon="6.37996">
        <ele>229.4</ele>
        <time>2021-05-02T07:09:17.000Z</time>
      </trkpt>
      <trkpt lat="43.51155" lon="6.37986">
        <ele>229</ele>
        <time>2021-05-02T07:09:23.000Z</time>
      </trkpt>
      <trkpt lat="43.51157" lon="6.37973">
        <ele>228.3</ele>
        <time>2021-05-02T07:09:33.000Z</time>
      </trkpt>
      <trkpt lat="43.51163" lon="6.37963">
        <ele>227.8</ele>
        <time>2021-05-02T07:09:40.000Z</time>
      </trkpt>
      <trkpt lat="43.51168" lon="6.37954">
        <ele>227</ele>
        <time>2021-05-02T07:09:48.000Z</time>
      </trkpt>
      <trkpt lat="43.51172" lon="6.37942">
        <ele>226.4</ele>
        <time>2021-05-02T07:09:55.000Z</time>
      </trkpt>
      <trkpt lat="43.51177" lon="6.37931">
        <ele>225.2</ele>
        <time>2021-05-02T07:10:04.000Z</time>
      </trkpt>
      <trkpt lat="43.51179" lon="6.37918">
        <ele>225.1</ele>
        <time>2021-05-02T07:10:12.000Z</time>
      </trkpt>
      <trkpt lat="43.51175" lon="6.37906">
        <ele>224.1</ele>
        <time>2021-05-02T07:10:23.000Z</time>
      </trkpt>
      <trkpt lat="43.51179" lon="6.37897">
        <ele>224.2</ele>
        <time>2021-05-02T07:10:40.000Z</time>
      </trkpt>
      <trkpt lat="43.5118" lon="6.37896">
        <ele>224</ele>
        <time>2021-05-02T07:10:41.000Z</time>
      </trkpt>
      <trkpt lat="43.51183" lon="6.37891">
        <ele>224</ele>
        <time>2021-05-02T07:10:54.000Z</time>
      </trkpt>
      <trkpt lat="43.51183" lon="6.37892">
        <ele>224</ele>
        <time>2021-05-02T07:10:55.000Z</time>
      </trkpt>
      <trkpt lat="43.51183" lon="6.37894">
        <ele>224.1</ele>
        <time>2021-05-02T07:10:59.000Z</time>
      </trkpt>
      <trkpt lat="43.51183" lon="6.37894">
        <ele>224</ele>
        <time>2021-05-02T07:11:00.000Z</time>
      </trkpt>
      <trkpt lat="43.51183" lon="6.37894">
        <ele>224</ele>
        <time>2021-05-02T07:11:01.000Z</time>
      </trkpt>
      <trkpt lat="43.51184" lon="6.37894">
        <ele>224.1</ele>
        <time>2021-05-02T07:11:04.000Z</time>
      </trkpt>
      <trkpt lat="43.51184" lon="6.37894">
        <ele>224.1</ele>
        <time>2021-05-02T07:11:05.000Z</time>
      </trkpt>
      <trkpt lat="43.51184" lon="6.37895">
        <ele>224.2</ele>
        <time>2021-05-02T07:11:07.000Z</time>
      </trkpt>
      <trkpt lat="43.51184" lon="6.37895">
        <ele>224.1</ele>
        <time>2021-05-02T07:11:08.000Z</time>
      </trkpt>
      <trkpt lat="43.51184" lon="6.37895">
        <ele>223.9</ele>
        <time>2021-05-02T07:11:10.000Z</time>
      </trkpt>
      <trkpt lat="43.51183" lon="6.37895">
        <ele>224</ele>
        <time>2021-05-02T07:11:15.000Z</time>
      </trkpt>
      <trkpt lat="43.51183" lon="6.37895">
        <ele>223.6</ele>
        <time>2021-05-02T07:11:22.000Z</time>
      </trkpt>
      <trkpt lat="43.51183" lon="6.37895">
        <ele>223.7</ele>
        <time>2021-05-02T07:11:23.000Z</time>
      </trkpt>
      <trkpt lat="43.51183" lon="6.37895">
        <ele>223.8</ele>
        <time>2021-05-02T07:11:29.000Z</time>
      </trkpt>
      <trkpt lat="43.51183" lon="6.37895">
        <ele>223.5</ele>
        <time>2021-05-02T07:11:32.000Z</time>
      </trkpt>
      <trkpt lat="43.51183" lon="6.37895">
        <ele>223.6</ele>
        <time>2021-05-02T07:11:33.000Z</time>
      </trkpt>
      <trkpt lat="43.51184" lon="6.37895">
        <ele>223.7</ele>
        <time>2021-05-02T07:11:39.000Z</time>
      </trkpt>
      <trkpt lat="43.51183" lon="6.37896">
        <ele>223.7</ele>
        <time>2021-05-02T07:11:40.000Z</time>
      </trkpt>
      <trkpt lat="43.51183" lon="6.37896">
        <ele>223.8</ele>
        <time>2021-05-02T07:11:42.000Z</time>
      </trkpt>
      <trkpt lat="43.51183" lon="6.37896">
        <ele>224.1</ele>
        <time>2021-05-02T07:11:55.000Z</time>
      </trkpt>
      <trkpt lat="43.51183" lon="6.37896">
        <ele>224.1</ele>
        <time>2021-05-02T07:11:56.000Z</time>
      </trkpt>
      <trkpt lat="43.51182" lon="6.37896">
        <ele>224.2</ele>
        <time>2021-05-02T07:11:57.000Z</time>
      </trkpt>
      <trkpt lat="43.5118" lon="6.37897">
        <ele>224.3</ele>
        <time>2021-05-02T07:12:01.000Z</time>
      </trkpt>
      <trkpt lat="43.5118" lon="6.37897">
        <ele>223.9</ele>
        <time>2021-05-02T07:12:19.000Z</time>
      </trkpt>
      <trkpt lat="43.5118" lon="6.37897">
        <ele>224</ele>
        <time>2021-05-02T07:12:22.000Z</time>
      </trkpt>
      <trkpt lat="43.5118" lon="6.37897">
        <ele>223.8</ele>
        <time>2021-05-02T07:12:23.000Z</time>
      </trkpt>
      <trkpt lat="43.51179" lon="6.37897">
        <ele>223.6</ele>
        <time>2021-05-02T07:12:26.000Z</time>
      </trkpt>
      <trkpt lat="43.51179" lon="6.37897">
        <ele>223.7</ele>
        <time>2021-05-02T07:12:27.000Z</time>
      </trkpt>
      <trkpt lat="43.51179" lon="6.37897">
        <ele>223.6</ele>
        <time>2021-05-02T07:12:29.000Z</time>
      </trkpt>
      <trkpt lat="43.51179" lon="6.37897">
        <ele>223.7</ele>
        <time>2021-05-02T07:12:34.000Z</time>
      </trkpt>
      <trkpt lat="43.51179" lon="6.37897">
        <ele>224</ele>
        <time>2021-05-02T07:12:36.000Z</time>
      </trkpt>
      <trkpt lat="43.51178" lon="6.37897">
        <ele>223.9</ele>
        <time>2021-05-02T07:12:43.000Z</time>
      </trkpt>
      <trkpt lat="43.51178" lon="6.37897">
        <ele>223.9</ele>
        <time>2021-05-02T07:12:44.000Z</time>
      </trkpt>
      <trkpt lat="43.51178" lon="6.37898">
        <ele>224</ele>
        <time>2021-05-02T07:12:49.000Z</time>
      </trkpt>
      <trkpt lat="43.51176" lon="6.37897">
        <ele>223.8</ele>
        <time>2021-05-02T07:12:58.000Z</time>
      </trkpt>
      <trkpt lat="43.51176" lon="6.37897">
        <ele>223.8</ele>
        <time>2021-05-02T07:12:59.000Z</time>
      </trkpt>
      <trkpt lat="43.5118" lon="6.37893">
        <ele>223.9</ele>
        <time>2021-05-02T07:13:09.000Z</time>
      </trkpt>
      <trkpt lat="43.51181" lon="6.37892">
        <ele>223.9</ele>
        <time>2021-05-02T07:13:10.000Z</time>
      </trkpt>
      <trkpt lat="43.5118" lon="6.37892">
        <ele>223.9</ele>
        <time>2021-05-02T07:13:12.000Z</time>
      </trkpt>
      <trkpt lat="43.5118" lon="6.37893">
        <ele>223.8</ele>
        <time>2021-05-02T07:13:13.000Z</time>
      </trkpt>
      <trkpt lat="43.51179" lon="6.37892">
        <ele>223.6</ele>
        <time>2021-05-02T07:13:26.000Z</time>
      </trkpt>
      <trkpt lat="43.51179" lon="6.37892">
        <ele>223.7</ele>
        <time>2021-05-02T07:13:29.000Z</time>
      </trkpt>
      <trkpt lat="43.51176" lon="6.37893">
        <ele>223.5</ele>
        <time>2021-05-02T07:13:35.000Z</time>
      </trkpt>
      <trkpt lat="43.51176" lon="6.37893">
        <ele>223.5</ele>
        <time>2021-05-02T07:13:36.000Z</time>
      </trkpt>
      <trkpt lat="43.51176" lon="6.37894">
        <ele>223.9</ele>
        <time>2021-05-02T07:13:42.000Z</time>
      </trkpt>
      <trkpt lat="43.51176" lon="6.37894">
        <ele>223.8</ele>
        <time>2021-05-02T07:13:43.000Z</time>
      </trkpt>
      <trkpt lat="43.51181" lon="6.37894">
        <ele>224</ele>
        <time>2021-05-02T07:13:53.000Z</time>
      </trkpt>
      <trkpt lat="43.51181" lon="6.37894">
        <ele>223.9</ele>
        <time>2021-05-02T07:13:59.000Z</time>
      </trkpt>
      <trkpt lat="43.51179" lon="6.37895">
        <ele>224.1</ele>
        <time>2021-05-02T07:14:07.000Z</time>
      </trkpt>
      <trkpt lat="43.51179" lon="6.37895">
        <ele>224.3</ele>
        <time>2021-05-02T07:14:19.000Z</time>
      </trkpt>
      <trkpt lat="43.51179" lon="6.37895">
        <ele>224.3</ele>
        <time>2021-05-02T07:14:20.000Z</time>
      </trkpt>
      <trkpt lat="43.51178" lon="6.37895">
        <ele>224.2</ele>
        <time>2021-05-02T07:14:21.000Z</time>
      </trkpt>
      <trkpt lat="43.51176" lon="6.37895">
        <ele>224.3</ele>
        <time>2021-05-02T07:14:27.000Z</time>
      </trkpt>
      <trkpt lat="43.51176" lon="6.37895">
        <ele>224.3</ele>
        <time>2021-05-02T07:14:30.000Z</time>
      </trkpt>
      <trkpt lat="43.51177" lon="6.37897">
        <ele>224.6</ele>
        <time>2021-05-02T07:14:42.000Z</time>
      </trkpt>
      <trkpt lat="43.51177" lon="6.37897">
        <ele>224.6</ele>
        <time>2021-05-02T07:14:43.000Z</time>
      </trkpt>
      <trkpt lat="43.51183" lon="6.37907">
        <ele>226.3</ele>
        <time>2021-05-02T07:15:02.000Z</time>
      </trkpt>
      <trkpt lat="43.51192" lon="6.37905">
        <ele>227.5</ele>
        <time>2021-05-02T07:15:14.000Z</time>
      </trkpt>
      <trkpt lat="43.51201" lon="6.37908">
        <ele>228.7</ele>
        <time>2021-05-02T07:15:24.000Z</time>
      </trkpt>
      <trkpt lat="43.5121" lon="6.37904">
        <ele>230.1</ele>
        <time>2021-05-02T07:15:32.000Z</time>
      </trkpt>
      <trkpt lat="43.51217" lon="6.37895">
        <ele>232.1</ele>
        <time>2021-05-02T07:15:46.000Z</time>
      </trkpt>
      <trkpt lat="43.51219" lon="6.37881">
        <ele>234.4</ele>
        <time>2021-05-02T07:16:02.000Z</time>
      </trkpt>
      <trkpt lat="43.51218" lon="6.37869">
        <ele>235.5</ele>
        <time>2021-05-02T07:16:11.000Z</time>
      </trkpt>
      <trkpt lat="43.51218" lon="6.37856">
        <ele>237.4</ele>
        <time>2021-05-02T07:16:24.000Z</time>
      </trkpt>
      <trkpt lat="43.51214" lon="6.37844">
        <ele>239</ele>
        <time>2021-05-02T07:16:38.000Z</time>
      </trkpt>
      <trkpt lat="43.51212" lon="6.37832">
        <ele>240.3</ele>
        <time>2021-05-02T07:16:49.000Z</time>
      </trkpt>
      <trkpt lat="43.5121" lon="6.37819">
        <ele>241.5</ele>
        <time>2021-05-02T07:16:59.000Z</time>
      </trkpt>
      <trkpt lat="43.51206" lon="6.37807">
        <ele>243.1</ele>
        <time>2021-05-02T07:17:14.000Z</time>
      </trkpt>
      <trkpt lat="43.51205" lon="6.37795">
        <ele>243.8</ele>
        <time>2021-05-02T07:17:24.000Z</time>
      </trkpt>
      <trkpt lat="43.51203" lon="6.37782">
        <ele>245.4</ele>
        <time>2021-05-02T07:17:35.000Z</time>
      </trkpt>
      <trkpt lat="43.512" lon="6.3777">
        <ele>246.6</ele>
        <time>2021-05-02T07:17:45.000Z</time>
      </trkpt>
      <trkpt lat="43.51198" lon="6.37758">
        <ele>247.8</ele>
        <time>2021-05-02T07:17:55.000Z</time>
      </trkpt>
      <trkpt lat="43.51195" lon="6.37746">
        <ele>250</ele>
        <time>2021-05-02T07:18:11.000Z</time>
      </trkpt>
      <trkpt lat="43.51193" lon="6.37733">
        <ele>251.4</ele>
        <time>2021-05-02T07:18:23.000Z</time>
      </trkpt>
      <trkpt lat="43.51187" lon="6.37722">
        <ele>254.4</ele>
        <time>2021-05-02T07:18:39.000Z</time>
      </trkpt>
      <trkpt lat="43.51188" lon="6.37709">
        <ele>255.6</ele>
        <time>2021-05-02T07:18:48.000Z</time>
      </trkpt>
      <trkpt lat="43.51188" lon="6.37707">
        <ele>256.5</ele>
        <time>2021-05-02T07:18:52.000Z</time>
      </trkpt>
      <trkpt lat="43.51188" lon="6.37707">
        <ele>256.6</ele>
        <time>2021-05-02T07:18:53.000Z</time>
      </trkpt>
      <trkpt lat="43.51188" lon="6.37706">
        <ele>257.2</ele>
        <time>2021-05-02T07:18:56.000Z</time>
      </trkpt>
      <trkpt lat="43.51188" lon="6.37706">
        <ele>257.6</ele>
        <time>2021-05-02T07:18:59.000Z</time>
      </trkpt>
      <trkpt lat="43.51189" lon="6.37699">
        <ele>258.9</ele>
        <time>2021-05-02T07:19:11.000Z</time>
      </trkpt>
      <trkpt lat="43.51189" lon="6.37699">
        <ele>259.1</ele>
        <time>2021-05-02T07:19:12.000Z</time>
      </trkpt>
      <trkpt lat="43.51187" lon="6.37687">
        <ele>261.4</ele>
        <time>2021-05-02T07:19:29.000Z</time>
      </trkpt>
      <trkpt lat="43.51187" lon="6.37681">
        <ele>263.3</ele>
        <time>2021-05-02T07:19:38.000Z</time>
      </trkpt>
      <trkpt lat="43.51187" lon="6.3768">
        <ele>263.4</ele>
        <time>2021-05-02T07:19:39.000Z</time>
      </trkpt>
      <trkpt lat="43.51185" lon="6.37667">
        <ele>264.9</ele>
        <time>2021-05-02T07:19:50.000Z</time>
      </trkpt>
      <trkpt lat="43.51186" lon="6.37654">
        <ele>267.5</ele>
        <time>2021-05-02T07:20:07.000Z</time>
      </trkpt>
      <trkpt lat="43.51186" lon="6.37654">
        <ele>268.1</ele>
        <time>2021-05-02T07:20:09.000Z</time>
      </trkpt>
      <trkpt lat="43.51185" lon="6.37654">
        <ele>268.3</ele>
        <time>2021-05-02T07:20:10.000Z</time>
      </trkpt>
      <trkpt lat="43.51185" lon="6.37641">
        <ele>270.4</ele>
        <time>2021-05-02T07:20:25.000Z</time>
      </trkpt>
      <trkpt lat="43.5118" lon="6.3763">
        <ele>273.3</ele>
        <time>2021-05-02T07:20:42.000Z</time>
      </trkpt>
      <trkpt lat="43.5118" lon="6.37628">
        <ele>274.2</ele>
        <time>2021-05-02T07:20:49.000Z</time>
      </trkpt>
      <trkpt lat="43.51179" lon="6.37627">
        <ele>274.3</ele>
        <time>2021-05-02T07:20:50.000Z</time>
      </trkpt>
      <trkpt lat="43.51173" lon="6.37619">
        <ele>276.9</ele>
        <time>2021-05-02T07:21:08.000Z</time>
      </trkpt>
      <trkpt lat="43.51174" lon="6.37607">
        <ele>278.9</ele>
        <time>2021-05-02T07:21:27.000Z</time>
      </trkpt>
      <trkpt lat="43.51174" lon="6.37607">
        <ele>279.2</ele>
        <time>2021-05-02T07:21:28.000Z</time>
      </trkpt>
      <trkpt lat="43.51174" lon="6.37607">
        <ele>279.3</ele>
        <time>2021-05-02T07:21:29.000Z</time>
      </trkpt>
      <trkpt lat="43.51181" lon="6.37597">
        <ele>280.9</ele>
        <time>2021-05-02T07:21:45.000Z</time>
      </trkpt>
      <trkpt lat="43.51184" lon="6.37589">
        <ele>281.6</ele>
        <time>2021-05-02T07:21:53.000Z</time>
      </trkpt>
      <trkpt lat="43.51184" lon="6.37589">
        <ele>281.5</ele>
        <time>2021-05-02T07:21:55.000Z</time>
      </trkpt>
      <trkpt lat="43.51184" lon="6.37576">
        <ele>282.8</ele>
        <time>2021-05-02T07:22:05.000Z</time>
      </trkpt>
      <trkpt lat="43.51183" lon="6.37563">
        <ele>284.4</ele>
        <time>2021-05-02T07:22:18.000Z</time>
      </trkpt>
      <trkpt lat="43.51176" lon="6.37554">
        <ele>287</ele>
        <time>2021-05-02T07:22:31.000Z</time>
      </trkpt>
      <trkpt lat="43.51169" lon="6.37543">
        <ele>288.7</ele>
        <time>2021-05-02T07:22:43.000Z</time>
      </trkpt>
      <trkpt lat="43.51161" lon="6.37537">
        <ele>289.7</ele>
        <time>2021-05-02T07:22:51.000Z</time>
      </trkpt>
      <trkpt lat="43.51154" lon="6.37529">
        <ele>290.7</ele>
        <time>2021-05-02T07:23:04.000Z</time>
      </trkpt>
      <trkpt lat="43.51154" lon="6.37518">
        <ele>292.2</ele>
        <time>2021-05-02T07:23:16.000Z</time>
      </trkpt>
      <trkpt lat="43.51154" lon="6.37517">
        <ele>292.4</ele>
        <time>2021-05-02T07:23:17.000Z</time>
      </trkpt>
      <trkpt lat="43.51146" lon="6.3751">
        <ele>293.9</ele>
        <time>2021-05-02T07:23:29.000Z</time>
      </trkpt>
      <trkpt lat="43.51145" lon="6.37497">
        <ele>296.5</ele>
        <time>2021-05-02T07:23:47.000Z</time>
      </trkpt>
      <trkpt lat="43.51144" lon="6.37496">
        <ele>296.1</ele>
        <time>2021-05-02T07:23:53.000Z</time>
      </trkpt>
      <trkpt lat="43.51144" lon="6.37496">
        <ele>296.2</ele>
        <time>2021-05-02T07:23:59.000Z</time>
      </trkpt>
      <trkpt lat="43.51144" lon="6.37496">
        <ele>296.1</ele>
        <time>2021-05-02T07:24:00.000Z</time>
      </trkpt>
      <trkpt lat="43.51144" lon="6.37497">
        <ele>295.9</ele>
        <time>2021-05-02T07:24:01.000Z</time>
      </trkpt>
      <trkpt lat="43.51144" lon="6.37497">
        <ele>295.6</ele>
        <time>2021-05-02T07:24:02.000Z</time>
      </trkpt>
      <trkpt lat="43.51144" lon="6.37496">
        <ele>296.5</ele>
        <time>2021-05-02T07:24:04.000Z</time>
      </trkpt>
      <trkpt lat="43.51142" lon="6.37494">
        <ele>296.9</ele>
        <time>2021-05-02T07:24:11.000Z</time>
      </trkpt>
      <trkpt lat="43.51141" lon="6.37494">
        <ele>296.6</ele>
        <time>2021-05-02T07:24:25.000Z</time>
      </trkpt>
      <trkpt lat="43.51141" lon="6.37493">
        <ele>296.4</ele>
        <time>2021-05-02T07:24:28.000Z</time>
      </trkpt>
      <trkpt lat="43.5114" lon="6.37493">
        <ele>296.8</ele>
        <time>2021-05-02T07:24:53.000Z</time>
      </trkpt>
      <trkpt lat="43.5114" lon="6.37493">
        <ele>296.8</ele>
        <time>2021-05-02T07:24:54.000Z</time>
      </trkpt>
      <trkpt lat="43.5114" lon="6.37493">
        <ele>296.6</ele>
        <time>2021-05-02T07:24:55.000Z</time>
      </trkpt>
      <trkpt lat="43.5114" lon="6.37492">
        <ele>295.8</ele>
        <time>2021-05-02T07:24:59.000Z</time>
      </trkpt>
      <trkpt lat="43.51141" lon="6.37492">
        <ele>295.7</ele>
        <time>2021-05-02T07:25:03.000Z</time>
      </trkpt>
      <trkpt lat="43.51141" lon="6.37492">
        <ele>295.7</ele>
        <time>2021-05-02T07:25:06.000Z</time>
      </trkpt>
      <trkpt lat="43.51141" lon="6.37492">
        <ele>295.7</ele>
        <time>2021-05-02T07:25:07.000Z</time>
      </trkpt>
      <trkpt lat="43.51142" lon="6.37478">
        <ele>297.4</ele>
        <time>2021-05-02T07:25:18.000Z</time>
      </trkpt>
      <trkpt lat="43.51134" lon="6.3747">
        <ele>298.3</ele>
        <time>2021-05-02T07:25:31.000Z</time>
      </trkpt>
      <trkpt lat="43.51125" lon="6.37465">
        <ele>299.1</ele>
        <time>2021-05-02T07:25:42.000Z</time>
      </trkpt>
      <trkpt lat="43.51118" lon="6.37456">
        <ele>299.5</ele>
        <time>2021-05-02T07:25:53.000Z</time>
      </trkpt>
      <trkpt lat="43.5111" lon="6.37448">
        <ele>299</ele>
        <time>2021-05-02T07:26:01.000Z</time>
      </trkpt>
      <trkpt lat="43.51102" lon="6.3744">
        <ele>300.5</ele>
        <time>2021-05-02T07:26:10.000Z</time>
      </trkpt>
      <trkpt lat="43.51093" lon="6.37437">
        <ele>300.1</ele>
        <time>2021-05-02T07:26:18.000Z</time>
      </trkpt>
      <trkpt lat="43.51083" lon="6.37432">
        <ele>300.5</ele>
        <time>2021-05-02T07:26:27.000Z</time>
      </trkpt>
      <trkpt lat="43.51073" lon="6.37432">
        <ele>299</ele>
        <time>2021-05-02T07:26:36.000Z</time>
      </trkpt>
      <trkpt lat="43.51064" lon="6.37428">
        <ele>298.7</ele>
        <time>2021-05-02T07:26:46.000Z</time>
      </trkpt>
      <trkpt lat="43.51057" lon="6.37419">
        <ele>298.1</ele>
        <time>2021-05-02T07:27:01.000Z</time>
      </trkpt>
      <trkpt lat="43.51053" lon="6.37407">
        <ele>297.8</ele>
        <time>2021-05-02T07:27:10.000Z</time>
      </trkpt>
      <trkpt lat="43.51047" lon="6.37396">
        <ele>298.1</ele>
        <time>2021-05-02T07:27:21.000Z</time>
      </trkpt>
      <trkpt lat="43.51043" lon="6.37384">
        <ele>297.4</ele>
        <time>2021-05-02T07:27:29.000Z</time>
      </trkpt>
      <trkpt lat="43.51036" lon="6.37376">
        <ele>297.1</ele>
        <time>2021-05-02T07:27:44.000Z</time>
      </trkpt>
      <trkpt lat="43.51033" lon="6.37374">
        <ele>297.3</ele>
        <time>2021-05-02T07:27:52.000Z</time>
      </trkpt>
      <trkpt lat="43.51033" lon="6.37374">
        <ele>297.6</ele>
        <time>2021-05-02T07:27:54.000Z</time>
      </trkpt>
      <trkpt lat="43.51033" lon="6.37376">
        <ele>298.1</ele>
        <time>2021-05-02T07:28:10.000Z</time>
      </trkpt>
      <trkpt lat="43.51033" lon="6.37376">
        <ele>298</ele>
        <time>2021-05-02T07:28:11.000Z</time>
      </trkpt>
      <trkpt lat="43.51033" lon="6.37376">
        <ele>298</ele>
        <time>2021-05-02T07:28:12.000Z</time>
      </trkpt>
      <trkpt lat="43.51033" lon="6.37376">
        <ele>298</ele>
        <time>2021-05-02T07:28:13.000Z</time>
      </trkpt>
      <trkpt lat="43.51025" lon="6.37369">
        <ele>298.1</ele>
        <time>2021-05-02T07:28:32.000Z</time>
      </trkpt>
      <trkpt lat="43.51027" lon="6.37382">
        <ele>297.1</ele>
        <time>2021-05-02T07:28:42.000Z</time>
      </trkpt>
      <trkpt lat="43.51035" lon="6.37378">
        <ele>296.9</ele>
        <time>2021-05-02T07:28:46.000Z</time>
      </trkpt>
      <trkpt lat="43.51032" lon="6.37366">
        <ele>297.2</ele>
        <time>2021-05-02T07:28:54.000Z</time>
      </trkpt>
      <trkpt lat="43.5103" lon="6.37353">
        <ele>297</ele>
        <time>2021-05-02T07:29:01.000Z</time>
      </trkpt>
      <trkpt lat="43.51025" lon="6.37343">
        <ele>296.5</ele>
        <time>2021-05-02T07:29:08.000Z</time>
      </trkpt>
      <trkpt lat="43.51019" lon="6.37333">
        <ele>297.3</ele>
        <time>2021-05-02T07:29:20.000Z</time>
      </trkpt>
      <trkpt lat="43.5101" lon="6.37327">
        <ele>296.1</ele>
        <time>2021-05-02T07:29:29.000Z</time>
      </trkpt>
      <trkpt lat="43.51003" lon="6.37318">
        <ele>295.7</ele>
        <time>2021-05-02T07:29:38.000Z</time>
      </trkpt>
      <trkpt lat="43.50995" lon="6.37311">
        <ele>295.6</ele>
        <time>2021-05-02T07:29:47.000Z</time>
      </trkpt>
      <trkpt lat="43.50987" lon="6.37304">
        <ele>295.5</ele>
        <time>2021-05-02T07:29:53.000Z</time>
      </trkpt>
      <trkpt lat="43.50981" lon="6.37295">
        <ele>295.1</ele>
        <time>2021-05-02T07:29:59.000Z</time>
      </trkpt>
      <trkpt lat="43.50973" lon="6.37287">
        <ele>295.1</ele>
        <time>2021-05-02T07:30:05.000Z</time>
      </trkpt>
      <trkpt lat="43.50965" lon="6.37283">
        <ele>294.8</ele>
        <time>2021-05-02T07:30:11.000Z</time>
      </trkpt>
      <trkpt lat="43.50955" lon="6.37281">
        <ele>294</ele>
        <time>2021-05-02T07:30:18.000Z</time>
      </trkpt>
      <trkpt lat="43.50946" lon="6.37277">
        <ele>293.8</ele>
        <time>2021-05-02T07:30:25.000Z</time>
      </trkpt>
      <trkpt lat="43.50937" lon="6.37274">
        <ele>294.3</ele>
        <time>2021-05-02T07:30:36.000Z</time>
      </trkpt>
      <trkpt lat="43.50926" lon="6.37269">
        <ele>295</ele>
        <time>2021-05-02T07:30:44.000Z</time>
      </trkpt>
      <trkpt lat="43.50916" lon="6.37264">
        <ele>296.2</ele>
        <time>2021-05-02T07:30:52.000Z</time>
      </trkpt>
      <trkpt lat="43.50908" lon="6.37257">
        <ele>296.3</ele>
        <time>2021-05-02T07:31:00.000Z</time>
      </trkpt>
      <trkpt lat="43.50898" lon="6.37256">
        <ele>296.4</ele>
        <time>2021-05-02T07:31:08.000Z</time>
      </trkpt>
      <trkpt lat="43.50889" lon="6.37255">
        <ele>296.4</ele>
        <time>2021-05-02T07:31:16.000Z</time>
      </trkpt>
      <trkpt lat="43.5088" lon="6.37249">
        <ele>296.5</ele>
        <time>2021-05-02T07:31:23.000Z</time>
      </trkpt>
      <trkpt lat="43.50873" lon="6.3724">
        <ele>297.1</ele>
        <time>2021-05-02T07:31:30.000Z</time>
      </trkpt>
      <trkpt lat="43.50869" lon="6.37229">
        <ele>296.8</ele>
        <time>2021-05-02T07:31:39.000Z</time>
      </trkpt>
      <trkpt lat="43.50865" lon="6.37217">
        <ele>297.1</ele>
        <time>2021-05-02T07:31:50.000Z</time>
      </trkpt>
      <trkpt lat="43.50864" lon="6.3721">
        <ele>298</ele>
        <time>2021-05-02T07:31:57.000Z</time>
      </trkpt>
      <trkpt lat="43.50864" lon="6.3721">
        <ele>297.7</ele>
        <time>2021-05-02T07:32:02.000Z</time>
      </trkpt>
      <trkpt lat="43.50863" lon="6.37208">
        <ele>298.1</ele>
        <time>2021-05-02T07:32:12.000Z</time>
      </trkpt>
      <trkpt lat="43.50862" lon="6.37208">
        <ele>298.1</ele>
        <time>2021-05-02T07:32:22.000Z</time>
      </trkpt>
      <trkpt lat="43.50862" lon="6.37208">
        <ele>298</ele>
        <time>2021-05-02T07:32:23.000Z</time>
      </trkpt>
      <trkpt lat="43.50862" lon="6.37207">
        <ele>297.9</ele>
        <time>2021-05-02T07:32:29.000Z</time>
      </trkpt>
      <trkpt lat="43.50862" lon="6.37207">
        <ele>298</ele>
        <time>2021-05-02T07:32:30.000Z</time>
      </trkpt>
      <trkpt lat="43.50862" lon="6.37207">
        <ele>297.9</ele>
        <time>2021-05-02T07:32:31.000Z</time>
      </trkpt>
      <trkpt lat="43.50862" lon="6.37207">
        <ele>297.9</ele>
        <time>2021-05-02T07:32:32.000Z</time>
      </trkpt>
      <trkpt lat="43.50862" lon="6.37207">
        <ele>297.7</ele>
        <time>2021-05-02T07:32:38.000Z</time>
      </trkpt>
      <trkpt lat="43.50862" lon="6.37207">
        <ele>297.7</ele>
        <time>2021-05-02T07:32:39.000Z</time>
      </trkpt>
      <trkpt lat="43.50862" lon="6.37206">
        <ele>298.1</ele>
        <time>2021-05-02T07:33:02.000Z</time>
      </trkpt>
      <trkpt lat="43.50859" lon="6.37194">
        <ele>298.7</ele>
        <time>2021-05-02T07:33:12.000Z</time>
      </trkpt>
      <trkpt lat="43.50857" lon="6.37181">
        <ele>299</ele>
        <time>2021-05-02T07:33:21.000Z</time>
      </trkpt>
      <trkpt lat="43.50855" lon="6.37168">
        <ele>299.5</ele>
        <time>2021-05-02T07:33:31.000Z</time>
      </trkpt>
      <trkpt lat="43.50855" lon="6.37163">
        <ele>300.2</ele>
        <time>2021-05-02T07:33:36.000Z</time>
      </trkpt>
      <trkpt lat="43.50855" lon="6.37163">
        <ele>300.2</ele>
        <time>2021-05-02T07:33:37.000Z</time>
      </trkpt>
      <trkpt lat="43.50853" lon="6.3715">
        <ele>300.4</ele>
        <time>2021-05-02T07:33:49.000Z</time>
      </trkpt>
      <trkpt lat="43.50852" lon="6.37136">
        <ele>300.6</ele>
        <time>2021-05-02T07:33:58.000Z</time>
      </trkpt>
      <trkpt lat="43.50847" lon="6.37125">
        <ele>301.4</ele>
        <time>2021-05-02T07:34:06.000Z</time>
      </trkpt>
      <trkpt lat="43.50845" lon="6.37112">
        <ele>301</ele>
        <time>2021-05-02T07:34:15.000Z</time>
      </trkpt>
      <trkpt lat="43.50841" lon="6.37099">
        <ele>301</ele>
        <time>2021-05-02T07:34:34.000Z</time>
      </trkpt>
      <trkpt lat="43.50839" lon="6.37087">
        <ele>300.4</ele>
        <time>2021-05-02T07:34:40.000Z</time>
      </trkpt>
      <trkpt lat="43.50839" lon="6.37084">
        <ele>300.2</ele>
        <time>2021-05-02T07:34:45.000Z</time>
      </trkpt>
      <trkpt lat="43.50839" lon="6.37084">
        <ele>300.1</ele>
        <time>2021-05-02T07:34:46.000Z</time>
      </trkpt>
      <trkpt lat="43.50836" lon="6.37071">
        <ele>299.5</ele>
        <time>2021-05-02T07:34:55.000Z</time>
      </trkpt>
      <trkpt lat="43.50834" lon="6.37058">
        <ele>298.8</ele>
        <time>2021-05-02T07:35:01.000Z</time>
      </trkpt>
      <trkpt lat="43.50833" lon="6.37045">
        <ele>297.6</ele>
        <time>2021-05-02T07:35:09.000Z</time>
      </trkpt>
      <trkpt lat="43.50834" lon="6.37031">
        <ele>295.8</ele>
        <time>2021-05-02T07:35:18.000Z</time>
      </trkpt>
      <trkpt lat="43.50834" lon="6.37018">
        <ele>294.1</ele>
        <time>2021-05-02T07:35:26.000Z</time>
      </trkpt>
      <trkpt lat="43.50837" lon="6.37005">
        <ele>291.9</ele>
        <time>2021-05-02T07:35:37.000Z</time>
      </trkpt>
      <trkpt lat="43.50838" lon="6.36992">
        <ele>290.1</ele>
        <time>2021-05-02T07:35:48.000Z</time>
      </trkpt>
      <trkpt lat="43.50833" lon="6.36982">
        <ele>288.1</ele>
        <time>2021-05-02T07:36:01.000Z</time>
      </trkpt>
      <trkpt lat="43.50829" lon="6.3697">
        <ele>286.9</ele>
        <time>2021-05-02T07:36:09.000Z</time>
      </trkpt>
      <trkpt lat="43.5083" lon="6.36956">
        <ele>286.2</ele>
        <time>2021-05-02T07:36:14.000Z</time>
      </trkpt>
      <trkpt lat="43.50838" lon="6.36949">
        <ele>288.8</ele>
        <time>2021-05-02T07:36:33.000Z</time>
      </trkpt>
      <trkpt lat="43.50848" lon="6.3695">
        <ele>289.7</ele>
        <time>2021-05-02T07:36:42.000Z</time>
      </trkpt>
      <trkpt lat="43.50856" lon="6.36943">
        <ele>291</ele>
        <time>2021-05-02T07:36:53.000Z</time>
      </trkpt>
      <trkpt lat="43.50865" lon="6.36949">
        <ele>291.3</ele>
        <time>2021-05-02T07:37:01.000Z</time>
      </trkpt>
      <trkpt lat="43.50874" lon="6.3695">
        <ele>291.6</ele>
        <time>2021-05-02T07:37:11.000Z</time>
      </trkpt>
      <trkpt lat="43.50884" lon="6.3695">
        <ele>293.2</ele>
        <time>2021-05-02T07:37:19.000Z</time>
      </trkpt>
      <trkpt lat="43.50893" lon="6.36952">
        <ele>295.3</ele>
        <time>2021-05-02T07:37:29.000Z</time>
      </trkpt>
      <trkpt lat="43.50903" lon="6.36957">
        <ele>296</ele>
        <time>2021-05-02T07:37:39.000Z</time>
      </trkpt>
      <trkpt lat="43.50912" lon="6.36959">
        <ele>295.9</ele>
        <time>2021-05-02T07:37:48.000Z</time>
      </trkpt>
      <trkpt lat="43.50921" lon="6.36957">
        <ele>297.1</ele>
        <time>2021-05-02T07:37:56.000Z</time>
      </trkpt>
      <trkpt lat="43.5093" lon="6.3696">
        <ele>297.7</ele>
        <time>2021-05-02T07:38:06.000Z</time>
      </trkpt>
      <trkpt lat="43.5094" lon="6.36963">
        <ele>297.2</ele>
        <time>2021-05-02T07:38:15.000Z</time>
      </trkpt>
      <trkpt lat="43.50948" lon="6.36959">
        <ele>296.6</ele>
        <time>2021-05-02T07:38:24.000Z</time>
      </trkpt>
      <trkpt lat="43.50956" lon="6.36967">
        <ele>295.4</ele>
        <time>2021-05-02T07:38:31.000Z</time>
      </trkpt>
      <trkpt lat="43.50965" lon="6.36973">
        <ele>294.9</ele>
        <time>2021-05-02T07:38:38.000Z</time>
      </trkpt>
      <trkpt lat="43.50972" lon="6.36981">
        <ele>293.3</ele>
        <time>2021-05-02T07:38:51.000Z</time>
      </trkpt>
      <trkpt lat="43.5098" lon="6.36988">
        <ele>291.7</ele>
        <time>2021-05-02T07:39:02.000Z</time>
      </trkpt>
      <trkpt lat="43.50988" lon="6.36993">
        <ele>290.4</ele>
        <time>2021-05-02T07:39:10.000Z</time>
      </trkpt>
      <trkpt lat="43.50995" lon="6.37">
        <ele>289.5</ele>
        <time>2021-05-02T07:39:19.000Z</time>
      </trkpt>
      <trkpt lat="43.50995" lon="6.37001">
        <ele>289.3</ele>
        <time>2021-05-02T07:39:25.000Z</time>
      </trkpt>
      <trkpt lat="43.50997" lon="6.37005">
        <ele>288.8</ele>
        <time>2021-05-02T07:39:30.000Z</time>
      </trkpt>
      <trkpt lat="43.50997" lon="6.37005">
        <ele>288.6</ele>
        <time>2021-05-02T07:39:32.000Z</time>
      </trkpt>
      <trkpt lat="43.51006" lon="6.37011">
        <ele>287.5</ele>
        <time>2021-05-02T07:39:43.000Z</time>
      </trkpt>
      <trkpt lat="43.51015" lon="6.37014">
        <ele>286.6</ele>
        <time>2021-05-02T07:39:50.000Z</time>
      </trkpt>
      <trkpt lat="43.51025" lon="6.37017">
        <ele>285.5</ele>
        <time>2021-05-02T07:40:00.000Z</time>
      </trkpt>
      <trkpt lat="43.51035" lon="6.37015">
        <ele>283.8</ele>
        <time>2021-05-02T07:40:09.000Z</time>
      </trkpt>
      <trkpt lat="43.51044" lon="6.37011">
        <ele>282.4</ele>
        <time>2021-05-02T07:40:16.000Z</time>
      </trkpt>
      <trkpt lat="43.51054" lon="6.37011">
        <ele>281.4</ele>
        <time>2021-05-02T07:40:23.000Z</time>
      </trkpt>
      <trkpt lat="43.51064" lon="6.37009">
        <ele>280</ele>
        <time>2021-05-02T07:40:33.000Z</time>
      </trkpt>
      <trkpt lat="43.51073" lon="6.37007">
        <ele>277.9</ele>
        <time>2021-05-02T07:40:43.000Z</time>
      </trkpt>
      <trkpt lat="43.51082" lon="6.37007">
        <ele>275.9</ele>
        <time>2021-05-02T07:40:55.000Z</time>
      </trkpt>
      <trkpt lat="43.51091" lon="6.37008">
        <ele>274.7</ele>
        <time>2021-05-02T07:41:05.000Z</time>
      </trkpt>
      <trkpt lat="43.51095" lon="6.37009">
        <ele>272.8</ele>
        <time>2021-05-02T07:41:15.000Z</time>
      </trkpt>
      <trkpt lat="43.51096" lon="6.37009">
        <ele>272.4</ele>
        <time>2021-05-02T07:41:16.000Z</time>
      </trkpt>
      <trkpt lat="43.51105" lon="6.37007">
        <ele>271.1</ele>
        <time>2021-05-02T07:41:31.000Z</time>
      </trkpt>
      <trkpt lat="43.51114" lon="6.37005">
        <ele>270.4</ele>
        <time>2021-05-02T07:41:41.000Z</time>
      </trkpt>
      <trkpt lat="43.51119" lon="6.37001">
        <ele>269.5</ele>
        <time>2021-05-02T07:41:59.000Z</time>
      </trkpt>
      <trkpt lat="43.51119" lon="6.37001">
        <ele>269.1</ele>
        <time>2021-05-02T07:42:01.000Z</time>
      </trkpt>
      <trkpt lat="43.51129" lon="6.37001">
        <ele>267.1</ele>
        <time>2021-05-02T07:42:14.000Z</time>
      </trkpt>
      <trkpt lat="43.51139" lon="6.37001">
        <ele>265.2</ele>
        <time>2021-05-02T07:42:25.000Z</time>
      </trkpt>
      <trkpt lat="43.51142" lon="6.37004">
        <ele>263.9</ele>
        <time>2021-05-02T07:42:41.000Z</time>
      </trkpt>
      <trkpt lat="43.51142" lon="6.37004">
        <ele>263.7</ele>
        <time>2021-05-02T07:42:43.000Z</time>
      </trkpt>
      <trkpt lat="43.51145" lon="6.37003">
        <ele>263.3</ele>
        <time>2021-05-02T07:42:48.000Z</time>
      </trkpt>
      <trkpt lat="43.51145" lon="6.37003">
        <ele>263.7</ele>
        <time>2021-05-02T07:42:59.000Z</time>
      </trkpt>
      <trkpt lat="43.51149" lon="6.36992">
        <ele>264</ele>
        <time>2021-05-02T07:43:15.000Z</time>
      </trkpt>
      <trkpt lat="43.51148" lon="6.36978">
        <ele>263.5</ele>
        <time>2021-05-02T07:43:26.000Z</time>
      </trkpt>
      <trkpt lat="43.51152" lon="6.36966">
        <ele>263.3</ele>
        <time>2021-05-02T07:43:37.000Z</time>
      </trkpt>
      <trkpt lat="43.51154" lon="6.36953">
        <ele>262.5</ele>
        <time>2021-05-02T07:43:47.000Z</time>
      </trkpt>
      <trkpt lat="43.51156" lon="6.3694">
        <ele>263.3</ele>
        <time>2021-05-02T07:43:55.000Z</time>
      </trkpt>
      <trkpt lat="43.51158" lon="6.36928">
        <ele>262.7</ele>
        <time>2021-05-02T07:44:07.000Z</time>
      </trkpt>
      <trkpt lat="43.51164" lon="6.36917">
        <ele>262.3</ele>
        <time>2021-05-02T07:44:17.000Z</time>
      </trkpt>
      <trkpt lat="43.5117" lon="6.36906">
        <ele>262.4</ele>
        <time>2021-05-02T07:44:25.000Z</time>
      </trkpt>
      <trkpt lat="43.51175" lon="6.36895">
        <ele>262.6</ele>
        <time>2021-05-02T07:44:34.000Z</time>
      </trkpt>
      <trkpt lat="43.51179" lon="6.36884">
        <ele>262.4</ele>
        <time>2021-05-02T07:44:41.000Z</time>
      </trkpt>
      <trkpt lat="43.51185" lon="6.36874">
        <ele>262.7</ele>
        <time>2021-05-02T07:44:49.000Z</time>
      </trkpt>
      <trkpt lat="43.51189" lon="6.36862">
        <ele>262.7</ele>
        <time>2021-05-02T07:44:59.000Z</time>
      </trkpt>
      <trkpt lat="43.51195" lon="6.36851">
        <ele>262.5</ele>
        <time>2021-05-02T07:45:07.000Z</time>
      </trkpt>
      <trkpt lat="43.51199" lon="6.36839">
        <ele>262.1</ele>
        <time>2021-05-02T07:45:17.000Z</time>
      </trkpt>
      <trkpt lat="43.51201" lon="6.36826">
        <ele>261.5</ele>
        <time>2021-05-02T07:45:26.000Z</time>
      </trkpt>
      <trkpt lat="43.512" lon="6.36812">
        <ele>260.4</ele>
        <time>2021-05-02T07:45:35.000Z</time>
      </trkpt>
      <trkpt lat="43.51202" lon="6.36799">
        <ele>260.2</ele>
        <time>2021-05-02T07:45:43.000Z</time>
      </trkpt>
      <trkpt lat="43.51204" lon="6.36787">
        <ele>259.2</ele>
        <time>2021-05-02T07:45:52.000Z</time>
      </trkpt>
      <trkpt lat="43.51208" lon="6.36776">
        <ele>258.7</ele>
        <time>2021-05-02T07:45:58.000Z</time>
      </trkpt>
      <trkpt lat="43.51213" lon="6.36763">
        <ele>258.3</ele>
        <time>2021-05-02T07:46:04.000Z</time>
      </trkpt>
      <trkpt lat="43.51213" lon="6.3675">
        <ele>257.8</ele>
        <time>2021-05-02T07:46:13.000Z</time>
      </trkpt>
      <trkpt lat="43.51216" lon="6.36737">
        <ele>257.5</ele>
        <time>2021-05-02T07:46:22.000Z</time>
      </trkpt>
      <trkpt lat="43.51216" lon="6.36724">
        <ele>257.3</ele>
        <time>2021-05-02T07:46:31.000Z</time>
      </trkpt>
      <trkpt lat="43.51218" lon="6.3671">
        <ele>255.8</ele>
        <time>2021-05-02T07:46:41.000Z</time>
      </trkpt>
      <trkpt lat="43.51216" lon="6.36698">
        <ele>255.1</ele>
        <time>2021-05-02T07:46:49.000Z</time>
      </trkpt>
      <trkpt lat="43.51216" lon="6.36685">
        <ele>254.7</ele>
        <time>2021-05-02T07:46:57.000Z</time>
      </trkpt>
      <trkpt lat="43.51212" lon="6.36671">
        <ele>254.4</ele>
        <time>2021-05-02T07:47:04.000Z</time>
      </trkpt>
      <trkpt lat="43.51213" lon="6.36659">
        <ele>254.2</ele>
        <time>2021-05-02T07:47:12.000Z</time>
      </trkpt>
      <trkpt lat="43.51214" lon="6.36645">
        <ele>254.1</ele>
        <time>2021-05-02T07:47:20.000Z</time>
      </trkpt>
      <trkpt lat="43.51219" lon="6.36633">
        <ele>254.5</ele>
        <time>2021-05-02T07:47:30.000Z</time>
      </trkpt>
      <trkpt lat="43.51222" lon="6.36621">
        <ele>254</ele>
        <time>2021-05-02T07:47:38.000Z</time>
      </trkpt>
      <trkpt lat="43.51226" lon="6.36609">
        <ele>253.8</ele>
        <time>2021-05-02T07:47:48.000Z</time>
      </trkpt>
      <trkpt lat="43.51231" lon="6.36599">
        <ele>253</ele>
        <time>2021-05-02T07:47:57.000Z</time>
      </trkpt>
      <trkpt lat="43.51235" lon="6.36588">
        <ele>252.6</ele>
        <time>2021-05-02T07:48:05.000Z</time>
      </trkpt>
      <trkpt lat="43.51242" lon="6.3658">
        <ele>251.9</ele>
        <time>2021-05-02T07:48:13.000Z</time>
      </trkpt>
      <trkpt lat="43.51248" lon="6.36569">
        <ele>251.3</ele>
        <time>2021-05-02T07:48:22.000Z</time>
      </trkpt>
      <trkpt lat="43.51254" lon="6.3656">
        <ele>251.3</ele>
        <time>2021-05-02T07:48:30.000Z</time>
      </trkpt>
      <trkpt lat="43.51259" lon="6.36548">
        <ele>250.4</ele>
        <time>2021-05-02T07:48:38.000Z</time>
      </trkpt>
      <trkpt lat="43.51263" lon="6.36536">
        <ele>249.8</ele>
        <time>2021-05-02T07:48:50.000Z</time>
      </trkpt>
      <trkpt lat="43.51265" lon="6.36524">
        <ele>250.9</ele>
        <time>2021-05-02T07:49:01.000Z</time>
      </trkpt>
      <trkpt lat="43.51264" lon="6.36511">
        <ele>252</ele>
        <time>2021-05-02T07:49:10.000Z</time>
      </trkpt>
      <trkpt lat="43.51262" lon="6.36498">
        <ele>253.3</ele>
        <time>2021-05-02T07:49:19.000Z</time>
      </trkpt>
      <trkpt lat="43.51256" lon="6.36488">
        <ele>254</ele>
        <time>2021-05-02T07:49:27.000Z</time>
      </trkpt>
      <trkpt lat="43.51248" lon="6.36479">
        <ele>255.3</ele>
        <time>2021-05-02T07:49:35.000Z</time>
      </trkpt>
      <trkpt lat="43.51242" lon="6.3647">
        <ele>256.3</ele>
        <time>2021-05-02T07:49:44.000Z</time>
      </trkpt>
      <trkpt lat="43.51234" lon="6.36461">
        <ele>256.4</ele>
        <time>2021-05-02T07:49:53.000Z</time>
      </trkpt>
      <trkpt lat="43.5123" lon="6.3645">
        <ele>257</ele>
        <time>2021-05-02T07:50:05.000Z</time>
      </trkpt>
      <trkpt lat="43.51228" lon="6.36436">
        <ele>258.4</ele>
        <time>2021-05-02T07:50:15.000Z</time>
      </trkpt>
      <trkpt lat="43.51227" lon="6.36426">
        <ele>258.6</ele>
        <time>2021-05-02T07:50:24.000Z</time>
      </trkpt>
      <trkpt lat="43.51227" lon="6.36425">
        <ele>258.6</ele>
        <time>2021-05-02T07:50:26.000Z</time>
      </trkpt>
      <trkpt lat="43.51226" lon="6.36412">
        <ele>259.3</ele>
        <time>2021-05-02T07:50:36.000Z</time>
      </trkpt>
      <trkpt lat="43.51226" lon="6.36398">
        <ele>259.7</ele>
        <time>2021-05-02T07:50:46.000Z</time>
      </trkpt>
      <trkpt lat="43.51224" lon="6.36385">
        <ele>260.2</ele>
        <time>2021-05-02T07:50:54.000Z</time>
      </trkpt>
      <trkpt lat="43.51221" lon="6.36373">
        <ele>260.6</ele>
        <time>2021-05-02T07:51:03.000Z</time>
      </trkpt>
      <trkpt lat="43.51221" lon="6.3636">
        <ele>261.4</ele>
        <time>2021-05-02T07:51:14.000Z</time>
      </trkpt>
      <trkpt lat="43.51225" lon="6.36349">
        <ele>261.3</ele>
        <time>2021-05-02T07:51:21.000Z</time>
      </trkpt>
      <trkpt lat="43.51231" lon="6.36338">
        <ele>260.7</ele>
        <time>2021-05-02T07:51:30.000Z</time>
      </trkpt>
      <trkpt lat="43.51238" lon="6.36329">
        <ele>260.1</ele>
        <time>2021-05-02T07:51:38.000Z</time>
      </trkpt>
      <trkpt lat="43.51244" lon="6.3632">
        <ele>260.3</ele>
        <time>2021-05-02T07:51:46.000Z</time>
      </trkpt>
      <trkpt lat="43.5125" lon="6.36309">
        <ele>260.1</ele>
        <time>2021-05-02T07:51:55.000Z</time>
      </trkpt>
      <trkpt lat="43.51252" lon="6.36296">
        <ele>259.7</ele>
        <time>2021-05-02T07:52:03.000Z</time>
      </trkpt>
      <trkpt lat="43.51252" lon="6.36282">
        <ele>258.7</ele>
        <time>2021-05-02T07:52:12.000Z</time>
      </trkpt>
      <trkpt lat="43.51255" lon="6.3627">
        <ele>259</ele>
        <time>2021-05-02T07:52:25.000Z</time>
      </trkpt>
      <trkpt lat="43.51255" lon="6.36257">
        <ele>259.1</ele>
        <time>2021-05-02T07:52:38.000Z</time>
      </trkpt>
      <trkpt lat="43.51256" lon="6.36255">
        <ele>259.3</ele>
        <time>2021-05-02T07:52:43.000Z</time>
      </trkpt>
      <trkpt lat="43.51257" lon="6.36255">
        <ele>259.2</ele>
        <time>2021-05-02T07:52:45.000Z</time>
      </trkpt>
      <trkpt lat="43.51257" lon="6.36255">
        <ele>259</ele>
        <time>2021-05-02T07:52:47.000Z</time>
      </trkpt>
      <trkpt lat="43.51257" lon="6.36255">
        <ele>259</ele>
        <time>2021-05-02T07:52:56.000Z</time>
      </trkpt>
      <trkpt lat="43.51257" lon="6.36255">
        <ele>259</ele>
        <time>2021-05-02T07:52:57.000Z</time>
      </trkpt>
      <trkpt lat="43.51257" lon="6.36255">
        <ele>259</ele>
        <time>2021-05-02T07:52:58.000Z</time>
      </trkpt>
      <trkpt lat="43.51256" lon="6.36254">
        <ele>258.7</ele>
        <time>2021-05-02T07:53:05.000Z</time>
      </trkpt>
      <trkpt lat="43.51257" lon="6.36254">
        <ele>258.7</ele>
        <time>2021-05-02T07:53:06.000Z</time>
      </trkpt>
      <trkpt lat="43.51259" lon="6.36252">
        <ele>258.5</ele>
        <time>2021-05-02T07:53:14.000Z</time>
      </trkpt>
      <trkpt lat="43.51259" lon="6.36252">
        <ele>258.5</ele>
        <time>2021-05-02T07:53:25.000Z</time>
      </trkpt>
      <trkpt lat="43.51266" lon="6.36249">
        <ele>257.8</ele>
        <time>2021-05-02T07:53:41.000Z</time>
      </trkpt>
      <trkpt lat="43.51266" lon="6.36249">
        <ele>257.9</ele>
        <time>2021-05-02T07:53:42.000Z</time>
      </trkpt>
      <trkpt lat="43.51272" lon="6.36259">
        <ele>257.4</ele>
        <time>2021-05-02T07:53:59.000Z</time>
      </trkpt>
      <trkpt lat="43.5128" lon="6.36263">
        <ele>257.1</ele>
        <time>2021-05-02T07:54:10.000Z</time>
      </trkpt>
      <trkpt lat="43.51284" lon="6.36266">
        <ele>256.8</ele>
        <time>2021-05-02T07:54:19.000Z</time>
      </trkpt>
      <trkpt lat="43.51284" lon="6.36266">
        <ele>256.8</ele>
        <time>2021-05-02T07:54:20.000Z</time>
      </trkpt>
      <trkpt lat="43.51291" lon="6.36267">
        <ele>256.8</ele>
        <time>2021-05-02T07:54:32.000Z</time>
      </trkpt>
      <trkpt lat="43.51291" lon="6.36267">
        <ele>257.3</ele>
        <time>2021-05-02T07:54:45.000Z</time>
      </trkpt>
      <trkpt lat="43.51291" lon="6.36267">
        <ele>257.2</ele>
        <time>2021-05-02T07:54:46.000Z</time>
      </trkpt>
      <trkpt lat="43.51291" lon="6.36267">
        <ele>257.2</ele>
        <time>2021-05-02T07:54:49.000Z</time>
      </trkpt>
      <trkpt lat="43.51291" lon="6.36267">
        <ele>257.4</ele>
        <time>2021-05-02T07:54:50.000Z</time>
      </trkpt>
      <trkpt lat="43.51291" lon="6.36266">
        <ele>257.1</ele>
        <time>2021-05-02T07:54:53.000Z</time>
      </trkpt>
      <trkpt lat="43.51286" lon="6.3626">
        <ele>257.5</ele>
        <time>2021-05-02T07:55:04.000Z</time>
      </trkpt>
      <trkpt lat="43.51287" lon="6.3626">
        <ele>257.2</ele>
        <time>2021-05-02T07:55:12.000Z</time>
      </trkpt>
      <trkpt lat="43.51296" lon="6.36258">
        <ele>257.3</ele>
        <time>2021-05-02T07:55:22.000Z</time>
      </trkpt>
      <trkpt lat="43.51305" lon="6.36263">
        <ele>257</ele>
        <time>2021-05-02T07:55:34.000Z</time>
      </trkpt>
      <trkpt lat="43.51313" lon="6.36257">
        <ele>256.8</ele>
        <time>2021-05-02T07:55:43.000Z</time>
      </trkpt>
      <trkpt lat="43.51313" lon="6.36256">
        <ele>256.8</ele>
        <time>2021-05-02T07:55:52.000Z</time>
      </trkpt>
      <trkpt lat="43.51313" lon="6.36256">
        <ele>256.8</ele>
        <time>2021-05-02T07:55:53.000Z</time>
      </trkpt>
      <trkpt lat="43.51314" lon="6.36243">
        <ele>257.2</ele>
        <time>2021-05-02T07:56:03.000Z</time>
      </trkpt>
      <trkpt lat="43.5131" lon="6.36232">
        <ele>257.2</ele>
        <time>2021-05-02T07:56:12.000Z</time>
      </trkpt>
      <trkpt lat="43.51305" lon="6.36221">
        <ele>257.4</ele>
        <time>2021-05-02T07:56:21.000Z</time>
      </trkpt>
      <trkpt lat="43.51302" lon="6.36209">
        <ele>257.4</ele>
        <time>2021-05-02T07:56:32.000Z</time>
      </trkpt>
      <trkpt lat="43.513" lon="6.36195">
        <ele>258.1</ele>
        <time>2021-05-02T07:56:42.000Z</time>
      </trkpt>
      <trkpt lat="43.51298" lon="6.36182">
        <ele>258.1</ele>
        <time>2021-05-02T07:56:50.000Z</time>
      </trkpt>
      <trkpt lat="43.51297" lon="6.36169">
        <ele>258.2</ele>
        <time>2021-05-02T07:56:59.000Z</time>
      </trkpt>
      <trkpt lat="43.51296" lon="6.36155">
        <ele>257.8</ele>
        <time>2021-05-02T07:57:08.000Z</time>
      </trkpt>
      <trkpt lat="43.51297" lon="6.36142">
        <ele>258.8</ele>
        <time>2021-05-02T07:57:16.000Z</time>
      </trkpt>
      <trkpt lat="43.51294" lon="6.36135">
        <ele>258.9</ele>
        <time>2021-05-02T07:57:29.000Z</time>
      </trkpt>
      <trkpt lat="43.51294" lon="6.36135">
        <ele>258.9</ele>
        <time>2021-05-02T07:57:30.000Z</time>
      </trkpt>
      <trkpt lat="43.51294" lon="6.36135">
        <ele>258.5</ele>
        <time>2021-05-02T07:57:33.000Z</time>
      </trkpt>
      <trkpt lat="43.51294" lon="6.36136">
        <ele>258.5</ele>
        <time>2021-05-02T07:57:35.000Z</time>
      </trkpt>
      <trkpt lat="43.51295" lon="6.36135">
        <ele>258.2</ele>
        <time>2021-05-02T07:57:40.000Z</time>
      </trkpt>
      <trkpt lat="43.51294" lon="6.36136">
        <ele>258.2</ele>
        <time>2021-05-02T07:57:41.000Z</time>
      </trkpt>
      <trkpt lat="43.51295" lon="6.36138">
        <ele>258.9</ele>
        <time>2021-05-02T07:57:48.000Z</time>
      </trkpt>
      <trkpt lat="43.51295" lon="6.36137">
        <ele>259</ele>
        <time>2021-05-02T07:57:49.000Z</time>
      </trkpt>
      <trkpt lat="43.51294" lon="6.36124">
        <ele>259</ele>
        <time>2021-05-02T07:57:58.000Z</time>
      </trkpt>
      <trkpt lat="43.51293" lon="6.3611">
        <ele>259</ele>
        <time>2021-05-02T07:58:07.000Z</time>
      </trkpt>
      <trkpt lat="43.51291" lon="6.36097">
        <ele>260.4</ele>
        <time>2021-05-02T07:58:16.000Z</time>
      </trkpt>
      <trkpt lat="43.51292" lon="6.36084">
        <ele>261.3</ele>
        <time>2021-05-02T07:58:25.000Z</time>
      </trkpt>
      <trkpt lat="43.51286" lon="6.36074">
        <ele>261.6</ele>
        <time>2021-05-02T07:58:35.000Z</time>
      </trkpt>
      <trkpt lat="43.51281" lon="6.36064">
        <ele>262.8</ele>
        <time>2021-05-02T07:58:46.000Z</time>
      </trkpt>
      <trkpt lat="43.51274" lon="6.36056">
        <ele>262.8</ele>
        <time>2021-05-02T07:58:56.000Z</time>
      </trkpt>
      <trkpt lat="43.51267" lon="6.36047">
        <ele>263.7</ele>
        <time>2021-05-02T07:59:08.000Z</time>
      </trkpt>
      <trkpt lat="43.51258" lon="6.36044">
        <ele>265.1</ele>
        <time>2021-05-02T07:59:22.000Z</time>
      </trkpt>
      <trkpt lat="43.51258" lon="6.36044">
        <ele>265.5</ele>
        <time>2021-05-02T07:59:25.000Z</time>
      </trkpt>
      <trkpt lat="43.51258" lon="6.36043">
        <ele>265.9</ele>
        <time>2021-05-02T07:59:26.000Z</time>
      </trkpt>
      <trkpt lat="43.51258" lon="6.3603">
        <ele>269.9</ele>
        <time>2021-05-02T07:59:56.000Z</time>
      </trkpt>
      <trkpt lat="43.51255" lon="6.36018">
        <ele>270.4</ele>
        <time>2021-05-02T08:00:14.000Z</time>
      </trkpt>
      <trkpt lat="43.51255" lon="6.36015">
        <ele>270.5</ele>
        <time>2021-05-02T08:00:19.000Z</time>
      </trkpt>
      <trkpt lat="43.51255" lon="6.36015">
        <ele>270.6</ele>
        <time>2021-05-02T08:00:20.000Z</time>
      </trkpt>
      <trkpt lat="43.51254" lon="6.36015">
        <ele>270.1</ele>
        <time>2021-05-02T08:00:41.000Z</time>
      </trkpt>
      <trkpt lat="43.51254" lon="6.36014">
        <ele>269.9</ele>
        <time>2021-05-02T08:00:43.000Z</time>
      </trkpt>
      <trkpt lat="43.5125" lon="6.36011">
        <ele>270</ele>
        <time>2021-05-02T08:00:54.000Z</time>
      </trkpt>
      <trkpt lat="43.5125" lon="6.36011">
        <ele>269.9</ele>
        <time>2021-05-02T08:00:55.000Z</time>
      </trkpt>
      <trkpt lat="43.51258" lon="6.36008">
        <ele>269.6</ele>
        <time>2021-05-02T08:01:12.000Z</time>
      </trkpt>
      <trkpt lat="43.51258" lon="6.36009">
        <ele>270.1</ele>
        <time>2021-05-02T08:01:26.000Z</time>
      </trkpt>
      <trkpt lat="43.51264" lon="6.36003">
        <ele>268.7</ele>
        <time>2021-05-02T08:01:45.000Z</time>
      </trkpt>
      <trkpt lat="43.51264" lon="6.36003">
        <ele>268.7</ele>
        <time>2021-05-02T08:01:46.000Z</time>
      </trkpt>
      <trkpt lat="43.51264" lon="6.36003">
        <ele>268.6</ele>
        <time>2021-05-02T08:01:47.000Z</time>
      </trkpt>
      <trkpt lat="43.51264" lon="6.36003">
        <ele>268.5</ele>
        <time>2021-05-02T08:01:54.000Z</time>
      </trkpt>
      <trkpt lat="43.51264" lon="6.36">
        <ele>267.9</ele>
        <time>2021-05-02T08:02:02.000Z</time>
      </trkpt>
      <trkpt lat="43.51265" lon="6.36">
        <ele>267.9</ele>
        <time>2021-05-02T08:02:06.000Z</time>
      </trkpt>
      <trkpt lat="43.51266" lon="6.36001">
        <ele>268.3</ele>
        <time>2021-05-02T08:02:11.000Z</time>
      </trkpt>
      <trkpt lat="43.51266" lon="6.36">
        <ele>268.1</ele>
        <time>2021-05-02T08:02:15.000Z</time>
      </trkpt>
      <trkpt lat="43.51266" lon="6.36">
        <ele>268.1</ele>
        <time>2021-05-02T08:02:17.000Z</time>
      </trkpt>
      <trkpt lat="43.51266" lon="6.36">
        <ele>268.1</ele>
        <time>2021-05-02T08:02:40.000Z</time>
      </trkpt>
      <trkpt lat="43.51267" lon="6.35998">
        <ele>267.7</ele>
        <time>2021-05-02T08:02:48.000Z</time>
      </trkpt>
      <trkpt lat="43.51266" lon="6.35998">
        <ele>267.6</ele>
        <time>2021-05-02T08:02:50.000Z</time>
      </trkpt>
      <trkpt lat="43.51268" lon="6.35985">
        <ele>265.9</ele>
        <time>2021-05-02T08:03:07.000Z</time>
      </trkpt>
      <trkpt lat="43.51275" lon="6.35975">
        <ele>266.4</ele>
        <time>2021-05-02T08:03:16.000Z</time>
      </trkpt>
      <trkpt lat="43.51277" lon="6.35963">
        <ele>267.2</ele>
        <time>2021-05-02T08:03:24.000Z</time>
      </trkpt>
      <trkpt lat="43.51275" lon="6.3595">
        <ele>268.4</ele>
        <time>2021-05-02T08:03:33.000Z</time>
      </trkpt>
      <trkpt lat="43.51277" lon="6.35938">
        <ele>269.4</ele>
        <time>2021-05-02T08:03:43.000Z</time>
      </trkpt>
      <trkpt lat="43.51279" lon="6.35926">
        <ele>271.2</ele>
        <time>2021-05-02T08:03:55.000Z</time>
      </trkpt>
      <trkpt lat="43.5128" lon="6.35913">
        <ele>272.8</ele>
        <time>2021-05-02T08:04:05.000Z</time>
      </trkpt>
      <trkpt lat="43.5128" lon="6.35899">
        <ele>273.3</ele>
        <time>2021-05-02T08:04:14.000Z</time>
      </trkpt>
      <trkpt lat="43.51284" lon="6.35888">
        <ele>273.5</ele>
        <time>2021-05-02T08:04:22.000Z</time>
      </trkpt>
      <trkpt lat="43.51287" lon="6.35875">
        <ele>272.9</ele>
        <time>2021-05-02T08:04:30.000Z</time>
      </trkpt>
      <trkpt lat="43.51283" lon="6.35863">
        <ele>273.2</ele>
        <time>2021-05-02T08:04:38.000Z</time>
      </trkpt>
      <trkpt lat="43.51282" lon="6.35851">
        <ele>272.2</ele>
        <time>2021-05-02T08:04:48.000Z</time>
      </trkpt>
      <trkpt lat="43.51284" lon="6.35838">
        <ele>269.6</ele>
        <time>2021-05-02T08:05:03.000Z</time>
      </trkpt>
      <trkpt lat="43.51284" lon="6.35825">
        <ele>270.7</ele>
        <time>2021-05-02T08:05:13.000Z</time>
      </trkpt>
      <trkpt lat="43.51283" lon="6.35812">
        <ele>270.6</ele>
        <time>2021-05-02T08:05:22.000Z</time>
      </trkpt>
      <trkpt lat="43.51277" lon="6.358">
        <ele>270.9</ele>
        <time>2021-05-02T08:05:29.000Z</time>
      </trkpt>
      <trkpt lat="43.51277" lon="6.35787">
        <ele>271.1</ele>
        <time>2021-05-02T08:05:36.000Z</time>
      </trkpt>
      <trkpt lat="43.51277" lon="6.35774">
        <ele>271.2</ele>
        <time>2021-05-02T08:05:45.000Z</time>
      </trkpt>
      <trkpt lat="43.51279" lon="6.35761">
        <ele>271.5</ele>
        <time>2021-05-02T08:05:54.000Z</time>
      </trkpt>
      <trkpt lat="43.51284" lon="6.35749">
        <ele>272.1</ele>
        <time>2021-05-02T08:06:01.000Z</time>
      </trkpt>
      <trkpt lat="43.51286" lon="6.35735">
        <ele>271.4</ele>
        <time>2021-05-02T08:06:09.000Z</time>
      </trkpt>
      <trkpt lat="43.51288" lon="6.35731">
        <ele>271</ele>
        <time>2021-05-02T08:06:16.000Z</time>
      </trkpt>
      <trkpt lat="43.51288" lon="6.35731">
        <ele>271.2</ele>
        <time>2021-05-02T08:06:19.000Z</time>
      </trkpt>
      <trkpt lat="43.51291" lon="6.35718">
        <ele>270.9</ele>
        <time>2021-05-02T08:06:31.000Z</time>
      </trkpt>
      <trkpt lat="43.51294" lon="6.35705">
        <ele>271.1</ele>
        <time>2021-05-02T08:06:37.000Z</time>
      </trkpt>
      <trkpt lat="43.51295" lon="6.35693">
        <ele>270.7</ele>
        <time>2021-05-02T08:06:43.000Z</time>
      </trkpt>
      <trkpt lat="43.51293" lon="6.35681">
        <ele>271</ele>
        <time>2021-05-02T08:06:50.000Z</time>
      </trkpt>
      <trkpt lat="43.51285" lon="6.35673">
        <ele>270.8</ele>
        <time>2021-05-02T08:07:07.000Z</time>
      </trkpt>
      <trkpt lat="43.51286" lon="6.3566">
        <ele>271.2</ele>
        <time>2021-05-02T08:07:15.000Z</time>
      </trkpt>
      <trkpt lat="43.51286" lon="6.35646">
        <ele>271.5</ele>
        <time>2021-05-02T08:07:25.000Z</time>
      </trkpt>
      <trkpt lat="43.5129" lon="6.35633">
        <ele>271.5</ele>
        <time>2021-05-02T08:07:32.000Z</time>
      </trkpt>
      <trkpt lat="43.51294" lon="6.35621">
        <ele>271.7</ele>
        <time>2021-05-02T08:07:41.000Z</time>
      </trkpt>
      <trkpt lat="43.51292" lon="6.35609">
        <ele>271.6</ele>
        <time>2021-05-02T08:07:49.000Z</time>
      </trkpt>
      <trkpt lat="43.51288" lon="6.35597">
        <ele>272.2</ele>
        <time>2021-05-02T08:07:55.000Z</time>
      </trkpt>
      <trkpt lat="43.51284" lon="6.35585">
        <ele>272.7</ele>
        <time>2021-05-02T08:08:04.000Z</time>
      </trkpt>
      <trkpt lat="43.51277" lon="6.35577">
        <ele>272.9</ele>
        <time>2021-05-02T08:08:09.000Z</time>
      </trkpt>
      <trkpt lat="43.51272" lon="6.35564">
        <ele>273.3</ele>
        <time>2021-05-02T08:08:16.000Z</time>
      </trkpt>
      <trkpt lat="43.51268" lon="6.35552">
        <ele>272.7</ele>
        <time>2021-05-02T08:08:23.000Z</time>
      </trkpt>
      <trkpt lat="43.51264" lon="6.35541">
        <ele>272.9</ele>
        <time>2021-05-02T08:08:30.000Z</time>
      </trkpt>
      <trkpt lat="43.51263" lon="6.35526">
        <ele>273.5</ele>
        <time>2021-05-02T08:08:37.000Z</time>
      </trkpt>
      <trkpt lat="43.51263" lon="6.35512">
        <ele>274</ele>
        <time>2021-05-02T08:08:44.000Z</time>
      </trkpt>
      <trkpt lat="43.51259" lon="6.355">
        <ele>273.9</ele>
        <time>2021-05-02T08:08:50.000Z</time>
      </trkpt>
      <trkpt lat="43.51256" lon="6.35487">
        <ele>274.2</ele>
        <time>2021-05-02T08:08:57.000Z</time>
      </trkpt>
      <trkpt lat="43.51262" lon="6.35477">
        <ele>274.4</ele>
        <time>2021-05-02T08:09:03.000Z</time>
      </trkpt>
      <trkpt lat="43.51263" lon="6.35462">
        <ele>275</ele>
        <time>2021-05-02T08:09:10.000Z</time>
      </trkpt>
      <trkpt lat="43.51263" lon="6.35448">
        <ele>274.9</ele>
        <time>2021-05-02T08:09:17.000Z</time>
      </trkpt>
      <trkpt lat="43.51267" lon="6.35436">
        <ele>274.5</ele>
        <time>2021-05-02T08:09:24.000Z</time>
      </trkpt>
      <trkpt lat="43.51268" lon="6.35423">
        <ele>275.3</ele>
        <time>2021-05-02T08:09:32.000Z</time>
      </trkpt>
      <trkpt lat="43.51271" lon="6.35411">
        <ele>274.9</ele>
        <time>2021-05-02T08:09:39.000Z</time>
      </trkpt>
      <trkpt lat="43.5127" lon="6.35397">
        <ele>274.6</ele>
        <time>2021-05-02T08:09:46.000Z</time>
      </trkpt>
      <trkpt lat="43.51271" lon="6.35384">
        <ele>275.7</ele>
        <time>2021-05-02T08:09:53.000Z</time>
      </trkpt>
      <trkpt lat="43.51271" lon="6.35384">
        <ele>275.7</ele>
        <time>2021-05-02T08:09:55.000Z</time>
      </trkpt>
      <trkpt lat="43.51271" lon="6.35384">
        <ele>275.5</ele>
        <time>2021-05-02T08:09:56.000Z</time>
      </trkpt>
      <trkpt lat="43.51274" lon="6.35381">
        <ele>275.5</ele>
        <time>2021-05-02T08:10:01.000Z</time>
      </trkpt>
      <trkpt lat="43.51274" lon="6.35381">
        <ele>275.5</ele>
        <time>2021-05-02T08:10:02.000Z</time>
      </trkpt>
      <trkpt lat="43.51274" lon="6.35381">
        <ele>275.5</ele>
        <time>2021-05-02T08:10:03.000Z</time>
      </trkpt>
      <trkpt lat="43.51274" lon="6.35381">
        <ele>275.4</ele>
        <time>2021-05-02T08:10:12.000Z</time>
      </trkpt>
      <trkpt lat="43.51274" lon="6.35381">
        <ele>275.3</ele>
        <time>2021-05-02T08:10:13.000Z</time>
      </trkpt>
      <trkpt lat="43.51274" lon="6.35381">
        <ele>275.5</ele>
        <time>2021-05-02T08:10:19.000Z</time>
      </trkpt>
      <trkpt lat="43.51274" lon="6.35381">
        <ele>275.5</ele>
        <time>2021-05-02T08:10:21.000Z</time>
      </trkpt>
      <trkpt lat="43.51274" lon="6.35382">
        <ele>275.4</ele>
        <time>2021-05-02T08:10:23.000Z</time>
      </trkpt>
      <trkpt lat="43.51275" lon="6.35382">
        <ele>275.2</ele>
        <time>2021-05-02T08:10:25.000Z</time>
      </trkpt>
      <trkpt lat="43.51275" lon="6.35382">
        <ele>275.2</ele>
        <time>2021-05-02T08:10:26.000Z</time>
      </trkpt>
      <trkpt lat="43.51275" lon="6.35382">
        <ele>275.3</ele>
        <time>2021-05-02T08:10:27.000Z</time>
      </trkpt>
      <trkpt lat="43.51275" lon="6.35382">
        <ele>275.4</ele>
        <time>2021-05-02T08:10:47.000Z</time>
      </trkpt>
      <trkpt lat="43.51275" lon="6.35382">
        <ele>275.3</ele>
        <time>2021-05-02T08:10:48.000Z</time>
      </trkpt>
      <trkpt lat="43.51274" lon="6.35382">
        <ele>275.3</ele>
        <time>2021-05-02T08:10:49.000Z</time>
      </trkpt>
      <trkpt lat="43.51274" lon="6.35382">
        <ele>275.7</ele>
        <time>2021-05-02T08:10:51.000Z</time>
      </trkpt>
      <trkpt lat="43.51274" lon="6.35382">
        <ele>275.4</ele>
        <time>2021-05-02T08:10:54.000Z</time>
      </trkpt>
      <trkpt lat="43.51274" lon="6.35382">
        <ele>275.3</ele>
        <time>2021-05-02T08:10:55.000Z</time>
      </trkpt>
      <trkpt lat="43.51275" lon="6.35382">
        <ele>275.4</ele>
        <time>2021-05-02T08:10:56.000Z</time>
      </trkpt>
      <trkpt lat="43.51276" lon="6.35381">
        <ele>275.2</ele>
        <time>2021-05-02T08:11:00.000Z</time>
      </trkpt>
      <trkpt lat="43.51276" lon="6.35381">
        <ele>275.2</ele>
        <time>2021-05-02T08:11:03.000Z</time>
      </trkpt>
      <trkpt lat="43.51276" lon="6.35381">
        <ele>275</ele>
        <time>2021-05-02T08:11:05.000Z</time>
      </trkpt>
      <trkpt lat="43.51276" lon="6.35381">
        <ele>275</ele>
        <time>2021-05-02T08:11:06.000Z</time>
      </trkpt>
      <trkpt lat="43.51276" lon="6.35379">
        <ele>275.1</ele>
        <time>2021-05-02T08:11:12.000Z</time>
      </trkpt>
      <trkpt lat="43.51277" lon="6.35379">
        <ele>275.1</ele>
        <time>2021-05-02T08:11:13.000Z</time>
      </trkpt>
      <trkpt lat="43.51277" lon="6.35379">
        <ele>274.9</ele>
        <time>2021-05-02T08:11:14.000Z</time>
      </trkpt>
      <trkpt lat="43.51277" lon="6.35379">
        <ele>274.8</ele>
        <time>2021-05-02T08:11:15.000Z</time>
      </trkpt>
      <trkpt lat="43.51277" lon="6.35379">
        <ele>274.8</ele>
        <time>2021-05-02T08:11:16.000Z</time>
      </trkpt>
      <trkpt lat="43.51277" lon="6.35379">
        <ele>275.4</ele>
        <time>2021-05-02T08:11:25.000Z</time>
      </trkpt>
      <trkpt lat="43.5128" lon="6.3538">
        <ele>275.2</ele>
        <time>2021-05-02T08:11:34.000Z</time>
      </trkpt>
      <trkpt lat="43.5128" lon="6.3538">
        <ele>275.3</ele>
        <time>2021-05-02T08:11:36.000Z</time>
      </trkpt>
      <trkpt lat="43.5128" lon="6.3538">
        <ele>275.1</ele>
        <time>2021-05-02T08:11:37.000Z</time>
      </trkpt>
      <trkpt lat="43.51281" lon="6.3538">
        <ele>274.9</ele>
        <time>2021-05-02T08:11:38.000Z</time>
      </trkpt>
      <trkpt lat="43.5128" lon="6.3538">
        <ele>274.8</ele>
        <time>2021-05-02T08:11:40.000Z</time>
      </trkpt>
      <trkpt lat="43.5128" lon="6.3538">
        <ele>274.8</ele>
        <time>2021-05-02T08:11:50.000Z</time>
      </trkpt>
      <trkpt lat="43.5128" lon="6.3538">
        <ele>274.7</ele>
        <time>2021-05-02T08:11:51.000Z</time>
      </trkpt>
      <trkpt lat="43.5128" lon="6.3538">
        <ele>274.7</ele>
        <time>2021-05-02T08:11:57.000Z</time>
      </trkpt>
      <trkpt lat="43.51281" lon="6.3538">
        <ele>274.9</ele>
        <time>2021-05-02T08:11:59.000Z</time>
      </trkpt>
      <trkpt lat="43.5128" lon="6.3538">
        <ele>275</ele>
        <time>2021-05-02T08:12:04.000Z</time>
      </trkpt>
      <trkpt lat="43.5128" lon="6.35366">
        <ele>275.1</ele>
        <time>2021-05-02T08:12:22.000Z</time>
      </trkpt>
      <trkpt lat="43.51281" lon="6.35353">
        <ele>275.3</ele>
        <time>2021-05-02T08:12:34.000Z</time>
      </trkpt>
      <trkpt lat="43.51282" lon="6.3534">
        <ele>276</ele>
        <time>2021-05-02T08:12:44.000Z</time>
      </trkpt>
      <trkpt lat="43.51285" lon="6.35328">
        <ele>275.7</ele>
        <time>2021-05-02T08:12:51.000Z</time>
      </trkpt>
      <trkpt lat="43.51286" lon="6.35316">
        <ele>276</ele>
        <time>2021-05-02T08:13:00.000Z</time>
      </trkpt>
      <trkpt lat="43.51291" lon="6.35303">
        <ele>276.3</ele>
        <time>2021-05-02T08:13:09.000Z</time>
      </trkpt>
      <trkpt lat="43.51297" lon="6.35293">
        <ele>276.3</ele>
        <time>2021-05-02T08:13:20.000Z</time>
      </trkpt>
      <trkpt lat="43.51299" lon="6.35279">
        <ele>276.2</ele>
        <time>2021-05-02T08:13:28.000Z</time>
      </trkpt>
      <trkpt lat="43.51303" lon="6.35267">
        <ele>276</ele>
        <time>2021-05-02T08:13:37.000Z</time>
      </trkpt>
      <trkpt lat="43.51307" lon="6.35255">
        <ele>276.3</ele>
        <time>2021-05-02T08:13:47.000Z</time>
      </trkpt>
      <trkpt lat="43.5131" lon="6.35242">
        <ele>276.6</ele>
        <time>2021-05-02T08:13:56.000Z</time>
      </trkpt>
      <trkpt lat="43.51314" lon="6.3523">
        <ele>276.6</ele>
        <time>2021-05-02T08:14:04.000Z</time>
      </trkpt>
      <trkpt lat="43.51316" lon="6.35216">
        <ele>276.6</ele>
        <time>2021-05-02T08:14:11.000Z</time>
      </trkpt>
      <trkpt lat="43.51316" lon="6.35204">
        <ele>276.7</ele>
        <time>2021-05-02T08:14:19.000Z</time>
      </trkpt>
      <trkpt lat="43.51322" lon="6.35193">
        <ele>277</ele>
        <time>2021-05-02T08:14:28.000Z</time>
      </trkpt>
      <trkpt lat="43.51323" lon="6.35187">
        <ele>277.1</ele>
        <time>2021-05-02T08:14:35.000Z</time>
      </trkpt>
      <trkpt lat="43.51323" lon="6.35186">
        <ele>277.1</ele>
        <time>2021-05-02T08:14:39.000Z</time>
      </trkpt>
      <trkpt lat="43.51325" lon="6.35186">
        <ele>277.2</ele>
        <time>2021-05-02T08:14:43.000Z</time>
      </trkpt>
      <trkpt lat="43.51326" lon="6.35186">
        <ele>277.2</ele>
        <time>2021-05-02T08:14:44.000Z</time>
      </trkpt>
      <trkpt lat="43.5133" lon="6.35178">
        <ele>277.6</ele>
        <time>2021-05-02T08:14:55.000Z</time>
      </trkpt>
      <trkpt lat="43.5133" lon="6.35178">
        <ele>277.6</ele>
        <time>2021-05-02T08:14:56.000Z</time>
      </trkpt>
      <trkpt lat="43.5133" lon="6.35178">
        <ele>277.6</ele>
        <time>2021-05-02T08:14:57.000Z</time>
      </trkpt>
      <trkpt lat="43.5133" lon="6.35178">
        <ele>277.6</ele>
        <time>2021-05-02T08:14:58.000Z</time>
      </trkpt>
      <trkpt lat="43.51324" lon="6.35183">
        <ele>277.3</ele>
        <time>2021-05-02T08:15:10.000Z</time>
      </trkpt>
      <trkpt lat="43.51325" lon="6.35183">
        <ele>277.1</ele>
        <time>2021-05-02T08:15:20.000Z</time>
      </trkpt>
      <trkpt lat="43.51326" lon="6.35184">
        <ele>277.5</ele>
        <time>2021-05-02T08:15:24.000Z</time>
      </trkpt>
      <trkpt lat="43.51326" lon="6.35184">
        <ele>277.7</ele>
        <time>2021-05-02T08:15:25.000Z</time>
      </trkpt>
      <trkpt lat="43.5133" lon="6.35173">
        <ele>278.6</ele>
        <time>2021-05-02T08:15:40.000Z</time>
      </trkpt>
      <trkpt lat="43.51337" lon="6.35164">
        <ele>278.9</ele>
        <time>2021-05-02T08:15:52.000Z</time>
      </trkpt>
      <trkpt lat="43.51344" lon="6.35154">
        <ele>278.5</ele>
        <time>2021-05-02T08:16:05.000Z</time>
      </trkpt>
      <trkpt lat="43.5135" lon="6.35144">
        <ele>278.8</ele>
        <time>2021-05-02T08:16:15.000Z</time>
      </trkpt>
      <trkpt lat="43.51354" lon="6.35131">
        <ele>278.7</ele>
        <time>2021-05-02T08:16:26.000Z</time>
      </trkpt>
      <trkpt lat="43.51358" lon="6.3512">
        <ele>279</ele>
        <time>2021-05-02T08:16:35.000Z</time>
      </trkpt>
      <trkpt lat="43.51365" lon="6.3511">
        <ele>280</ele>
        <time>2021-05-02T08:16:44.000Z</time>
      </trkpt>
      <trkpt lat="43.51364" lon="6.35097">
        <ele>279.5</ele>
        <time>2021-05-02T08:16:51.000Z</time>
      </trkpt>
      <trkpt lat="43.51359" lon="6.35086">
        <ele>279.1</ele>
        <time>2021-05-02T08:16:57.000Z</time>
      </trkpt>
      <trkpt lat="43.51358" lon="6.35073">
        <ele>279.1</ele>
        <time>2021-05-02T08:17:06.000Z</time>
      </trkpt>
      <trkpt lat="43.51358" lon="6.35073">
        <ele>279.2</ele>
        <time>2021-05-02T08:17:07.000Z</time>
      </trkpt>
      <trkpt lat="43.51358" lon="6.35073">
        <ele>278.9</ele>
        <time>2021-05-02T08:17:10.000Z</time>
      </trkpt>
      <trkpt lat="43.51358" lon="6.35075">
        <ele>278.9</ele>
        <time>2021-05-02T08:17:12.000Z</time>
      </trkpt>
      <trkpt lat="43.51358" lon="6.35075">
        <ele>278.9</ele>
        <time>2021-05-02T08:17:13.000Z</time>
      </trkpt>
      <trkpt lat="43.51357" lon="6.35076">
        <ele>278.9</ele>
        <time>2021-05-02T08:17:16.000Z</time>
      </trkpt>
      <trkpt lat="43.51357" lon="6.35076">
        <ele>279.1</ele>
        <time>2021-05-02T08:17:20.000Z</time>
      </trkpt>
      <trkpt lat="43.51358" lon="6.35063">
        <ele>279.8</ele>
        <time>2021-05-02T08:17:29.000Z</time>
      </trkpt>
      <trkpt lat="43.51364" lon="6.35053">
        <ele>280</ele>
        <time>2021-05-02T08:17:37.000Z</time>
      </trkpt>
      <trkpt lat="43.51368" lon="6.35041">
        <ele>280.2</ele>
        <time>2021-05-02T08:17:45.000Z</time>
      </trkpt>
      <trkpt lat="43.51375" lon="6.35032">
        <ele>280</ele>
        <time>2021-05-02T08:17:54.000Z</time>
      </trkpt>
      <trkpt lat="43.51378" lon="6.35019">
        <ele>280.6</ele>
        <time>2021-05-02T08:18:02.000Z</time>
      </trkpt>
      <trkpt lat="43.51376" lon="6.35006">
        <ele>280.4</ele>
        <time>2021-05-02T08:18:10.000Z</time>
      </trkpt>
      <trkpt lat="43.51376" lon="6.34994">
        <ele>280.6</ele>
        <time>2021-05-02T08:18:19.000Z</time>
      </trkpt>
      <trkpt lat="43.51378" lon="6.34981">
        <ele>280.8</ele>
        <time>2021-05-02T08:18:25.000Z</time>
      </trkpt>
      <trkpt lat="43.51379" lon="6.34968">
        <ele>280.7</ele>
        <time>2021-05-02T08:18:33.000Z</time>
      </trkpt>
      <trkpt lat="43.51377" lon="6.34956">
        <ele>280.7</ele>
        <time>2021-05-02T08:18:40.000Z</time>
      </trkpt>
      <trkpt lat="43.51377" lon="6.34943">
        <ele>281.5</ele>
        <time>2021-05-02T08:18:48.000Z</time>
      </trkpt>
      <trkpt lat="43.51375" lon="6.3493">
        <ele>281.8</ele>
        <time>2021-05-02T08:18:57.000Z</time>
      </trkpt>
      <trkpt lat="43.5137" lon="6.34918">
        <ele>281.8</ele>
        <time>2021-05-02T08:19:04.000Z</time>
      </trkpt>
      <trkpt lat="43.51373" lon="6.34905">
        <ele>282.2</ele>
        <time>2021-05-02T08:19:13.000Z</time>
      </trkpt>
      <trkpt lat="43.51369" lon="6.34893">
        <ele>282</ele>
        <time>2021-05-02T08:19:23.000Z</time>
      </trkpt>
      <trkpt lat="43.51363" lon="6.34883">
        <ele>282.1</ele>
        <time>2021-05-02T08:19:35.000Z</time>
      </trkpt>
      <trkpt lat="43.51358" lon="6.34872">
        <ele>281.8</ele>
        <time>2021-05-02T08:19:42.000Z</time>
      </trkpt>
      <trkpt lat="43.51353" lon="6.34861">
        <ele>282.5</ele>
        <time>2021-05-02T08:19:51.000Z</time>
      </trkpt>
      <trkpt lat="43.51349" lon="6.34852">
        <ele>283.1</ele>
        <time>2021-05-02T08:20:00.000Z</time>
      </trkpt>
      <trkpt lat="43.51348" lon="6.34852">
        <ele>283.1</ele>
        <time>2021-05-02T08:20:01.000Z</time>
      </trkpt>
      <trkpt lat="43.51343" lon="6.34841">
        <ele>283.3</ele>
        <time>2021-05-02T08:20:10.000Z</time>
      </trkpt>
      <trkpt lat="43.51339" lon="6.34829">
        <ele>282.9</ele>
        <time>2021-05-02T08:20:18.000Z</time>
      </trkpt>
      <trkpt lat="43.51337" lon="6.34816">
        <ele>283</ele>
        <time>2021-05-02T08:20:26.000Z</time>
      </trkpt>
      <trkpt lat="43.51335" lon="6.34803">
        <ele>284</ele>
        <time>2021-05-02T08:20:35.000Z</time>
      </trkpt>
      <trkpt lat="43.5133" lon="6.34793">
        <ele>283.7</ele>
        <time>2021-05-02T08:20:41.000Z</time>
      </trkpt>
      <trkpt lat="43.51323" lon="6.34784">
        <ele>283.5</ele>
        <time>2021-05-02T08:20:49.000Z</time>
      </trkpt>
      <trkpt lat="43.51317" lon="6.34774">
        <ele>283.8</ele>
        <time>2021-05-02T08:20:59.000Z</time>
      </trkpt>
      <trkpt lat="43.5131" lon="6.34766">
        <ele>283.5</ele>
        <time>2021-05-02T08:21:08.000Z</time>
      </trkpt>
      <trkpt lat="43.51302" lon="6.34758">
        <ele>283.6</ele>
        <time>2021-05-02T08:21:15.000Z</time>
      </trkpt>
      <trkpt lat="43.51294" lon="6.34751">
        <ele>283.9</ele>
        <time>2021-05-02T08:21:23.000Z</time>
      </trkpt>
      <trkpt lat="43.51285" lon="6.34751">
        <ele>283.8</ele>
        <time>2021-05-02T08:21:33.000Z</time>
      </trkpt>
      <trkpt lat="43.51282" lon="6.34753">
        <ele>284</ele>
        <time>2021-05-02T08:21:40.000Z</time>
      </trkpt>
      <trkpt lat="43.51281" lon="6.34753">
        <ele>284</ele>
        <time>2021-05-02T08:21:42.000Z</time>
      </trkpt>
      <trkpt lat="43.51287" lon="6.34744">
        <ele>284.2</ele>
        <time>2021-05-02T08:21:55.000Z</time>
      </trkpt>
      <trkpt lat="43.51295" lon="6.34737">
        <ele>285.8</ele>
        <time>2021-05-02T08:22:14.000Z</time>
      </trkpt>
      <trkpt lat="43.51305" lon="6.34734">
        <ele>287.1</ele>
        <time>2021-05-02T08:22:24.000Z</time>
      </trkpt>
      <trkpt lat="43.51298" lon="6.34725">
        <ele>287.7</ele>
        <time>2021-05-02T08:22:45.000Z</time>
      </trkpt>
      <trkpt lat="43.51291" lon="6.34723">
        <ele>287.1</ele>
        <time>2021-05-02T08:23:01.000Z</time>
      </trkpt>
      <trkpt lat="43.51291" lon="6.34723">
        <ele>287</ele>
        <time>2021-05-02T08:23:05.000Z</time>
      </trkpt>
      <trkpt lat="43.51291" lon="6.34723">
        <ele>286.9</ele>
        <time>2021-05-02T08:23:06.000Z</time>
      </trkpt>
      <trkpt lat="43.5129" lon="6.34723">
        <ele>286.9</ele>
        <time>2021-05-02T08:23:07.000Z</time>
      </trkpt>
      <trkpt lat="43.51289" lon="6.34721">
        <ele>286.6</ele>
        <time>2021-05-02T08:23:13.000Z</time>
      </trkpt>
      <trkpt lat="43.51289" lon="6.34721">
        <ele>286.5</ele>
        <time>2021-05-02T08:23:14.000Z</time>
      </trkpt>
      <trkpt lat="43.51289" lon="6.34721">
        <ele>286.4</ele>
        <time>2021-05-02T08:23:15.000Z</time>
      </trkpt>
      <trkpt lat="43.51289" lon="6.34722">
        <ele>286.7</ele>
        <time>2021-05-02T08:23:17.000Z</time>
      </trkpt>
      <trkpt lat="43.51288" lon="6.34723">
        <ele>286.3</ele>
        <time>2021-05-02T08:23:21.000Z</time>
      </trkpt>
      <trkpt lat="43.51288" lon="6.34723">
        <ele>286.3</ele>
        <time>2021-05-02T08:23:23.000Z</time>
      </trkpt>
      <trkpt lat="43.51287" lon="6.34725">
        <ele>286.5</ele>
        <time>2021-05-02T08:23:41.000Z</time>
      </trkpt>
      <trkpt lat="43.51287" lon="6.34725">
        <ele>286.6</ele>
        <time>2021-05-02T08:23:42.000Z</time>
      </trkpt>
      <trkpt lat="43.51285" lon="6.34725">
        <ele>286.6</ele>
        <time>2021-05-02T08:23:57.000Z</time>
      </trkpt>
      <trkpt lat="43.51286" lon="6.34725">
        <ele>286.5</ele>
        <time>2021-05-02T08:23:58.000Z</time>
      </trkpt>
      <trkpt lat="43.51286" lon="6.34725">
        <ele>286.6</ele>
        <time>2021-05-02T08:23:59.000Z</time>
      </trkpt>
      <trkpt lat="43.51285" lon="6.34725">
        <ele>286.4</ele>
        <time>2021-05-02T08:24:01.000Z</time>
      </trkpt>
      <trkpt lat="43.51285" lon="6.34726">
        <ele>286.3</ele>
        <time>2021-05-02T08:24:05.000Z</time>
      </trkpt>
      <trkpt lat="43.51285" lon="6.34726">
        <ele>286.3</ele>
        <time>2021-05-02T08:24:07.000Z</time>
      </trkpt>
      <trkpt lat="43.51285" lon="6.34726">
        <ele>286.3</ele>
        <time>2021-05-02T08:24:10.000Z</time>
      </trkpt>
      <trkpt lat="43.51285" lon="6.34726">
        <ele>287.3</ele>
        <time>2021-05-02T08:24:21.000Z</time>
      </trkpt>
      <trkpt lat="43.51285" lon="6.34726">
        <ele>287.2</ele>
        <time>2021-05-02T08:24:22.000Z</time>
      </trkpt>
      <trkpt lat="43.51285" lon="6.34726">
        <ele>287</ele>
        <time>2021-05-02T08:24:37.000Z</time>
      </trkpt>
      <trkpt lat="43.51285" lon="6.34726">
        <ele>286.9</ele>
        <time>2021-05-02T08:24:38.000Z</time>
      </trkpt>
      <trkpt lat="43.51285" lon="6.34726">
        <ele>286.8</ele>
        <time>2021-05-02T08:24:40.000Z</time>
      </trkpt>
      <trkpt lat="43.51285" lon="6.34726">
        <ele>286.6</ele>
        <time>2021-05-02T08:24:41.000Z</time>
      </trkpt>
      <trkpt lat="43.51285" lon="6.34726">
        <ele>287.2</ele>
        <time>2021-05-02T08:24:55.000Z</time>
      </trkpt>
      <trkpt lat="43.51285" lon="6.34726">
        <ele>287</ele>
        <time>2021-05-02T08:24:56.000Z</time>
      </trkpt>
      <trkpt lat="43.51286" lon="6.34727">
        <ele>286.5</ele>
        <time>2021-05-02T08:25:00.000Z</time>
      </trkpt>
      <trkpt lat="43.51286" lon="6.34727">
        <ele>286.4</ele>
        <time>2021-05-02T08:25:01.000Z</time>
      </trkpt>
      <trkpt lat="43.51286" lon="6.34727">
        <ele>286.7</ele>
        <time>2021-05-02T08:25:10.000Z</time>
      </trkpt>
      <trkpt lat="43.51286" lon="6.34727">
        <ele>286.8</ele>
        <time>2021-05-02T08:25:11.000Z</time>
      </trkpt>
      <trkpt lat="43.51286" lon="6.34727">
        <ele>286.9</ele>
        <time>2021-05-02T08:25:12.000Z</time>
      </trkpt>
      <trkpt lat="43.51288" lon="6.34726">
        <ele>286.7</ele>
        <time>2021-05-02T08:25:21.000Z</time>
      </trkpt>
      <trkpt lat="43.51288" lon="6.34727">
        <ele>286.6</ele>
        <time>2021-05-02T08:25:23.000Z</time>
      </trkpt>
      <trkpt lat="43.51288" lon="6.34727">
        <ele>286.9</ele>
        <time>2021-05-02T08:25:25.000Z</time>
      </trkpt>
      <trkpt lat="43.51288" lon="6.34727">
        <ele>287</ele>
        <time>2021-05-02T08:25:26.000Z</time>
      </trkpt>
      <trkpt lat="43.5129" lon="6.34726">
        <ele>287.3</ele>
        <time>2021-05-02T08:25:32.000Z</time>
      </trkpt>
      <trkpt lat="43.5129" lon="6.34727">
        <ele>287</ele>
        <time>2021-05-02T08:25:39.000Z</time>
      </trkpt>
      <trkpt lat="43.5129" lon="6.34727">
        <ele>286.7</ele>
        <time>2021-05-02T08:25:42.000Z</time>
      </trkpt>
      <trkpt lat="43.5129" lon="6.34728">
        <ele>286.6</ele>
        <time>2021-05-02T08:25:43.000Z</time>
      </trkpt>
      <trkpt lat="43.5129" lon="6.34728">
        <ele>286.5</ele>
        <time>2021-05-02T08:25:44.000Z</time>
      </trkpt>
      <trkpt lat="43.5129" lon="6.34728">
        <ele>286.3</ele>
        <time>2021-05-02T08:25:48.000Z</time>
      </trkpt>
      <trkpt lat="43.5129" lon="6.34728">
        <ele>286.4</ele>
        <time>2021-05-02T08:25:51.000Z</time>
      </trkpt>
      <trkpt lat="43.5129" lon="6.34728">
        <ele>286.8</ele>
        <time>2021-05-02T08:26:02.000Z</time>
      </trkpt>
      <trkpt lat="43.5129" lon="6.34728">
        <ele>286.7</ele>
        <time>2021-05-02T08:26:03.000Z</time>
      </trkpt>
      <trkpt lat="43.5129" lon="6.34728">
        <ele>286.6</ele>
        <time>2021-05-02T08:26:04.000Z</time>
      </trkpt>
      <trkpt lat="43.5129" lon="6.34728">
        <ele>286.6</ele>
        <time>2021-05-02T08:26:05.000Z</time>
      </trkpt>
      <trkpt lat="43.5129" lon="6.34728">
        <ele>286.7</ele>
        <time>2021-05-02T08:26:12.000Z</time>
      </trkpt>
      <trkpt lat="43.5129" lon="6.34727">
        <ele>286.7</ele>
        <time>2021-05-02T08:26:13.000Z</time>
      </trkpt>
      <trkpt lat="43.51291" lon="6.34727">
        <ele>286.7</ele>
        <time>2021-05-02T08:26:14.000Z</time>
      </trkpt>
      <trkpt lat="43.5129" lon="6.34727">
        <ele>286.6</ele>
        <time>2021-05-02T08:26:16.000Z</time>
      </trkpt>
      <trkpt lat="43.51291" lon="6.34728">
        <ele>286.7</ele>
        <time>2021-05-02T08:26:28.000Z</time>
      </trkpt>
      <trkpt lat="43.51291" lon="6.34728">
        <ele>286.7</ele>
        <time>2021-05-02T08:26:29.000Z</time>
      </trkpt>
      <trkpt lat="43.5129" lon="6.34728">
        <ele>286.8</ele>
        <time>2021-05-02T08:26:31.000Z</time>
      </trkpt>
      <trkpt lat="43.5129" lon="6.34728">
        <ele>286.8</ele>
        <time>2021-05-02T08:26:32.000Z</time>
      </trkpt>
      <trkpt lat="43.51291" lon="6.34729">
        <ele>287</ele>
        <time>2021-05-02T08:26:34.000Z</time>
      </trkpt>
      <trkpt lat="43.51292" lon="6.34727">
        <ele>286.6</ele>
        <time>2021-05-02T08:26:41.000Z</time>
      </trkpt>
      <trkpt lat="43.51293" lon="6.34727">
        <ele>287.1</ele>
        <time>2021-05-02T08:26:50.000Z</time>
      </trkpt>
      <trkpt lat="43.51293" lon="6.34727">
        <ele>287.4</ele>
        <time>2021-05-02T08:26:53.000Z</time>
      </trkpt>
      <trkpt lat="43.51293" lon="6.34727">
        <ele>286.6</ele>
        <time>2021-05-02T08:27:04.000Z</time>
      </trkpt>
      <trkpt lat="43.51293" lon="6.34728">
        <ele>286.4</ele>
        <time>2021-05-02T08:27:05.000Z</time>
      </trkpt>
      <trkpt lat="43.51293" lon="6.34727">
        <ele>286.6</ele>
        <time>2021-05-02T08:27:13.000Z</time>
      </trkpt>
      <trkpt lat="43.51293" lon="6.34727">
        <ele>286.8</ele>
        <time>2021-05-02T08:27:14.000Z</time>
      </trkpt>
      <trkpt lat="43.51293" lon="6.34727">
        <ele>287.3</ele>
        <time>2021-05-02T08:27:18.000Z</time>
      </trkpt>
      <trkpt lat="43.51293" lon="6.34727">
        <ele>287.3</ele>
        <time>2021-05-02T08:27:19.000Z</time>
      </trkpt>
      <trkpt lat="43.51293" lon="6.34728">
        <ele>287.1</ele>
        <time>2021-05-02T08:27:24.000Z</time>
      </trkpt>
      <trkpt lat="43.51294" lon="6.34727">
        <ele>287.1</ele>
        <time>2021-05-02T08:27:28.000Z</time>
      </trkpt>
      <trkpt lat="43.51294" lon="6.34727">
        <ele>287</ele>
        <time>2021-05-02T08:27:35.000Z</time>
      </trkpt>
      <trkpt lat="43.51302" lon="6.34732">
        <ele>287.3</ele>
        <time>2021-05-02T08:27:56.000Z</time>
      </trkpt>
      <trkpt lat="43.51302" lon="6.3473">
        <ele>287.4</ele>
        <time>2021-05-02T08:28:02.000Z</time>
      </trkpt>
      <trkpt lat="43.51302" lon="6.34729">
        <ele>287.4</ele>
        <time>2021-05-02T08:28:04.000Z</time>
      </trkpt>
      <trkpt lat="43.51302" lon="6.34729">
        <ele>287.5</ele>
        <time>2021-05-02T08:28:05.000Z</time>
      </trkpt>
      <trkpt lat="43.51302" lon="6.34729">
        <ele>287.5</ele>
        <time>2021-05-02T08:28:07.000Z</time>
      </trkpt>
      <trkpt lat="43.51302" lon="6.34729">
        <ele>287.5</ele>
        <time>2021-05-02T08:28:08.000Z</time>
      </trkpt>
      <trkpt lat="43.51302" lon="6.34728">
        <ele>287.3</ele>
        <time>2021-05-02T08:28:10.000Z</time>
      </trkpt>
      <trkpt lat="43.51302" lon="6.34727">
        <ele>287.5</ele>
        <time>2021-05-02T08:28:14.000Z</time>
      </trkpt>
      <trkpt lat="43.51302" lon="6.34727">
        <ele>287.9</ele>
        <time>2021-05-02T08:28:21.000Z</time>
      </trkpt>
      <trkpt lat="43.513" lon="6.3473">
        <ele>287.3</ele>
        <time>2021-05-02T08:28:26.000Z</time>
      </trkpt>
      <trkpt lat="43.513" lon="6.3473">
        <ele>288</ele>
        <time>2021-05-02T08:28:34.000Z</time>
      </trkpt>
      <trkpt lat="43.51301" lon="6.34731">
        <ele>287.8</ele>
        <time>2021-05-02T08:28:36.000Z</time>
      </trkpt>
      <trkpt lat="43.51301" lon="6.34731">
        <ele>287.5</ele>
        <time>2021-05-02T08:28:45.000Z</time>
      </trkpt>
      <trkpt lat="43.51292" lon="6.34735">
        <ele>285.1</ele>
        <time>2021-05-02T08:29:05.000Z</time>
      </trkpt>
      <trkpt lat="43.51284" lon="6.34742">
        <ele>284.4</ele>
        <time>2021-05-02T08:29:17.000Z</time>
      </trkpt>
      <trkpt lat="43.51276" lon="6.34747">
        <ele>283.6</ele>
        <time>2021-05-02T08:29:32.000Z</time>
      </trkpt>
      <trkpt lat="43.51276" lon="6.34747">
        <ele>283.6</ele>
        <time>2021-05-02T08:29:38.000Z</time>
      </trkpt>
      <trkpt lat="43.51276" lon="6.34747">
        <ele>283.7</ele>
        <time>2021-05-02T08:29:39.000Z</time>
      </trkpt>
      <trkpt lat="43.51276" lon="6.34747">
        <ele>284.2</ele>
        <time>2021-05-02T08:29:44.000Z</time>
      </trkpt>
      <trkpt lat="43.51273" lon="6.34748">
        <ele>284.1</ele>
        <time>2021-05-02T08:29:53.000Z</time>
      </trkpt>
      <trkpt lat="43.51273" lon="6.34747">
        <ele>284.2</ele>
        <time>2021-05-02T08:29:54.000Z</time>
      </trkpt>
      <trkpt lat="43.51264" lon="6.34751">
        <ele>284.8</ele>
        <time>2021-05-02T08:30:07.000Z</time>
      </trkpt>
      <trkpt lat="43.51259" lon="6.34762">
        <ele>285.7</ele>
        <time>2021-05-02T08:30:22.000Z</time>
      </trkpt>
      <trkpt lat="43.51256" lon="6.34766">
        <ele>286.6</ele>
        <time>2021-05-02T08:30:30.000Z</time>
      </trkpt>
      <trkpt lat="43.51256" lon="6.34766">
        <ele>286.8</ele>
        <time>2021-05-02T08:30:31.000Z</time>
      </trkpt>
      <trkpt lat="43.51248" lon="6.3477">
        <ele>290.3</ele>
        <time>2021-05-02T08:30:49.000Z</time>
      </trkpt>
      <trkpt lat="43.51239" lon="6.34775">
        <ele>290.1</ele>
        <time>2021-05-02T08:30:59.000Z</time>
      </trkpt>
      <trkpt lat="43.5123" lon="6.3478">
        <ele>292.1</ele>
        <time>2021-05-02T08:31:12.000Z</time>
      </trkpt>
      <trkpt lat="43.51222" lon="6.34786">
        <ele>292.2</ele>
        <time>2021-05-02T08:31:20.000Z</time>
      </trkpt>
      <trkpt lat="43.51214" lon="6.34793">
        <ele>293</ele>
        <time>2021-05-02T08:31:29.000Z</time>
      </trkpt>
      <trkpt lat="43.51204" lon="6.34797">
        <ele>293.9</ele>
        <time>2021-05-02T08:31:38.000Z</time>
      </trkpt>
      <trkpt lat="43.51196" lon="6.34804">
        <ele>293.9</ele>
        <time>2021-05-02T08:31:47.000Z</time>
      </trkpt>
      <trkpt lat="43.51187" lon="6.34809">
        <ele>295.4</ele>
        <time>2021-05-02T08:31:57.000Z</time>
      </trkpt>
      <trkpt lat="43.5118" lon="6.34817">
        <ele>295.9</ele>
        <time>2021-05-02T08:32:07.000Z</time>
      </trkpt>
      <trkpt lat="43.51172" lon="6.34825">
        <ele>296</ele>
        <time>2021-05-02T08:32:17.000Z</time>
      </trkpt>
      <trkpt lat="43.51163" lon="6.34831">
        <ele>296.3</ele>
        <time>2021-05-02T08:32:27.000Z</time>
      </trkpt>
      <trkpt lat="43.51154" lon="6.34835">
        <ele>296.7</ele>
        <time>2021-05-02T08:32:36.000Z</time>
      </trkpt>
      <trkpt lat="43.51146" lon="6.34842">
        <ele>297.5</ele>
        <time>2021-05-02T08:32:46.000Z</time>
      </trkpt>
      <trkpt lat="43.51138" lon="6.34849">
        <ele>297.5</ele>
        <time>2021-05-02T08:32:56.000Z</time>
      </trkpt>
      <trkpt lat="43.51137" lon="6.34851">
        <ele>298.2</ele>
        <time>2021-05-02T08:33:02.000Z</time>
      </trkpt>
      <trkpt lat="43.51136" lon="6.34851">
        <ele>297.6</ele>
        <time>2021-05-02T08:33:08.000Z</time>
      </trkpt>
      <trkpt lat="43.51136" lon="6.34851">
        <ele>297.6</ele>
        <time>2021-05-02T08:33:09.000Z</time>
      </trkpt>
      <trkpt lat="43.51137" lon="6.34851">
        <ele>297.4</ele>
        <time>2021-05-02T08:33:16.000Z</time>
      </trkpt>
      <trkpt lat="43.51137" lon="6.34851">
        <ele>297.6</ele>
        <time>2021-05-02T08:33:17.000Z</time>
      </trkpt>
      <trkpt lat="43.51136" lon="6.3485">
        <ele>297.8</ele>
        <time>2021-05-02T08:33:18.000Z</time>
      </trkpt>
      <trkpt lat="43.51129" lon="6.3486">
        <ele>298.8</ele>
        <time>2021-05-02T08:33:30.000Z</time>
      </trkpt>
      <trkpt lat="43.51122" lon="6.34868">
        <ele>298.8</ele>
        <time>2021-05-02T08:33:38.000Z</time>
      </trkpt>
      <trkpt lat="43.51115" lon="6.34877">
        <ele>299.3</ele>
        <time>2021-05-02T08:33:47.000Z</time>
      </trkpt>
      <trkpt lat="43.51107" lon="6.34882">
        <ele>299.7</ele>
        <time>2021-05-02T08:33:57.000Z</time>
      </trkpt>
      <trkpt lat="43.51107" lon="6.34883">
        <ele>299.7</ele>
        <time>2021-05-02T08:33:59.000Z</time>
      </trkpt>
      <trkpt lat="43.51107" lon="6.34883">
        <ele>299.6</ele>
        <time>2021-05-02T08:34:15.000Z</time>
      </trkpt>
      <trkpt lat="43.51108" lon="6.34884">
        <ele>299.6</ele>
        <time>2021-05-02T08:34:19.000Z</time>
      </trkpt>
      <trkpt lat="43.51108" lon="6.34883">
        <ele>299.3</ele>
        <time>2021-05-02T08:34:21.000Z</time>
      </trkpt>
      <trkpt lat="43.51112" lon="6.34872">
        <ele>299.6</ele>
        <time>2021-05-02T08:34:34.000Z</time>
      </trkpt>
      <trkpt lat="43.5111" lon="6.34858">
        <ele>300.3</ele>
        <time>2021-05-02T08:34:43.000Z</time>
      </trkpt>
      <trkpt lat="43.51109" lon="6.34846">
        <ele>301.1</ele>
        <time>2021-05-02T08:34:54.000Z</time>
      </trkpt>
      <trkpt lat="43.51108" lon="6.34833">
        <ele>302</ele>
        <time>2021-05-02T08:35:09.000Z</time>
      </trkpt>
      <trkpt lat="43.51106" lon="6.34821">
        <ele>302.3</ele>
        <time>2021-05-02T08:35:17.000Z</time>
      </trkpt>
      <trkpt lat="43.51103" lon="6.34808">
        <ele>302.1</ele>
        <time>2021-05-02T08:35:26.000Z</time>
      </trkpt>
      <trkpt lat="43.51101" lon="6.34795">
        <ele>302.6</ele>
        <time>2021-05-02T08:35:35.000Z</time>
      </trkpt>
      <trkpt lat="43.51099" lon="6.34782">
        <ele>302.7</ele>
        <time>2021-05-02T08:35:45.000Z</time>
      </trkpt>
      <trkpt lat="43.51097" lon="6.34768">
        <ele>303.1</ele>
        <time>2021-05-02T08:35:54.000Z</time>
      </trkpt>
      <trkpt lat="43.51095" lon="6.34755">
        <ele>303.3</ele>
        <time>2021-05-02T08:36:03.000Z</time>
      </trkpt>
      <trkpt lat="43.51095" lon="6.34741">
        <ele>304.4</ele>
        <time>2021-05-02T08:36:12.000Z</time>
      </trkpt>
      <trkpt lat="43.51095" lon="6.34729">
        <ele>305</ele>
        <time>2021-05-02T08:36:19.000Z</time>
      </trkpt>
      <trkpt lat="43.51093" lon="6.34716">
        <ele>304.9</ele>
        <time>2021-05-02T08:36:28.000Z</time>
      </trkpt>
      <trkpt lat="43.51091" lon="6.34703">
        <ele>304</ele>
        <time>2021-05-02T08:36:38.000Z</time>
      </trkpt>
      <trkpt lat="43.51089" lon="6.34691">
        <ele>302.9</ele>
        <time>2021-05-02T08:36:47.000Z</time>
      </trkpt>
      <trkpt lat="43.51087" lon="6.34678">
        <ele>302.9</ele>
        <time>2021-05-02T08:36:57.000Z</time>
      </trkpt>
      <trkpt lat="43.51085" lon="6.34665">
        <ele>302.2</ele>
        <time>2021-05-02T08:37:06.000Z</time>
      </trkpt>
      <trkpt lat="43.51081" lon="6.34653">
        <ele>303.2</ele>
        <time>2021-05-02T08:37:15.000Z</time>
      </trkpt>
      <trkpt lat="43.51078" lon="6.3464">
        <ele>302.7</ele>
        <time>2021-05-02T08:37:23.000Z</time>
      </trkpt>
      <trkpt lat="43.51077" lon="6.34627">
        <ele>302.8</ele>
        <time>2021-05-02T08:37:34.000Z</time>
      </trkpt>
      <trkpt lat="43.51077" lon="6.34614">
        <ele>303.5</ele>
        <time>2021-05-02T08:37:43.000Z</time>
      </trkpt>
      <trkpt lat="43.51075" lon="6.34601">
        <ele>304.3</ele>
        <time>2021-05-02T08:37:52.000Z</time>
      </trkpt>
      <trkpt lat="43.51071" lon="6.34589">
        <ele>304.6</ele>
        <time>2021-05-02T08:38:00.000Z</time>
      </trkpt>
      <trkpt lat="43.51068" lon="6.34577">
        <ele>305.7</ele>
        <time>2021-05-02T08:38:09.000Z</time>
      </trkpt>
      <trkpt lat="43.51065" lon="6.34565">
        <ele>306.3</ele>
        <time>2021-05-02T08:38:20.000Z</time>
      </trkpt>
      <trkpt lat="43.51055" lon="6.34568">
        <ele>307.4</ele>
        <time>2021-05-02T08:38:31.000Z</time>
      </trkpt>
      <trkpt lat="43.51046" lon="6.34574">
        <ele>307.8</ele>
        <time>2021-05-02T08:38:41.000Z</time>
      </trkpt>
      <trkpt lat="43.51038" lon="6.3458">
        <ele>307.6</ele>
        <time>2021-05-02T08:38:48.000Z</time>
      </trkpt>
      <trkpt lat="43.5103" lon="6.34586">
        <ele>307</ele>
        <time>2021-05-02T08:38:55.000Z</time>
      </trkpt>
      <trkpt lat="43.51022" lon="6.34593">
        <ele>307.8</ele>
        <time>2021-05-02T08:39:02.000Z</time>
      </trkpt>
      <trkpt lat="43.51014" lon="6.34601">
        <ele>307.6</ele>
        <time>2021-05-02T08:39:10.000Z</time>
      </trkpt>
      <trkpt lat="43.51008" lon="6.34611">
        <ele>306.8</ele>
        <time>2021-05-02T08:39:18.000Z</time>
      </trkpt>
      <trkpt lat="43.51001" lon="6.3462">
        <ele>306.3</ele>
        <time>2021-05-02T08:39:28.000Z</time>
      </trkpt>
      <trkpt lat="43.50994" lon="6.34628">
        <ele>306.3</ele>
        <time>2021-05-02T08:39:35.000Z</time>
      </trkpt>
      <trkpt lat="43.50987" lon="6.34637">
        <ele>306.7</ele>
        <time>2021-05-02T08:39:43.000Z</time>
      </trkpt>
      <trkpt lat="43.50978" lon="6.34643">
        <ele>306.8</ele>
        <time>2021-05-02T08:39:51.000Z</time>
      </trkpt>
      <trkpt lat="43.50971" lon="6.34651">
        <ele>306.5</ele>
        <time>2021-05-02T08:39:59.000Z</time>
      </trkpt>
      <trkpt lat="43.50963" lon="6.34658">
        <ele>306.7</ele>
        <time>2021-05-02T08:40:06.000Z</time>
      </trkpt>
      <trkpt lat="43.50956" lon="6.34666">
        <ele>307.3</ele>
        <time>2021-05-02T08:40:13.000Z</time>
      </trkpt>
      <trkpt lat="43.50947" lon="6.3467">
        <ele>307.3</ele>
        <time>2021-05-02T08:40:21.000Z</time>
      </trkpt>
      <trkpt lat="43.50938" lon="6.34675">
        <ele>307.7</ele>
        <time>2021-05-02T08:40:29.000Z</time>
      </trkpt>
      <trkpt lat="43.5093" lon="6.34681">
        <ele>308.1</ele>
        <time>2021-05-02T08:40:37.000Z</time>
      </trkpt>
      <trkpt lat="43.50922" lon="6.34689">
        <ele>307.9</ele>
        <time>2021-05-02T08:40:44.000Z</time>
      </trkpt>
      <trkpt lat="43.50916" lon="6.34699">
        <ele>308</ele>
        <time>2021-05-02T08:40:52.000Z</time>
      </trkpt>
      <trkpt lat="43.5091" lon="6.34709">
        <ele>307.7</ele>
        <time>2021-05-02T08:41:01.000Z</time>
      </trkpt>
      <trkpt lat="43.50903" lon="6.34717">
        <ele>307</ele>
        <time>2021-05-02T08:41:09.000Z</time>
      </trkpt>
      <trkpt lat="43.50895" lon="6.34723">
        <ele>306.7</ele>
        <time>2021-05-02T08:41:15.000Z</time>
      </trkpt>
      <trkpt lat="43.50887" lon="6.34728">
        <ele>306.5</ele>
        <time>2021-05-02T08:41:22.000Z</time>
      </trkpt>
      <trkpt lat="43.50879" lon="6.34737">
        <ele>305.9</ele>
        <time>2021-05-02T08:41:30.000Z</time>
      </trkpt>
      <trkpt lat="43.50871" lon="6.34745">
        <ele>305.2</ele>
        <time>2021-05-02T08:41:38.000Z</time>
      </trkpt>
      <trkpt lat="43.50863" lon="6.34753">
        <ele>304</ele>
        <time>2021-05-02T08:41:47.000Z</time>
      </trkpt>
      <trkpt lat="43.50856" lon="6.34764">
        <ele>304.3</ele>
        <time>2021-05-02T08:41:56.000Z</time>
      </trkpt>
      <trkpt lat="43.50851" lon="6.34776">
        <ele>303.8</ele>
        <time>2021-05-02T08:42:03.000Z</time>
      </trkpt>
      <trkpt lat="43.50843" lon="6.34784">
        <ele>303.4</ele>
        <time>2021-05-02T08:42:12.000Z</time>
      </trkpt>
      <trkpt lat="43.50839" lon="6.34789">
        <ele>302.7</ele>
        <time>2021-05-02T08:42:19.000Z</time>
      </trkpt>
      <trkpt lat="43.5084" lon="6.34789">
        <ele>302.7</ele>
        <time>2021-05-02T08:42:20.000Z</time>
      </trkpt>
      <trkpt lat="43.5084" lon="6.34789">
        <ele>302.9</ele>
        <time>2021-05-02T08:42:21.000Z</time>
      </trkpt>
      <trkpt lat="43.50839" lon="6.34789">
        <ele>302.9</ele>
        <time>2021-05-02T08:42:23.000Z</time>
      </trkpt>
      <trkpt lat="43.5083" lon="6.34795">
        <ele>301.7</ele>
        <time>2021-05-02T08:42:33.000Z</time>
      </trkpt>
      <trkpt lat="43.50822" lon="6.34802">
        <ele>301.3</ele>
        <time>2021-05-02T08:42:41.000Z</time>
      </trkpt>
      <trkpt lat="43.50814" lon="6.34808">
        <ele>301.2</ele>
        <time>2021-05-02T08:42:49.000Z</time>
      </trkpt>
      <trkpt lat="43.50806" lon="6.34817">
        <ele>300.7</ele>
        <time>2021-05-02T08:42:57.000Z</time>
      </trkpt>
      <trkpt lat="43.50798" lon="6.34824">
        <ele>300</ele>
        <time>2021-05-02T08:43:05.000Z</time>
      </trkpt>
      <trkpt lat="43.50788" lon="6.34829">
        <ele>299.7</ele>
        <time>2021-05-02T08:43:12.000Z</time>
      </trkpt>
      <trkpt lat="43.50781" lon="6.34837">
        <ele>299.2</ele>
        <time>2021-05-02T08:43:19.000Z</time>
      </trkpt>
      <trkpt lat="43.50773" lon="6.34845">
        <ele>298.7</ele>
        <time>2021-05-02T08:43:27.000Z</time>
      </trkpt>
      <trkpt lat="43.50765" lon="6.34853">
        <ele>298.4</ele>
        <time>2021-05-02T08:43:34.000Z</time>
      </trkpt>
      <trkpt lat="43.50757" lon="6.3486">
        <ele>298</ele>
        <time>2021-05-02T08:43:42.000Z</time>
      </trkpt>
      <trkpt lat="43.50749" lon="6.34868">
        <ele>297.4</ele>
        <time>2021-05-02T08:43:50.000Z</time>
      </trkpt>
      <trkpt lat="43.50742" lon="6.34878">
        <ele>297.1</ele>
        <time>2021-05-02T08:43:59.000Z</time>
      </trkpt>
      <trkpt lat="43.50734" lon="6.34887">
        <ele>296</ele>
        <time>2021-05-02T08:44:07.000Z</time>
      </trkpt>
      <trkpt lat="43.50726" lon="6.34895">
        <ele>295.6</ele>
        <time>2021-05-02T08:44:15.000Z</time>
      </trkpt>
      <trkpt lat="43.50718" lon="6.34902">
        <ele>295.5</ele>
        <time>2021-05-02T08:44:23.000Z</time>
      </trkpt>
      <trkpt lat="43.50711" lon="6.3491">
        <ele>295.2</ele>
        <time>2021-05-02T08:44:31.000Z</time>
      </trkpt>
      <trkpt lat="43.50703" lon="6.34917">
        <ele>294.4</ele>
        <time>2021-05-02T08:44:40.000Z</time>
      </trkpt>
      <trkpt lat="43.50696" lon="6.34927">
        <ele>293.4</ele>
        <time>2021-05-02T08:44:49.000Z</time>
      </trkpt>
      <trkpt lat="43.50688" lon="6.34932">
        <ele>293.1</ele>
        <time>2021-05-02T08:44:56.000Z</time>
      </trkpt>
      <trkpt lat="43.5068" lon="6.34941">
        <ele>292.9</ele>
        <time>2021-05-02T08:45:04.000Z</time>
      </trkpt>
      <trkpt lat="43.50671" lon="6.34949">
        <ele>292.6</ele>
        <time>2021-05-02T08:45:12.000Z</time>
      </trkpt>
      <trkpt lat="43.50663" lon="6.34954">
        <ele>292.7</ele>
        <time>2021-05-02T08:45:18.000Z</time>
      </trkpt>
      <trkpt lat="43.50654" lon="6.34961">
        <ele>294.1</ele>
        <time>2021-05-02T08:45:28.000Z</time>
      </trkpt>
      <trkpt lat="43.50646" lon="6.34968">
        <ele>294.3</ele>
        <time>2021-05-02T08:45:36.000Z</time>
      </trkpt>
      <trkpt lat="43.5064" lon="6.34978">
        <ele>294.5</ele>
        <time>2021-05-02T08:45:44.000Z</time>
      </trkpt>
      <trkpt lat="43.50633" lon="6.34988">
        <ele>294.9</ele>
        <time>2021-05-02T08:45:52.000Z</time>
      </trkpt>
      <trkpt lat="43.50626" lon="6.34996">
        <ele>295.2</ele>
        <time>2021-05-02T08:45:59.000Z</time>
      </trkpt>
      <trkpt lat="43.50617" lon="6.35003">
        <ele>295.9</ele>
        <time>2021-05-02T08:46:08.000Z</time>
      </trkpt>
      <trkpt lat="43.5061" lon="6.35011">
        <ele>296.3</ele>
        <time>2021-05-02T08:46:16.000Z</time>
      </trkpt>
      <trkpt lat="43.50602" lon="6.35017">
        <ele>296.1</ele>
        <time>2021-05-02T08:46:26.000Z</time>
      </trkpt>
      <trkpt lat="43.50594" lon="6.35024">
        <ele>296.4</ele>
        <time>2021-05-02T08:46:34.000Z</time>
      </trkpt>
      <trkpt lat="43.50592" lon="6.35031">
        <ele>296.5</ele>
        <time>2021-05-02T08:46:43.000Z</time>
      </trkpt>
      <trkpt lat="43.50593" lon="6.35031">
        <ele>296.6</ele>
        <time>2021-05-02T08:46:45.000Z</time>
      </trkpt>
      <trkpt lat="43.50583" lon="6.35035">
        <ele>296.6</ele>
        <time>2021-05-02T08:46:56.000Z</time>
      </trkpt>
      <trkpt lat="43.50575" lon="6.35043">
        <ele>296.6</ele>
        <time>2021-05-02T08:47:05.000Z</time>
      </trkpt>
      <trkpt lat="43.50566" lon="6.35048">
        <ele>296.5</ele>
        <time>2021-05-02T08:47:18.000Z</time>
      </trkpt>
      <trkpt lat="43.50556" lon="6.35048">
        <ele>295.7</ele>
        <time>2021-05-02T08:47:29.000Z</time>
      </trkpt>
      <trkpt lat="43.50547" lon="6.3505">
        <ele>294.9</ele>
        <time>2021-05-02T08:47:39.000Z</time>
      </trkpt>
      <trkpt lat="43.50536" lon="6.35052">
        <ele>293.9</ele>
        <time>2021-05-02T08:47:48.000Z</time>
      </trkpt>
      <trkpt lat="43.50526" lon="6.35052">
        <ele>292.8</ele>
        <time>2021-05-02T08:47:56.000Z</time>
      </trkpt>
      <trkpt lat="43.50517" lon="6.35054">
        <ele>292.1</ele>
        <time>2021-05-02T08:48:04.000Z</time>
      </trkpt>
      <trkpt lat="43.50508" lon="6.35055">
        <ele>292.9</ele>
        <time>2021-05-02T08:48:11.000Z</time>
      </trkpt>
      <trkpt lat="43.50498" lon="6.35056">
        <ele>293.2</ele>
        <time>2021-05-02T08:48:19.000Z</time>
      </trkpt>
      <trkpt lat="43.50491" lon="6.35065">
        <ele>293.7</ele>
        <time>2021-05-02T08:48:27.000Z</time>
      </trkpt>
      <trkpt lat="43.50492" lon="6.35077">
        <ele>294.2</ele>
        <time>2021-05-02T08:48:35.000Z</time>
      </trkpt>
      <trkpt lat="43.50494" lon="6.3509">
        <ele>294.7</ele>
        <time>2021-05-02T08:48:44.000Z</time>
      </trkpt>
      <trkpt lat="43.50496" lon="6.35103">
        <ele>294.8</ele>
        <time>2021-05-02T08:48:55.000Z</time>
      </trkpt>
      <trkpt lat="43.50498" lon="6.35117">
        <ele>295.7</ele>
        <time>2021-05-02T08:49:04.000Z</time>
      </trkpt>
      <trkpt lat="43.50497" lon="6.3513">
        <ele>297.4</ele>
        <time>2021-05-02T08:49:14.000Z</time>
      </trkpt>
      <trkpt lat="43.50499" lon="6.35133">
        <ele>297.6</ele>
        <time>2021-05-02T08:49:19.000Z</time>
      </trkpt>
      <trkpt lat="43.50499" lon="6.35133">
        <ele>297.4</ele>
        <time>2021-05-02T08:49:35.000Z</time>
      </trkpt>
      <trkpt lat="43.50497" lon="6.3513">
        <ele>296.8</ele>
        <time>2021-05-02T08:49:43.000Z</time>
      </trkpt>
      <trkpt lat="43.50497" lon="6.35129">
        <ele>296.7</ele>
        <time>2021-05-02T08:49:45.000Z</time>
      </trkpt>
      <trkpt lat="43.50498" lon="6.35129">
        <ele>297.3</ele>
        <time>2021-05-02T08:49:52.000Z</time>
      </trkpt>
      <trkpt lat="43.50498" lon="6.35129">
        <ele>297.1</ele>
        <time>2021-05-02T08:49:53.000Z</time>
      </trkpt>
      <trkpt lat="43.50488" lon="6.35129">
        <ele>296.9</ele>
        <time>2021-05-02T08:50:04.000Z</time>
      </trkpt>
      <trkpt lat="43.50479" lon="6.35127">
        <ele>297.8</ele>
        <time>2021-05-02T08:50:15.000Z</time>
      </trkpt>
      <trkpt lat="43.50469" lon="6.35128">
        <ele>298.6</ele>
        <time>2021-05-02T08:50:26.000Z</time>
      </trkpt>
      <trkpt lat="43.50469" lon="6.35128">
        <ele>298.7</ele>
        <time>2021-05-02T08:50:28.000Z</time>
      </trkpt>
      <trkpt lat="43.50469" lon="6.35128">
        <ele>298.7</ele>
        <time>2021-05-02T08:50:29.000Z</time>
      </trkpt>
      <trkpt lat="43.50459" lon="6.35128">
        <ele>299.3</ele>
        <time>2021-05-02T08:50:38.000Z</time>
      </trkpt>
      <trkpt lat="43.50449" lon="6.35129">
        <ele>300</ele>
        <time>2021-05-02T08:50:46.000Z</time>
      </trkpt>
      <trkpt lat="43.50439" lon="6.35129">
        <ele>300.6</ele>
        <time>2021-05-02T08:50:54.000Z</time>
      </trkpt>
      <trkpt lat="43.50432" lon="6.3513">
        <ele>301.6</ele>
        <time>2021-05-02T08:51:04.000Z</time>
      </trkpt>
      <trkpt lat="43.50431" lon="6.3513">
        <ele>302</ele>
        <time>2021-05-02T08:51:06.000Z</time>
      </trkpt>
      <trkpt lat="43.50422" lon="6.35129">
        <ele>304.3</ele>
        <time>2021-05-02T08:51:20.000Z</time>
      </trkpt>
      <trkpt lat="43.50412" lon="6.35132">
        <ele>305.2</ele>
        <time>2021-05-02T08:51:28.000Z</time>
      </trkpt>
      <trkpt lat="43.50402" lon="6.35133">
        <ele>306.2</ele>
        <time>2021-05-02T08:51:35.000Z</time>
      </trkpt>
      <trkpt lat="43.50392" lon="6.35134">
        <ele>306.6</ele>
        <time>2021-05-02T08:51:41.000Z</time>
      </trkpt>
      <trkpt lat="43.50382" lon="6.35135">
        <ele>308.4</ele>
        <time>2021-05-02T08:51:54.000Z</time>
      </trkpt>
      <trkpt lat="43.50372" lon="6.35137">
        <ele>309.1</ele>
        <time>2021-05-02T08:52:01.000Z</time>
      </trkpt>
      <trkpt lat="43.50369" lon="6.35149">
        <ele>309.5</ele>
        <time>2021-05-02T08:52:09.000Z</time>
      </trkpt>
      <trkpt lat="43.50368" lon="6.35152">
        <ele>309.1</ele>
        <time>2021-05-02T08:52:14.000Z</time>
      </trkpt>
      <trkpt lat="43.50368" lon="6.35152">
        <ele>309.2</ele>
        <time>2021-05-02T08:52:15.000Z</time>
      </trkpt>
      <trkpt lat="43.50368" lon="6.35152">
        <ele>309.4</ele>
        <time>2021-05-02T08:52:17.000Z</time>
      </trkpt>
      <trkpt lat="43.50368" lon="6.35152">
        <ele>309.3</ele>
        <time>2021-05-02T08:52:22.000Z</time>
      </trkpt>
      <trkpt lat="43.50369" lon="6.35164">
        <ele>309.3</ele>
        <time>2021-05-02T08:52:31.000Z</time>
      </trkpt>
      <trkpt lat="43.5037" lon="6.35178">
        <ele>309.2</ele>
        <time>2021-05-02T08:52:39.000Z</time>
      </trkpt>
      <trkpt lat="43.50371" lon="6.3519">
        <ele>309.6</ele>
        <time>2021-05-02T08:52:47.000Z</time>
      </trkpt>
      <trkpt lat="43.50373" lon="6.35203">
        <ele>309.6</ele>
        <time>2021-05-02T08:52:57.000Z</time>
      </trkpt>
      <trkpt lat="43.50374" lon="6.35216">
        <ele>309.1</ele>
        <time>2021-05-02T08:53:04.000Z</time>
      </trkpt>
      <trkpt lat="43.50374" lon="6.3523">
        <ele>309.6</ele>
        <time>2021-05-02T08:53:13.000Z</time>
      </trkpt>
      <trkpt lat="43.50376" lon="6.35243">
        <ele>309.2</ele>
        <time>2021-05-02T08:53:22.000Z</time>
      </trkpt>
      <trkpt lat="43.50377" lon="6.35255">
        <ele>309.3</ele>
        <time>2021-05-02T08:53:30.000Z</time>
      </trkpt>
      <trkpt lat="43.50369" lon="6.35263">
        <ele>309.7</ele>
        <time>2021-05-02T08:53:46.000Z</time>
      </trkpt>
      <trkpt lat="43.5036" lon="6.35266">
        <ele>309.9</ele>
        <time>2021-05-02T08:53:58.000Z</time>
      </trkpt>
      <trkpt lat="43.50352" lon="6.35258">
        <ele>309.7</ele>
        <time>2021-05-02T08:54:11.000Z</time>
      </trkpt>
      <trkpt lat="43.50342" lon="6.35258">
        <ele>310</ele>
        <time>2021-05-02T08:54:18.000Z</time>
      </trkpt>
      <trkpt lat="43.50332" lon="6.35257">
        <ele>310.5</ele>
        <time>2021-05-02T08:54:27.000Z</time>
      </trkpt>
      <trkpt lat="43.50322" lon="6.35256">
        <ele>310.5</ele>
        <time>2021-05-02T08:54:34.000Z</time>
      </trkpt>
      <trkpt lat="43.50313" lon="6.35254">
        <ele>310.2</ele>
        <time>2021-05-02T08:54:43.000Z</time>
      </trkpt>
      <trkpt lat="43.50302" lon="6.35252">
        <ele>310.2</ele>
        <time>2021-05-02T08:54:49.000Z</time>
      </trkpt>
      <trkpt lat="43.50293" lon="6.35252">
        <ele>310.2</ele>
        <time>2021-05-02T08:54:55.000Z</time>
      </trkpt>
      <trkpt lat="43.50283" lon="6.35251">
        <ele>309.4</ele>
        <time>2021-05-02T08:55:02.000Z</time>
      </trkpt>
      <trkpt lat="43.50273" lon="6.35252">
        <ele>310.1</ele>
        <time>2021-05-02T08:55:09.000Z</time>
      </trkpt>
      <trkpt lat="43.50264" lon="6.35252">
        <ele>309.2</ele>
        <time>2021-05-02T08:55:15.000Z</time>
      </trkpt>
      <trkpt lat="43.50255" lon="6.35251">
        <ele>308.2</ele>
        <time>2021-05-02T08:55:23.000Z</time>
      </trkpt>
      <trkpt lat="43.50245" lon="6.35252">
        <ele>307.2</ele>
        <time>2021-05-02T08:55:32.000Z</time>
      </trkpt>
      <trkpt lat="43.50239" lon="6.35261">
        <ele>305.4</ele>
        <time>2021-05-02T08:55:40.000Z</time>
      </trkpt>
      <trkpt lat="43.50238" lon="6.35274">
        <ele>304.7</ele>
        <time>2021-05-02T08:55:48.000Z</time>
      </trkpt>
      <trkpt lat="43.50238" lon="6.35287">
        <ele>304.3</ele>
        <time>2021-05-02T08:55:56.000Z</time>
      </trkpt>
      <trkpt lat="43.50238" lon="6.353">
        <ele>304.5</ele>
        <time>2021-05-02T08:56:04.000Z</time>
      </trkpt>
      <trkpt lat="43.50236" lon="6.35314">
        <ele>304.5</ele>
        <time>2021-05-02T08:56:13.000Z</time>
      </trkpt>
      <trkpt lat="43.50235" lon="6.35327">
        <ele>305.2</ele>
        <time>2021-05-02T08:56:22.000Z</time>
      </trkpt>
      <trkpt lat="43.50234" lon="6.3534">
        <ele>305.6</ele>
        <time>2021-05-02T08:56:32.000Z</time>
      </trkpt>
      <trkpt lat="43.50234" lon="6.35354">
        <ele>306</ele>
        <time>2021-05-02T08:56:43.000Z</time>
      </trkpt>
      <trkpt lat="43.50234" lon="6.35367">
        <ele>306.5</ele>
        <time>2021-05-02T08:56:51.000Z</time>
      </trkpt>
      <trkpt lat="43.50233" lon="6.3538">
        <ele>307.1</ele>
        <time>2021-05-02T08:57:00.000Z</time>
      </trkpt>
      <trkpt lat="43.50231" lon="6.35393">
        <ele>307.4</ele>
        <time>2021-05-02T08:57:08.000Z</time>
      </trkpt>
      <trkpt lat="43.50229" lon="6.35405">
        <ele>306.7</ele>
        <time>2021-05-02T08:57:18.000Z</time>
      </trkpt>
      <trkpt lat="43.50228" lon="6.35418">
        <ele>307.4</ele>
        <time>2021-05-02T08:57:27.000Z</time>
      </trkpt>
      <trkpt lat="43.5023" lon="6.35431">
        <ele>308.3</ele>
        <time>2021-05-02T08:57:34.000Z</time>
      </trkpt>
      <trkpt lat="43.50231" lon="6.35444">
        <ele>309.1</ele>
        <time>2021-05-02T08:57:42.000Z</time>
      </trkpt>
      <trkpt lat="43.50232" lon="6.35457">
        <ele>309.1</ele>
        <time>2021-05-02T08:57:50.000Z</time>
      </trkpt>
      <trkpt lat="43.50235" lon="6.35469">
        <ele>308.6</ele>
        <time>2021-05-02T08:57:58.000Z</time>
      </trkpt>
      <trkpt lat="43.50238" lon="6.35481">
        <ele>309.4</ele>
        <time>2021-05-02T08:58:06.000Z</time>
      </trkpt>
      <trkpt lat="43.50241" lon="6.35493">
        <ele>309.6</ele>
        <time>2021-05-02T08:58:13.000Z</time>
      </trkpt>
      <trkpt lat="43.50244" lon="6.35506">
        <ele>309.7</ele>
        <time>2021-05-02T08:58:20.000Z</time>
      </trkpt>
      <trkpt lat="43.50244" lon="6.35519">
        <ele>309.6</ele>
        <time>2021-05-02T08:58:29.000Z</time>
      </trkpt>
      <trkpt lat="43.50246" lon="6.35532">
        <ele>309.5</ele>
        <time>2021-05-02T08:58:39.000Z</time>
      </trkpt>
      <trkpt lat="43.50246" lon="6.35533">
        <ele>309.3</ele>
        <time>2021-05-02T08:58:45.000Z</time>
      </trkpt>
      <trkpt lat="43.50245" lon="6.35533">
        <ele>309.9</ele>
        <time>2021-05-02T08:58:50.000Z</time>
      </trkpt>
      <trkpt lat="43.50245" lon="6.35533">
        <ele>310.1</ele>
        <time>2021-05-02T08:58:52.000Z</time>
      </trkpt>
      <trkpt lat="43.50245" lon="6.35534">
        <ele>309.8</ele>
        <time>2021-05-02T08:59:03.000Z</time>
      </trkpt>
      <trkpt lat="43.50244" lon="6.35534">
        <ele>309.6</ele>
        <time>2021-05-02T08:59:06.000Z</time>
      </trkpt>
      <trkpt lat="43.50244" lon="6.35535">
        <ele>310.3</ele>
        <time>2021-05-02T08:59:18.000Z</time>
      </trkpt>
      <trkpt lat="43.50244" lon="6.35535">
        <ele>310.2</ele>
        <time>2021-05-02T08:59:19.000Z</time>
      </trkpt>
      <trkpt lat="43.50245" lon="6.35535">
        <ele>310</ele>
        <time>2021-05-02T08:59:20.000Z</time>
      </trkpt>
      <trkpt lat="43.50244" lon="6.35533">
        <ele>309.9</ele>
        <time>2021-05-02T08:59:24.000Z</time>
      </trkpt>
      <trkpt lat="43.50244" lon="6.35533">
        <ele>309.7</ele>
        <time>2021-05-02T08:59:26.000Z</time>
      </trkpt>
      <trkpt lat="43.50244" lon="6.35533">
        <ele>309.7</ele>
        <time>2021-05-02T08:59:27.000Z</time>
      </trkpt>
      <trkpt lat="43.50244" lon="6.35533">
        <ele>309.8</ele>
        <time>2021-05-02T08:59:44.000Z</time>
      </trkpt>
      <trkpt lat="43.50244" lon="6.35533">
        <ele>309.6</ele>
        <time>2021-05-02T08:59:45.000Z</time>
      </trkpt>
      <trkpt lat="43.50244" lon="6.35534">
        <ele>309.4</ele>
        <time>2021-05-02T08:59:46.000Z</time>
      </trkpt>
      <trkpt lat="43.50243" lon="6.35533">
        <ele>309.4</ele>
        <time>2021-05-02T08:59:49.000Z</time>
      </trkpt>
      <trkpt lat="43.50243" lon="6.35533">
        <ele>309.3</ele>
        <time>2021-05-02T09:00:04.000Z</time>
      </trkpt>
      <trkpt lat="43.50243" lon="6.35533">
        <ele>309.4</ele>
        <time>2021-05-02T09:00:05.000Z</time>
      </trkpt>
      <trkpt lat="43.50243" lon="6.35533">
        <ele>309.6</ele>
        <time>2021-05-02T09:00:41.000Z</time>
      </trkpt>
      <trkpt lat="43.50243" lon="6.35532">
        <ele>309.6</ele>
        <time>2021-05-02T09:00:47.000Z</time>
      </trkpt>
      <trkpt lat="43.50242" lon="6.35532">
        <ele>309.3</ele>
        <time>2021-05-02T09:00:56.000Z</time>
      </trkpt>
      <trkpt lat="43.50243" lon="6.35532">
        <ele>309.4</ele>
        <time>2021-05-02T09:00:58.000Z</time>
      </trkpt>
      <trkpt lat="43.50243" lon="6.35531">
        <ele>309.6</ele>
        <time>2021-05-02T09:01:03.000Z</time>
      </trkpt>
      <trkpt lat="43.50243" lon="6.35531">
        <ele>309.5</ele>
        <time>2021-05-02T09:01:04.000Z</time>
      </trkpt>
      <trkpt lat="43.50244" lon="6.35531">
        <ele>309.8</ele>
        <time>2021-05-02T09:01:11.000Z</time>
      </trkpt>
      <trkpt lat="43.50244" lon="6.3553">
        <ele>309.7</ele>
        <time>2021-05-02T09:01:14.000Z</time>
      </trkpt>
      <trkpt lat="43.50244" lon="6.3553">
        <ele>309.8</ele>
        <time>2021-05-02T09:01:20.000Z</time>
      </trkpt>
      <trkpt lat="43.50244" lon="6.35531">
        <ele>310</ele>
        <time>2021-05-02T09:01:25.000Z</time>
      </trkpt>
      <trkpt lat="43.50244" lon="6.35531">
        <ele>309.6</ele>
        <time>2021-05-02T09:01:39.000Z</time>
      </trkpt>
      <trkpt lat="43.50244" lon="6.35531">
        <ele>309.6</ele>
        <time>2021-05-02T09:01:40.000Z</time>
      </trkpt>
      <trkpt lat="43.50244" lon="6.35531">
        <ele>309.4</ele>
        <time>2021-05-02T09:01:49.000Z</time>
      </trkpt>
      <trkpt lat="43.50249" lon="6.35543">
        <ele>309.7</ele>
        <time>2021-05-02T09:01:59.000Z</time>
      </trkpt>
      <trkpt lat="43.50252" lon="6.35556">
        <ele>309.9</ele>
        <time>2021-05-02T09:02:08.000Z</time>
      </trkpt>
      <trkpt lat="43.50252" lon="6.35558">
        <ele>310</ele>
        <time>2021-05-02T09:02:11.000Z</time>
      </trkpt>
      <trkpt lat="43.50252" lon="6.35558">
        <ele>310.1</ele>
        <time>2021-05-02T09:02:25.000Z</time>
      </trkpt>
      <trkpt lat="43.50252" lon="6.35558">
        <ele>310.1</ele>
        <time>2021-05-02T09:02:26.000Z</time>
      </trkpt>
      <trkpt lat="43.50252" lon="6.35558">
        <ele>310.1</ele>
        <time>2021-05-02T09:02:28.000Z</time>
      </trkpt>
      <trkpt lat="43.50253" lon="6.35563">
        <ele>309.9</ele>
        <time>2021-05-02T09:02:36.000Z</time>
      </trkpt>
      <trkpt lat="43.50253" lon="6.35563">
        <ele>309.1</ele>
        <time>2021-05-02T09:02:43.000Z</time>
      </trkpt>
      <trkpt lat="43.50253" lon="6.35563">
        <ele>309.2</ele>
        <time>2021-05-02T09:02:44.000Z</time>
      </trkpt>
      <trkpt lat="43.50253" lon="6.35563">
        <ele>309.4</ele>
        <time>2021-05-02T09:02:47.000Z</time>
      </trkpt>
      <trkpt lat="43.50253" lon="6.35567">
        <ele>310.4</ele>
        <time>2021-05-02T09:02:53.000Z</time>
      </trkpt>
      <trkpt lat="43.50253" lon="6.35567">
        <ele>311</ele>
        <time>2021-05-02T09:02:55.000Z</time>
      </trkpt>
      <trkpt lat="43.50254" lon="6.35565">
        <ele>311.2</ele>
        <time>2021-05-02T09:02:58.000Z</time>
      </trkpt>
      <trkpt lat="43.50254" lon="6.35566">
        <ele>309.8</ele>
        <time>2021-05-02T09:03:07.000Z</time>
      </trkpt>
      <trkpt lat="43.50254" lon="6.35567">
        <ele>310</ele>
        <time>2021-05-02T09:03:11.000Z</time>
      </trkpt>
      <trkpt lat="43.50254" lon="6.35567">
        <ele>310.1</ele>
        <time>2021-05-02T09:03:41.000Z</time>
      </trkpt>
      <trkpt lat="43.50254" lon="6.35567">
        <ele>310.1</ele>
        <time>2021-05-02T09:03:42.000Z</time>
      </trkpt>
      <trkpt lat="43.50254" lon="6.35567">
        <ele>310.1</ele>
        <time>2021-05-02T09:03:43.000Z</time>
      </trkpt>
      <trkpt lat="43.50254" lon="6.35567">
        <ele>310</ele>
        <time>2021-05-02T09:03:44.000Z</time>
      </trkpt>
      <trkpt lat="43.50255" lon="6.35568">
        <ele>309.7</ele>
        <time>2021-05-02T09:03:46.000Z</time>
      </trkpt>
      <trkpt lat="43.50255" lon="6.35568">
        <ele>309.6</ele>
        <time>2021-05-02T09:03:47.000Z</time>
      </trkpt>
      <trkpt lat="43.50255" lon="6.35568">
        <ele>309.4</ele>
        <time>2021-05-02T09:03:51.000Z</time>
      </trkpt>
      <trkpt lat="43.50257" lon="6.35579">
        <ele>308.9</ele>
        <time>2021-05-02T09:04:10.000Z</time>
      </trkpt>
      <trkpt lat="43.50257" lon="6.35579">
        <ele>308.6</ele>
        <time>2021-05-02T09:04:39.000Z</time>
      </trkpt>
      <trkpt lat="43.50256" lon="6.35578">
        <ele>309.2</ele>
        <time>2021-05-02T09:04:43.000Z</time>
      </trkpt>
      <trkpt lat="43.50256" lon="6.35578">
        <ele>309.1</ele>
        <time>2021-05-02T09:04:52.000Z</time>
      </trkpt>
      <trkpt lat="43.50256" lon="6.35578">
        <ele>308.9</ele>
        <time>2021-05-02T09:04:55.000Z</time>
      </trkpt>
      <trkpt lat="43.50256" lon="6.35578">
        <ele>308.8</ele>
        <time>2021-05-02T09:04:56.000Z</time>
      </trkpt>
      <trkpt lat="43.50257" lon="6.35578">
        <ele>309</ele>
        <time>2021-05-02T09:05:01.000Z</time>
      </trkpt>
      <trkpt lat="43.50256" lon="6.35578">
        <ele>308.8</ele>
        <time>2021-05-02T09:05:03.000Z</time>
      </trkpt>
      <trkpt lat="43.50257" lon="6.35579">
        <ele>309.1</ele>
        <time>2021-05-02T09:05:09.000Z</time>
      </trkpt>
      <trkpt lat="43.50257" lon="6.35579">
        <ele>309</ele>
        <time>2021-05-02T09:05:10.000Z</time>
      </trkpt>
      <trkpt lat="43.50258" lon="6.35579">
        <ele>309.1</ele>
        <time>2021-05-02T09:05:16.000Z</time>
      </trkpt>
      <trkpt lat="43.50258" lon="6.35579">
        <ele>309.1</ele>
        <time>2021-05-02T09:05:25.000Z</time>
      </trkpt>
      <trkpt lat="43.50259" lon="6.35577">
        <ele>308.7</ele>
        <time>2021-05-02T09:05:30.000Z</time>
      </trkpt>
      <trkpt lat="43.50259" lon="6.35577">
        <ele>308.7</ele>
        <time>2021-05-02T09:05:38.000Z</time>
      </trkpt>
      <trkpt lat="43.50258" lon="6.3559">
        <ele>308.5</ele>
        <time>2021-05-02T09:05:53.000Z</time>
      </trkpt>
      <trkpt lat="43.50261" lon="6.35602">
        <ele>308.3</ele>
        <time>2021-05-02T09:06:00.000Z</time>
      </trkpt>
      <trkpt lat="43.50263" lon="6.35611">
        <ele>307.5</ele>
        <time>2021-05-02T09:06:10.000Z</time>
      </trkpt>
      <trkpt lat="43.50263" lon="6.35611">
        <ele>307.4</ele>
        <time>2021-05-02T09:06:19.000Z</time>
      </trkpt>
      <trkpt lat="43.50269" lon="6.35622">
        <ele>307.1</ele>
        <time>2021-05-02T09:06:28.000Z</time>
      </trkpt>
      <trkpt lat="43.50271" lon="6.35629">
        <ele>306.6</ele>
        <time>2021-05-02T09:06:35.000Z</time>
      </trkpt>
      <trkpt lat="43.50271" lon="6.35628">
        <ele>307</ele>
        <time>2021-05-02T09:06:47.000Z</time>
      </trkpt>
      <trkpt lat="43.50267" lon="6.35626">
        <ele>306.9</ele>
        <time>2021-05-02T09:06:59.000Z</time>
      </trkpt>
      <trkpt lat="43.50268" lon="6.35626">
        <ele>306.7</ele>
        <time>2021-05-02T09:07:01.000Z</time>
      </trkpt>
      <trkpt lat="43.50271" lon="6.35638">
        <ele>305</ele>
        <time>2021-05-02T09:07:17.000Z</time>
      </trkpt>
      <trkpt lat="43.50267" lon="6.35651">
        <ele>304.4</ele>
        <time>2021-05-02T09:07:26.000Z</time>
      </trkpt>
      <trkpt lat="43.5027" lon="6.35663">
        <ele>303.8</ele>
        <time>2021-05-02T09:07:35.000Z</time>
      </trkpt>
      <trkpt lat="43.50276" lon="6.35674">
        <ele>302.8</ele>
        <time>2021-05-02T09:07:43.000Z</time>
      </trkpt>
      <trkpt lat="43.50282" lon="6.35685">
        <ele>302.7</ele>
        <time>2021-05-02T09:07:50.000Z</time>
      </trkpt>
      <trkpt lat="43.50287" lon="6.35698">
        <ele>302.1</ele>
        <time>2021-05-02T09:07:58.000Z</time>
      </trkpt>
      <trkpt lat="43.50293" lon="6.35707">
        <ele>301.3</ele>
        <time>2021-05-02T09:08:07.000Z</time>
      </trkpt>
      <trkpt lat="43.50301" lon="6.35715">
        <ele>301.1</ele>
        <time>2021-05-02T09:08:15.000Z</time>
      </trkpt>
      <trkpt lat="43.50307" lon="6.35724">
        <ele>300.7</ele>
        <time>2021-05-02T09:08:22.000Z</time>
      </trkpt>
      <trkpt lat="43.50315" lon="6.35729">
        <ele>300.5</ele>
        <time>2021-05-02T09:08:30.000Z</time>
      </trkpt>
      <trkpt lat="43.50325" lon="6.35729">
        <ele>301</ele>
        <time>2021-05-02T09:08:38.000Z</time>
      </trkpt>
      <trkpt lat="43.50335" lon="6.35727">
        <ele>300.9</ele>
        <time>2021-05-02T09:08:46.000Z</time>
      </trkpt>
      <trkpt lat="43.50344" lon="6.35725">
        <ele>301.1</ele>
        <time>2021-05-02T09:08:54.000Z</time>
      </trkpt>
      <trkpt lat="43.50353" lon="6.35721">
        <ele>301.2</ele>
        <time>2021-05-02T09:09:03.000Z</time>
      </trkpt>
      <trkpt lat="43.50362" lon="6.35717">
        <ele>301.2</ele>
        <time>2021-05-02T09:09:11.000Z</time>
      </trkpt>
      <trkpt lat="43.50372" lon="6.35719">
        <ele>301.1</ele>
        <time>2021-05-02T09:09:20.000Z</time>
      </trkpt>
      <trkpt lat="43.50381" lon="6.35717">
        <ele>300.9</ele>
        <time>2021-05-02T09:09:28.000Z</time>
      </trkpt>
      <trkpt lat="43.50391" lon="6.35715">
        <ele>300.3</ele>
        <time>2021-05-02T09:09:38.000Z</time>
      </trkpt>
      <trkpt lat="43.50396" lon="6.35717">
        <ele>299.7</ele>
        <time>2021-05-02T09:09:48.000Z</time>
      </trkpt>
      <trkpt lat="43.50396" lon="6.35717">
        <ele>299.5</ele>
        <time>2021-05-02T09:09:50.000Z</time>
      </trkpt>
      <trkpt lat="43.5039" lon="6.35722">
        <ele>299</ele>
        <time>2021-05-02T09:10:03.000Z</time>
      </trkpt>
      <trkpt lat="43.5039" lon="6.35722">
        <ele>299.3</ele>
        <time>2021-05-02T09:10:09.000Z</time>
      </trkpt>
      <trkpt lat="43.50382" lon="6.35728">
        <ele>298.8</ele>
        <time>2021-05-02T09:10:20.000Z</time>
      </trkpt>
      <trkpt lat="43.50376" lon="6.35738">
        <ele>297.8</ele>
        <time>2021-05-02T09:10:31.000Z</time>
      </trkpt>
      <trkpt lat="43.5037" lon="6.35749">
        <ele>297.1</ele>
        <time>2021-05-02T09:10:39.000Z</time>
      </trkpt>
      <trkpt lat="43.50364" lon="6.35759">
        <ele>296</ele>
        <time>2021-05-02T09:10:48.000Z</time>
      </trkpt>
      <trkpt lat="43.50358" lon="6.35769">
        <ele>294.8</ele>
        <time>2021-05-02T09:10:56.000Z</time>
      </trkpt>
      <trkpt lat="43.50357" lon="6.35781">
        <ele>294.3</ele>
        <time>2021-05-02T09:11:04.000Z</time>
      </trkpt>
      <trkpt lat="43.50357" lon="6.35781">
        <ele>294</ele>
        <time>2021-05-02T09:11:06.000Z</time>
      </trkpt>
      <trkpt lat="43.50349" lon="6.35789">
        <ele>292.4</ele>
        <time>2021-05-02T09:11:17.000Z</time>
      </trkpt>
      <trkpt lat="43.50343" lon="6.35799">
        <ele>292.1</ele>
        <time>2021-05-02T09:11:24.000Z</time>
      </trkpt>
      <trkpt lat="43.50334" lon="6.35803">
        <ele>291.6</ele>
        <time>2021-05-02T09:11:33.000Z</time>
      </trkpt>
      <trkpt lat="43.50325" lon="6.35806">
        <ele>290.7</ele>
        <time>2021-05-02T09:11:45.000Z</time>
      </trkpt>
      <trkpt lat="43.50316" lon="6.35809">
        <ele>289.5</ele>
        <time>2021-05-02T09:11:55.000Z</time>
      </trkpt>
      <trkpt lat="43.50318" lon="6.35811">
        <ele>289.3</ele>
        <time>2021-05-02T09:11:58.000Z</time>
      </trkpt>
      <trkpt lat="43.50318" lon="6.35811">
        <ele>288.8</ele>
        <time>2021-05-02T09:12:01.000Z</time>
      </trkpt>
      <trkpt lat="43.50309" lon="6.35815">
        <ele>287.6</ele>
        <time>2021-05-02T09:12:11.000Z</time>
      </trkpt>
      <trkpt lat="43.503" lon="6.3582">
        <ele>287.7</ele>
        <time>2021-05-02T09:12:20.000Z</time>
      </trkpt>
      <trkpt lat="43.503" lon="6.35819">
        <ele>287.4</ele>
        <time>2021-05-02T09:12:22.000Z</time>
      </trkpt>
      <trkpt lat="43.503" lon="6.35819">
        <ele>287.2</ele>
        <time>2021-05-02T09:12:26.000Z</time>
      </trkpt>
      <trkpt lat="43.503" lon="6.35819">
        <ele>287</ele>
        <time>2021-05-02T09:12:29.000Z</time>
      </trkpt>
      <trkpt lat="43.503" lon="6.35819">
        <ele>286.9</ele>
        <time>2021-05-02T09:12:30.000Z</time>
      </trkpt>
      <trkpt lat="43.5029" lon="6.3582">
        <ele>285.7</ele>
        <time>2021-05-02T09:12:39.000Z</time>
      </trkpt>
      <trkpt lat="43.5028" lon="6.35822">
        <ele>284.4</ele>
        <time>2021-05-02T09:12:48.000Z</time>
      </trkpt>
      <trkpt lat="43.50272" lon="6.35827">
        <ele>283</ele>
        <time>2021-05-02T09:12:55.000Z</time>
      </trkpt>
      <trkpt lat="43.50264" lon="6.35835">
        <ele>281.2</ele>
        <time>2021-05-02T09:13:04.000Z</time>
      </trkpt>
      <trkpt lat="43.50258" lon="6.35845">
        <ele>281.1</ele>
        <time>2021-05-02T09:13:12.000Z</time>
      </trkpt>
      <trkpt lat="43.50254" lon="6.35857">
        <ele>279.5</ele>
        <time>2021-05-02T09:13:21.000Z</time>
      </trkpt>
      <trkpt lat="43.50245" lon="6.3586">
        <ele>278.4</ele>
        <time>2021-05-02T09:13:31.000Z</time>
      </trkpt>
      <trkpt lat="43.50235" lon="6.35864">
        <ele>276.3</ele>
        <time>2021-05-02T09:13:40.000Z</time>
      </trkpt>
      <trkpt lat="43.50226" lon="6.35869">
        <ele>274.9</ele>
        <time>2021-05-02T09:13:49.000Z</time>
      </trkpt>
      <trkpt lat="43.50217" lon="6.35874">
        <ele>273.9</ele>
        <time>2021-05-02T09:13:58.000Z</time>
      </trkpt>
      <trkpt lat="43.50209" lon="6.35879">
        <ele>273.2</ele>
        <time>2021-05-02T09:14:06.000Z</time>
      </trkpt>
      <trkpt lat="43.50201" lon="6.35887">
        <ele>272.5</ele>
        <time>2021-05-02T09:14:15.000Z</time>
      </trkpt>
      <trkpt lat="43.50194" lon="6.35897">
        <ele>272</ele>
        <time>2021-05-02T09:14:24.000Z</time>
      </trkpt>
      <trkpt lat="43.50187" lon="6.35906">
        <ele>271.3</ele>
        <time>2021-05-02T09:14:33.000Z</time>
      </trkpt>
      <trkpt lat="43.50179" lon="6.35914">
        <ele>270.9</ele>
        <time>2021-05-02T09:14:41.000Z</time>
      </trkpt>
      <trkpt lat="43.50171" lon="6.35922">
        <ele>270.1</ele>
        <time>2021-05-02T09:14:49.000Z</time>
      </trkpt>
      <trkpt lat="43.50165" lon="6.35931">
        <ele>269.5</ele>
        <time>2021-05-02T09:14:57.000Z</time>
      </trkpt>
      <trkpt lat="43.50157" lon="6.35939">
        <ele>268.6</ele>
        <time>2021-05-02T09:15:06.000Z</time>
      </trkpt>
      <trkpt lat="43.50148" lon="6.35945">
        <ele>267.2</ele>
        <time>2021-05-02T09:15:16.000Z</time>
      </trkpt>
      <trkpt lat="43.50139" lon="6.3595">
        <ele>265.4</ele>
        <time>2021-05-02T09:15:25.000Z</time>
      </trkpt>
      <trkpt lat="43.50131" lon="6.35953">
        <ele>264</ele>
        <time>2021-05-02T09:15:35.000Z</time>
      </trkpt>
      <trkpt lat="43.50131" lon="6.35953">
        <ele>264.1</ele>
        <time>2021-05-02T09:15:36.000Z</time>
      </trkpt>
      <trkpt lat="43.50132" lon="6.35952">
        <ele>264.4</ele>
        <time>2021-05-02T09:15:40.000Z</time>
      </trkpt>
      <trkpt lat="43.50133" lon="6.35952">
        <ele>264.2</ele>
        <time>2021-05-02T09:15:41.000Z</time>
      </trkpt>
      <trkpt lat="43.50133" lon="6.35952">
        <ele>264.2</ele>
        <time>2021-05-02T09:15:42.000Z</time>
      </trkpt>
      <trkpt lat="43.50132" lon="6.35951">
        <ele>264.3</ele>
        <time>2021-05-02T09:16:10.000Z</time>
      </trkpt>
      <trkpt lat="43.50133" lon="6.35953">
        <ele>264</ele>
        <time>2021-05-02T09:16:15.000Z</time>
      </trkpt>
      <trkpt lat="43.50132" lon="6.35953">
        <ele>264.1</ele>
        <time>2021-05-02T09:16:31.000Z</time>
      </trkpt>
      <trkpt lat="43.50123" lon="6.35957">
        <ele>263.1</ele>
        <time>2021-05-02T09:16:39.000Z</time>
      </trkpt>
      <trkpt lat="43.50114" lon="6.35962">
        <ele>261.2</ele>
        <time>2021-05-02T09:16:49.000Z</time>
      </trkpt>
      <trkpt lat="43.50105" lon="6.35968">
        <ele>260.2</ele>
        <time>2021-05-02T09:16:58.000Z</time>
      </trkpt>
      <trkpt lat="43.50097" lon="6.35975">
        <ele>259</ele>
        <time>2021-05-02T09:17:08.000Z</time>
      </trkpt>
      <trkpt lat="43.50088" lon="6.35981">
        <ele>258</ele>
        <time>2021-05-02T09:17:21.000Z</time>
      </trkpt>
      <trkpt lat="43.50081" lon="6.35989">
        <ele>257.4</ele>
        <time>2021-05-02T09:17:31.000Z</time>
      </trkpt>
      <trkpt lat="43.50072" lon="6.35996">
        <ele>256.5</ele>
        <time>2021-05-02T09:17:40.000Z</time>
      </trkpt>
      <trkpt lat="43.50065" lon="6.36003">
        <ele>257.1</ele>
        <time>2021-05-02T09:17:49.000Z</time>
      </trkpt>
      <trkpt lat="43.50056" lon="6.36007">
        <ele>254.9</ele>
        <time>2021-05-02T09:17:58.000Z</time>
      </trkpt>
      <trkpt lat="43.50047" lon="6.3601">
        <ele>253.7</ele>
        <time>2021-05-02T09:18:06.000Z</time>
      </trkpt>
      <trkpt lat="43.50038" lon="6.36012">
        <ele>254</ele>
        <time>2021-05-02T09:18:14.000Z</time>
      </trkpt>
      <trkpt lat="43.50029" lon="6.36015">
        <ele>253.6</ele>
        <time>2021-05-02T09:18:23.000Z</time>
      </trkpt>
      <trkpt lat="43.5002" lon="6.36019">
        <ele>253.2</ele>
        <time>2021-05-02T09:18:32.000Z</time>
      </trkpt>
      <trkpt lat="43.50011" lon="6.36023">
        <ele>252.6</ele>
        <time>2021-05-02T09:18:41.000Z</time>
      </trkpt>
      <trkpt lat="43.50002" lon="6.36025">
        <ele>251.9</ele>
        <time>2021-05-02T09:18:50.000Z</time>
      </trkpt>
      <trkpt lat="43.49992" lon="6.36023">
        <ele>251.6</ele>
        <time>2021-05-02T09:18:58.000Z</time>
      </trkpt>
      <trkpt lat="43.49983" lon="6.36021">
        <ele>250.4</ele>
        <time>2021-05-02T09:19:06.000Z</time>
      </trkpt>
      <trkpt lat="43.49974" lon="6.36021">
        <ele>249.8</ele>
        <time>2021-05-02T09:19:15.000Z</time>
      </trkpt>
      <trkpt lat="43.49964" lon="6.36022">
        <ele>250.2</ele>
        <time>2021-05-02T09:19:24.000Z</time>
      </trkpt>
      <trkpt lat="43.49955" lon="6.36027">
        <ele>250.5</ele>
        <time>2021-05-02T09:19:32.000Z</time>
      </trkpt>
      <trkpt lat="43.49946" lon="6.36033">
        <ele>250.3</ele>
        <time>2021-05-02T09:19:41.000Z</time>
      </trkpt>
      <trkpt lat="43.49937" lon="6.36036">
        <ele>250.1</ele>
        <time>2021-05-02T09:19:49.000Z</time>
      </trkpt>
      <trkpt lat="43.49928" lon="6.36038">
        <ele>249.8</ele>
        <time>2021-05-02T09:19:58.000Z</time>
      </trkpt>
      <trkpt lat="43.49919" lon="6.36039">
        <ele>248.8</ele>
        <time>2021-05-02T09:20:07.000Z</time>
      </trkpt>
      <trkpt lat="43.4991" lon="6.36041">
        <ele>248.4</ele>
        <time>2021-05-02T09:20:16.000Z</time>
      </trkpt>
      <trkpt lat="43.499" lon="6.36043">
        <ele>248.2</ele>
        <time>2021-05-02T09:20:25.000Z</time>
      </trkpt>
      <trkpt lat="43.49891" lon="6.36045">
        <ele>247.7</ele>
        <time>2021-05-02T09:20:35.000Z</time>
      </trkpt>
      <trkpt lat="43.49882" lon="6.36049">
        <ele>247.1</ele>
        <time>2021-05-02T09:20:42.000Z</time>
      </trkpt>
      <trkpt lat="43.49872" lon="6.36049">
        <ele>246.6</ele>
        <time>2021-05-02T09:20:51.000Z</time>
      </trkpt>
      <trkpt lat="43.49863" lon="6.36046">
        <ele>245.9</ele>
        <time>2021-05-02T09:21:00.000Z</time>
      </trkpt>
      <trkpt lat="43.49856" lon="6.36037">
        <ele>246</ele>
        <time>2021-05-02T09:21:09.000Z</time>
      </trkpt>
      <trkpt lat="43.4985" lon="6.36027">
        <ele>245.9</ele>
        <time>2021-05-02T09:21:17.000Z</time>
      </trkpt>
      <trkpt lat="43.49841" lon="6.3602">
        <ele>244.9</ele>
        <time>2021-05-02T09:21:26.000Z</time>
      </trkpt>
      <trkpt lat="43.49833" lon="6.36016">
        <ele>244.2</ele>
        <time>2021-05-02T09:21:34.000Z</time>
      </trkpt>
      <trkpt lat="43.49824" lon="6.36012">
        <ele>244.4</ele>
        <time>2021-05-02T09:21:40.000Z</time>
      </trkpt>
      <trkpt lat="43.49814" lon="6.36012">
        <ele>244.3</ele>
        <time>2021-05-02T09:21:48.000Z</time>
      </trkpt>
      <trkpt lat="43.49807" lon="6.36008">
        <ele>243.8</ele>
        <time>2021-05-02T09:21:57.000Z</time>
      </trkpt>
      <trkpt lat="43.49807" lon="6.36007">
        <ele>243.9</ele>
        <time>2021-05-02T09:21:58.000Z</time>
      </trkpt>
      <trkpt lat="43.49798" lon="6.36008">
        <ele>244.1</ele>
        <time>2021-05-02T09:22:06.000Z</time>
      </trkpt>
      <trkpt lat="43.49788" lon="6.3601">
        <ele>244.9</ele>
        <time>2021-05-02T09:22:13.000Z</time>
      </trkpt>
      <trkpt lat="43.4978" lon="6.36016">
        <ele>244.5</ele>
        <time>2021-05-02T09:22:21.000Z</time>
      </trkpt>
      <trkpt lat="43.49771" lon="6.36022">
        <ele>244.5</ele>
        <time>2021-05-02T09:22:29.000Z</time>
      </trkpt>
      <trkpt lat="43.49763" lon="6.3603">
        <ele>244.7</ele>
        <time>2021-05-02T09:22:37.000Z</time>
      </trkpt>
      <trkpt lat="43.49756" lon="6.3604">
        <ele>243.9</ele>
        <time>2021-05-02T09:22:47.000Z</time>
      </trkpt>
      <trkpt lat="43.49749" lon="6.36048">
        <ele>243.8</ele>
        <time>2021-05-02T09:22:54.000Z</time>
      </trkpt>
      <trkpt lat="43.49741" lon="6.36055">
        <ele>243.6</ele>
        <time>2021-05-02T09:23:02.000Z</time>
      </trkpt>
      <trkpt lat="43.49733" lon="6.36062">
        <ele>242.9</ele>
        <time>2021-05-02T09:23:10.000Z</time>
      </trkpt>
      <trkpt lat="43.49725" lon="6.36072">
        <ele>242.4</ele>
        <time>2021-05-02T09:23:20.000Z</time>
      </trkpt>
      <trkpt lat="43.49717" lon="6.36078">
        <ele>242</ele>
        <time>2021-05-02T09:23:27.000Z</time>
      </trkpt>
      <trkpt lat="43.49709" lon="6.36084">
        <ele>241.8</ele>
        <time>2021-05-02T09:23:34.000Z</time>
      </trkpt>
      <trkpt lat="43.49702" lon="6.36094">
        <ele>241</ele>
        <time>2021-05-02T09:23:46.000Z</time>
      </trkpt>
      <trkpt lat="43.49693" lon="6.36099">
        <ele>240.9</ele>
        <time>2021-05-02T09:23:53.000Z</time>
      </trkpt>
      <trkpt lat="43.49686" lon="6.36105">
        <ele>240.6</ele>
        <time>2021-05-02T09:24:01.000Z</time>
      </trkpt>
      <trkpt lat="43.49679" lon="6.36115">
        <ele>239.7</ele>
        <time>2021-05-02T09:24:09.000Z</time>
      </trkpt>
      <trkpt lat="43.49674" lon="6.36125">
        <ele>238.4</ele>
        <time>2021-05-02T09:24:19.000Z</time>
      </trkpt>
      <trkpt lat="43.49669" lon="6.36136">
        <ele>238.3</ele>
        <time>2021-05-02T09:24:28.000Z</time>
      </trkpt>
      <trkpt lat="43.49661" lon="6.36145">
        <ele>237.5</ele>
        <time>2021-05-02T09:24:36.000Z</time>
      </trkpt>
      <trkpt lat="43.49654" lon="6.36153">
        <ele>236.2</ele>
        <time>2021-05-02T09:24:44.000Z</time>
      </trkpt>
      <trkpt lat="43.49647" lon="6.36162">
        <ele>235.1</ele>
        <time>2021-05-02T09:24:53.000Z</time>
      </trkpt>
      <trkpt lat="43.49641" lon="6.36174">
        <ele>234.5</ele>
        <time>2021-05-02T09:25:02.000Z</time>
      </trkpt>
      <trkpt lat="43.49637" lon="6.3618">
        <ele>234</ele>
        <time>2021-05-02T09:25:12.000Z</time>
      </trkpt>
      <trkpt lat="43.49637" lon="6.3618">
        <ele>234</ele>
        <time>2021-05-02T09:25:13.000Z</time>
      </trkpt>
      <trkpt lat="43.49631" lon="6.3619">
        <ele>233.6</ele>
        <time>2021-05-02T09:25:23.000Z</time>
      </trkpt>
      <trkpt lat="43.49625" lon="6.36201">
        <ele>232.8</ele>
        <time>2021-05-02T09:25:31.000Z</time>
      </trkpt>
      <trkpt lat="43.4962" lon="6.36212">
        <ele>232.4</ele>
        <time>2021-05-02T09:25:41.000Z</time>
      </trkpt>
      <trkpt lat="43.49615" lon="6.36224">
        <ele>229.8</ele>
        <time>2021-05-02T09:25:57.000Z</time>
      </trkpt>
      <trkpt lat="43.49608" lon="6.36233">
        <ele>229.5</ele>
        <time>2021-05-02T09:26:07.000Z</time>
      </trkpt>
      <trkpt lat="43.49602" lon="6.36238">
        <ele>228.8</ele>
        <time>2021-05-02T09:26:19.000Z</time>
      </trkpt>
      <trkpt lat="43.49601" lon="6.36238">
        <ele>229.5</ele>
        <time>2021-05-02T09:26:22.000Z</time>
      </trkpt>
      <trkpt lat="43.49592" lon="6.36242">
        <ele>228.8</ele>
        <time>2021-05-02T09:26:32.000Z</time>
      </trkpt>
      <trkpt lat="43.49583" lon="6.36247">
        <ele>228.3</ele>
        <time>2021-05-02T09:26:41.000Z</time>
      </trkpt>
      <trkpt lat="43.49575" lon="6.36252">
        <ele>227.6</ele>
        <time>2021-05-02T09:26:50.000Z</time>
      </trkpt>
      <trkpt lat="43.49571" lon="6.36264">
        <ele>226.6</ele>
        <time>2021-05-02T09:26:58.000Z</time>
      </trkpt>
      <trkpt lat="43.49567" lon="6.36276">
        <ele>226.2</ele>
        <time>2021-05-02T09:27:06.000Z</time>
      </trkpt>
      <trkpt lat="43.49564" lon="6.36288">
        <ele>225.7</ele>
        <time>2021-05-02T09:27:15.000Z</time>
      </trkpt>
      <trkpt lat="43.49559" lon="6.36298">
        <ele>226.1</ele>
        <time>2021-05-02T09:27:24.000Z</time>
      </trkpt>
      <trkpt lat="43.49552" lon="6.36308">
        <ele>224.9</ele>
        <time>2021-05-02T09:27:33.000Z</time>
      </trkpt>
      <trkpt lat="43.49551" lon="6.3632">
        <ele>224.6</ele>
        <time>2021-05-02T09:27:43.000Z</time>
      </trkpt>
      <trkpt lat="43.49558" lon="6.36329">
        <ele>224.6</ele>
        <time>2021-05-02T09:27:53.000Z</time>
      </trkpt>
      <trkpt lat="43.49565" lon="6.36338">
        <ele>224.9</ele>
        <time>2021-05-02T09:28:02.000Z</time>
      </trkpt>
      <trkpt lat="43.4957" lon="6.36344">
        <ele>224.7</ele>
        <time>2021-05-02T09:28:20.000Z</time>
      </trkpt>
      <trkpt lat="43.4957" lon="6.36345">
        <ele>225</ele>
        <time>2021-05-02T09:28:26.000Z</time>
      </trkpt>
      <trkpt lat="43.49575" lon="6.36348">
        <ele>224.2</ele>
        <time>2021-05-02T09:28:35.000Z</time>
      </trkpt>
      <trkpt lat="43.49576" lon="6.36348">
        <ele>224.7</ele>
        <time>2021-05-02T09:28:40.000Z</time>
      </trkpt>
      <trkpt lat="43.49584" lon="6.36354">
        <ele>224.2</ele>
        <time>2021-05-02T09:28:50.000Z</time>
      </trkpt>
      <trkpt lat="43.49592" lon="6.36362">
        <ele>224.1</ele>
        <time>2021-05-02T09:28:58.000Z</time>
      </trkpt>
      <trkpt lat="43.49599" lon="6.3637">
        <ele>224.5</ele>
        <time>2021-05-02T09:29:06.000Z</time>
      </trkpt>
      <trkpt lat="43.49608" lon="6.36377">
        <ele>223.4</ele>
        <time>2021-05-02T09:29:14.000Z</time>
      </trkpt>
      <trkpt lat="43.49613" lon="6.36388">
        <ele>223.4</ele>
        <time>2021-05-02T09:29:22.000Z</time>
      </trkpt>
      <trkpt lat="43.4962" lon="6.36396">
        <ele>223.7</ele>
        <time>2021-05-02T09:29:30.000Z</time>
      </trkpt>
      <trkpt lat="43.49627" lon="6.36405">
        <ele>223.4</ele>
        <time>2021-05-02T09:29:38.000Z</time>
      </trkpt>
      <trkpt lat="43.49634" lon="6.36414">
        <ele>223.1</ele>
        <time>2021-05-02T09:29:47.000Z</time>
      </trkpt>
      <trkpt lat="43.49641" lon="6.36421">
        <ele>223.5</ele>
        <time>2021-05-02T09:29:56.000Z</time>
      </trkpt>
      <trkpt lat="43.49647" lon="6.36433">
        <ele>224</ele>
        <time>2021-05-02T09:30:06.000Z</time>
      </trkpt>
      <trkpt lat="43.49653" lon="6.36443">
        <ele>223.6</ele>
        <time>2021-05-02T09:30:14.000Z</time>
      </trkpt>
      <trkpt lat="43.49656" lon="6.36455">
        <ele>224</ele>
        <time>2021-05-02T09:30:22.000Z</time>
      </trkpt>
      <trkpt lat="43.49658" lon="6.36467">
        <ele>223.6</ele>
        <time>2021-05-02T09:30:30.000Z</time>
      </trkpt>
      <trkpt lat="43.49661" lon="6.3648">
        <ele>223.5</ele>
        <time>2021-05-02T09:30:39.000Z</time>
      </trkpt>
      <trkpt lat="43.49665" lon="6.36491">
        <ele>223.5</ele>
        <time>2021-05-02T09:30:48.000Z</time>
      </trkpt>
      <trkpt lat="43.49671" lon="6.36502">
        <ele>223.2</ele>
        <time>2021-05-02T09:30:59.000Z</time>
      </trkpt>
      <trkpt lat="43.49676" lon="6.36512">
        <ele>223.6</ele>
        <time>2021-05-02T09:31:08.000Z</time>
      </trkpt>
      <trkpt lat="43.49683" lon="6.36521">
        <ele>223.8</ele>
        <time>2021-05-02T09:31:18.000Z</time>
      </trkpt>
      <trkpt lat="43.49691" lon="6.36528">
        <ele>223.7</ele>
        <time>2021-05-02T09:31:28.000Z</time>
      </trkpt>
      <trkpt lat="43.49699" lon="6.36536">
        <ele>223</ele>
        <time>2021-05-02T09:31:37.000Z</time>
      </trkpt>
      <trkpt lat="43.49708" lon="6.3654">
        <ele>222.4</ele>
        <time>2021-05-02T09:31:46.000Z</time>
      </trkpt>
      <trkpt lat="43.49717" lon="6.36544">
        <ele>221.5</ele>
        <time>2021-05-02T09:31:55.000Z</time>
      </trkpt>
      <trkpt lat="43.49726" lon="6.3655">
        <ele>221</ele>
        <time>2021-05-02T09:32:04.000Z</time>
      </trkpt>
      <trkpt lat="43.49734" lon="6.36557">
        <ele>220.1</ele>
        <time>2021-05-02T09:32:16.000Z</time>
      </trkpt>
      <trkpt lat="43.49737" lon="6.36568">
        <ele>219.6</ele>
        <time>2021-05-02T09:32:46.000Z</time>
      </trkpt>
      <trkpt lat="43.49737" lon="6.36568">
        <ele>219.7</ele>
        <time>2021-05-02T09:32:47.000Z</time>
      </trkpt>
      <trkpt lat="43.49737" lon="6.36568">
        <ele>219.8</ele>
        <time>2021-05-02T09:32:53.000Z</time>
      </trkpt>
      <trkpt lat="43.49737" lon="6.36563">
        <ele>221</ele>
        <time>2021-05-02T09:34:14.000Z</time>
      </trkpt>
      <trkpt lat="43.49737" lon="6.36563">
        <ele>220.9</ele>
        <time>2021-05-02T09:34:15.000Z</time>
      </trkpt>
      <trkpt lat="43.49737" lon="6.36563">
        <ele>220.6</ele>
        <time>2021-05-02T09:34:16.000Z</time>
      </trkpt>
      <trkpt lat="43.49737" lon="6.36563">
        <ele>220.6</ele>
        <time>2021-05-02T09:34:17.000Z</time>
      </trkpt>
      <trkpt lat="43.49739" lon="6.36564">
        <ele>220.8</ele>
        <time>2021-05-02T09:34:39.000Z</time>
      </trkpt>
      <trkpt lat="43.49738" lon="6.36563">
        <ele>220.9</ele>
        <time>2021-05-02T09:34:40.000Z</time>
      </trkpt>
      <trkpt lat="43.49738" lon="6.36563">
        <ele>220.8</ele>
        <time>2021-05-02T09:34:41.000Z</time>
      </trkpt>
      <trkpt lat="43.49736" lon="6.36562">
        <ele>220.8</ele>
        <time>2021-05-02T09:35:36.000Z</time>
      </trkpt>
      <trkpt lat="43.49737" lon="6.36563">
        <ele>220.6</ele>
        <time>2021-05-02T09:35:37.000Z</time>
      </trkpt>
      <trkpt lat="43.49744" lon="6.3657">
        <ele>219.1</ele>
        <time>2021-05-02T09:35:46.000Z</time>
      </trkpt>
      <trkpt lat="43.49753" lon="6.36578">
        <ele>218.1</ele>
        <time>2021-05-02T09:35:53.000Z</time>
      </trkpt>
      <trkpt lat="43.49759" lon="6.36588">
        <ele>216.9</ele>
        <time>2021-05-02T09:36:01.000Z</time>
      </trkpt>
      <trkpt lat="43.49765" lon="6.36599">
        <ele>216.5</ele>
        <time>2021-05-02T09:36:11.000Z</time>
      </trkpt>
      <trkpt lat="43.4977" lon="6.3661">
        <ele>216.1</ele>
        <time>2021-05-02T09:36:19.000Z</time>
      </trkpt>
      <trkpt lat="43.49779" lon="6.36615">
        <ele>216</ele>
        <time>2021-05-02T09:36:28.000Z</time>
      </trkpt>
      <trkpt lat="43.49784" lon="6.36626">
        <ele>215.8</ele>
        <time>2021-05-02T09:36:37.000Z</time>
      </trkpt>
      <trkpt lat="43.49788" lon="6.36637">
        <ele>215.9</ele>
        <time>2021-05-02T09:36:46.000Z</time>
      </trkpt>
      <trkpt lat="43.49793" lon="6.36648">
        <ele>215.8</ele>
        <time>2021-05-02T09:36:55.000Z</time>
      </trkpt>
      <trkpt lat="43.49793" lon="6.36662">
        <ele>216.3</ele>
        <time>2021-05-02T09:37:05.000Z</time>
      </trkpt>
      <trkpt lat="43.49794" lon="6.36675">
        <ele>216.6</ele>
        <time>2021-05-02T09:37:19.000Z</time>
      </trkpt>
      <trkpt lat="43.49799" lon="6.36686">
        <ele>218.2</ele>
        <time>2021-05-02T09:37:31.000Z</time>
      </trkpt>
      <trkpt lat="43.49801" lon="6.36698">
        <ele>220.7</ele>
        <time>2021-05-02T09:37:46.000Z</time>
      </trkpt>
      <trkpt lat="43.49803" lon="6.36701">
        <ele>222.1</ele>
        <time>2021-05-02T09:37:56.000Z</time>
      </trkpt>
      <trkpt lat="43.49803" lon="6.36702">
        <ele>222.4</ele>
        <time>2021-05-02T09:38:00.000Z</time>
      </trkpt>
      <trkpt lat="43.49805" lon="6.36707">
        <ele>223.6</ele>
        <time>2021-05-02T09:38:13.000Z</time>
      </trkpt>
      <trkpt lat="43.49805" lon="6.36707">
        <ele>223.8</ele>
        <time>2021-05-02T09:38:15.000Z</time>
      </trkpt>
      <trkpt lat="43.49805" lon="6.36712">
        <ele>224.5</ele>
        <time>2021-05-02T09:38:27.000Z</time>
      </trkpt>
      <trkpt lat="43.49805" lon="6.36712">
        <ele>224.3</ele>
        <time>2021-05-02T09:38:37.000Z</time>
      </trkpt>
      <trkpt lat="43.49809" lon="6.36724">
        <ele>226.9</ele>
        <time>2021-05-02T09:38:59.000Z</time>
      </trkpt>
      <trkpt lat="43.49809" lon="6.36724">
        <ele>227.7</ele>
        <time>2021-05-02T09:39:01.000Z</time>
      </trkpt>
      <trkpt lat="43.4981" lon="6.36724">
        <ele>227.5</ele>
        <time>2021-05-02T09:39:02.000Z</time>
      </trkpt>
      <trkpt lat="43.49812" lon="6.36731">
        <ele>229.2</ele>
        <time>2021-05-02T09:39:17.000Z</time>
      </trkpt>
      <trkpt lat="43.49812" lon="6.36731">
        <ele>229.1</ele>
        <time>2021-05-02T09:39:18.000Z</time>
      </trkpt>
      <trkpt lat="43.49812" lon="6.36731">
        <ele>229</ele>
        <time>2021-05-02T09:39:19.000Z</time>
      </trkpt>
      <trkpt lat="43.49811" lon="6.36732">
        <ele>228.9</ele>
        <time>2021-05-02T09:39:20.000Z</time>
      </trkpt>
      <trkpt lat="43.49815" lon="6.36744">
        <ele>231.3</ele>
        <time>2021-05-02T09:39:37.000Z</time>
      </trkpt>
      <trkpt lat="43.49818" lon="6.36756">
        <ele>234.3</ele>
        <time>2021-05-02T09:39:58.000Z</time>
      </trkpt>
      <trkpt lat="43.49823" lon="6.36766">
        <ele>236.1</ele>
        <time>2021-05-02T09:40:13.000Z</time>
      </trkpt>
      <trkpt lat="43.49825" lon="6.36769">
        <ele>238</ele>
        <time>2021-05-02T09:40:25.000Z</time>
      </trkpt>
      <trkpt lat="43.49825" lon="6.3677">
        <ele>238</ele>
        <time>2021-05-02T09:40:26.000Z</time>
      </trkpt>
      <trkpt lat="43.49826" lon="6.36782">
        <ele>240.8</ele>
        <time>2021-05-02T09:40:50.000Z</time>
      </trkpt>
      <trkpt lat="43.49834" lon="6.3679">
        <ele>243.3</ele>
        <time>2021-05-02T09:41:11.000Z</time>
      </trkpt>
      <trkpt lat="43.49837" lon="6.36801">
        <ele>245.8</ele>
        <time>2021-05-02T09:41:31.000Z</time>
      </trkpt>
      <trkpt lat="43.49839" lon="6.3681">
        <ele>247.9</ele>
        <time>2021-05-02T09:41:50.000Z</time>
      </trkpt>
      <trkpt lat="43.49839" lon="6.3681">
        <ele>247.9</ele>
        <time>2021-05-02T09:41:51.000Z</time>
      </trkpt>
      <trkpt lat="43.49839" lon="6.3681">
        <ele>247.9</ele>
        <time>2021-05-02T09:41:52.000Z</time>
      </trkpt>
      <trkpt lat="43.49839" lon="6.36811">
        <ele>248</ele>
        <time>2021-05-02T09:41:53.000Z</time>
      </trkpt>
      <trkpt lat="43.49843" lon="6.36819">
        <ele>250.8</ele>
        <time>2021-05-02T09:42:12.000Z</time>
      </trkpt>
      <trkpt lat="43.49843" lon="6.3682">
        <ele>251.1</ele>
        <time>2021-05-02T09:42:15.000Z</time>
      </trkpt>
      <trkpt lat="43.49846" lon="6.36828">
        <ele>252.2</ele>
        <time>2021-05-02T09:42:30.000Z</time>
      </trkpt>
      <trkpt lat="43.49846" lon="6.36828">
        <ele>252.1</ele>
        <time>2021-05-02T09:42:36.000Z</time>
      </trkpt>
      <trkpt lat="43.49846" lon="6.3684">
        <ele>254.8</ele>
        <time>2021-05-02T09:42:55.000Z</time>
      </trkpt>
      <trkpt lat="43.49846" lon="6.3684">
        <ele>254.8</ele>
        <time>2021-05-02T09:42:56.000Z</time>
      </trkpt>
      <trkpt lat="43.49849" lon="6.36853">
        <ele>258</ele>
        <time>2021-05-02T09:43:18.000Z</time>
      </trkpt>
      <trkpt lat="43.49854" lon="6.36862">
        <ele>260.8</ele>
        <time>2021-05-02T09:43:40.000Z</time>
      </trkpt>
      <trkpt lat="43.49854" lon="6.36862">
        <ele>261</ele>
        <time>2021-05-02T09:43:52.000Z</time>
      </trkpt>
      <trkpt lat="43.49854" lon="6.36862">
        <ele>261</ele>
        <time>2021-05-02T09:43:53.000Z</time>
      </trkpt>
      <trkpt lat="43.49854" lon="6.36861">
        <ele>261</ele>
        <time>2021-05-02T09:43:55.000Z</time>
      </trkpt>
      <trkpt lat="43.49854" lon="6.36861">
        <ele>260.9</ele>
        <time>2021-05-02T09:43:56.000Z</time>
      </trkpt>
      <trkpt lat="43.49855" lon="6.36861">
        <ele>260.9</ele>
        <time>2021-05-02T09:43:58.000Z</time>
      </trkpt>
      <trkpt lat="43.49859" lon="6.36873">
        <ele>264.2</ele>
        <time>2021-05-02T09:44:20.000Z</time>
      </trkpt>
      <trkpt lat="43.49864" lon="6.36883">
        <ele>266.6</ele>
        <time>2021-05-02T09:44:38.000Z</time>
      </trkpt>
      <trkpt lat="43.49863" lon="6.36886">
        <ele>267.5</ele>
        <time>2021-05-02T09:44:44.000Z</time>
      </trkpt>
      <trkpt lat="43.49863" lon="6.36887">
        <ele>267.5</ele>
        <time>2021-05-02T09:44:45.000Z</time>
      </trkpt>
      <trkpt lat="43.49865" lon="6.36894">
        <ele>269.2</ele>
        <time>2021-05-02T09:44:58.000Z</time>
      </trkpt>
      <trkpt lat="43.49865" lon="6.36894">
        <ele>269.6</ele>
        <time>2021-05-02T09:44:59.000Z</time>
      </trkpt>
      <trkpt lat="43.49871" lon="6.36901">
        <ele>272.3</ele>
        <time>2021-05-02T09:45:19.000Z</time>
      </trkpt>
      <trkpt lat="43.49871" lon="6.36902">
        <ele>272.3</ele>
        <time>2021-05-02T09:45:21.000Z</time>
      </trkpt>
      <trkpt lat="43.49873" lon="6.36914">
        <ele>274.7</ele>
        <time>2021-05-02T09:45:39.000Z</time>
      </trkpt>
      <trkpt lat="43.49876" lon="6.36926">
        <ele>277.2</ele>
        <time>2021-05-02T09:46:00.000Z</time>
      </trkpt>
      <trkpt lat="43.4988" lon="6.36937">
        <ele>280.3</ele>
        <time>2021-05-02T09:46:22.000Z</time>
      </trkpt>
      <trkpt lat="43.49884" lon="6.3695">
        <ele>283.3</ele>
        <time>2021-05-02T09:46:42.000Z</time>
      </trkpt>
      <trkpt lat="43.49888" lon="6.36961">
        <ele>285</ele>
        <time>2021-05-02T09:46:59.000Z</time>
      </trkpt>
      <trkpt lat="43.49891" lon="6.36973">
        <ele>287.5</ele>
        <time>2021-05-02T09:47:18.000Z</time>
      </trkpt>
      <trkpt lat="43.49895" lon="6.36985">
        <ele>289.6</ele>
        <time>2021-05-02T09:47:35.000Z</time>
      </trkpt>
      <trkpt lat="43.49895" lon="6.36986">
        <ele>290.2</ele>
        <time>2021-05-02T09:47:38.000Z</time>
      </trkpt>
      <trkpt lat="43.49895" lon="6.36987">
        <ele>290.3</ele>
        <time>2021-05-02T09:47:39.000Z</time>
      </trkpt>
      <trkpt lat="43.499" lon="6.36997">
        <ele>292.6</ele>
        <time>2021-05-02T09:47:56.000Z</time>
      </trkpt>
      <trkpt lat="43.49903" lon="6.37009">
        <ele>294.5</ele>
        <time>2021-05-02T09:48:12.000Z</time>
      </trkpt>
      <trkpt lat="43.49908" lon="6.37021">
        <ele>296.8</ele>
        <time>2021-05-02T09:48:31.000Z</time>
      </trkpt>
      <trkpt lat="43.49912" lon="6.37032">
        <ele>298.2</ele>
        <time>2021-05-02T09:48:42.000Z</time>
      </trkpt>
      <trkpt lat="43.49915" lon="6.37044">
        <ele>299.4</ele>
        <time>2021-05-02T09:48:57.000Z</time>
      </trkpt>
      <trkpt lat="43.49917" lon="6.37057">
        <ele>301.1</ele>
        <time>2021-05-02T09:49:15.000Z</time>
      </trkpt>
      <trkpt lat="43.49924" lon="6.37067">
        <ele>302.5</ele>
        <time>2021-05-02T09:49:27.000Z</time>
      </trkpt>
      <trkpt lat="43.49931" lon="6.37076">
        <ele>303.9</ele>
        <time>2021-05-02T09:49:39.000Z</time>
      </trkpt>
      <trkpt lat="43.49937" lon="6.37085">
        <ele>304.9</ele>
        <time>2021-05-02T09:49:50.000Z</time>
      </trkpt>
      <trkpt lat="43.49943" lon="6.3709">
        <ele>306.1</ele>
        <time>2021-05-02T09:50:03.000Z</time>
      </trkpt>
      <trkpt lat="43.49944" lon="6.3709">
        <ele>306.2</ele>
        <time>2021-05-02T09:50:07.000Z</time>
      </trkpt>
      <trkpt lat="43.49944" lon="6.3709">
        <ele>306.3</ele>
        <time>2021-05-02T09:50:08.000Z</time>
      </trkpt>
      <trkpt lat="43.49944" lon="6.37091">
        <ele>306.4</ele>
        <time>2021-05-02T09:50:09.000Z</time>
      </trkpt>
      <trkpt lat="43.49946" lon="6.37093">
        <ele>306.2</ele>
        <time>2021-05-02T09:50:20.000Z</time>
      </trkpt>
      <trkpt lat="43.49946" lon="6.37092">
        <ele>306.7</ele>
        <time>2021-05-02T09:50:34.000Z</time>
      </trkpt>
      <trkpt lat="43.49946" lon="6.37092">
        <ele>306.8</ele>
        <time>2021-05-02T09:50:35.000Z</time>
      </trkpt>
      <trkpt lat="43.49946" lon="6.37092">
        <ele>306.7</ele>
        <time>2021-05-02T09:50:53.000Z</time>
      </trkpt>
      <trkpt lat="43.49946" lon="6.37092">
        <ele>306.7</ele>
        <time>2021-05-02T09:50:54.000Z</time>
      </trkpt>
      <trkpt lat="43.49946" lon="6.37092">
        <ele>307.1</ele>
        <time>2021-05-02T09:51:01.000Z</time>
      </trkpt>
      <trkpt lat="43.49946" lon="6.37092">
        <ele>307.2</ele>
        <time>2021-05-02T09:51:03.000Z</time>
      </trkpt>
      <trkpt lat="43.49946" lon="6.37092">
        <ele>307.1</ele>
        <time>2021-05-02T09:51:05.000Z</time>
      </trkpt>
      <trkpt lat="43.4995" lon="6.37104">
        <ele>308.6</ele>
        <time>2021-05-02T09:51:21.000Z</time>
      </trkpt>
      <trkpt lat="43.49951" lon="6.37106">
        <ele>308.6</ele>
        <time>2021-05-02T09:51:28.000Z</time>
      </trkpt>
      <trkpt lat="43.49952" lon="6.37106">
        <ele>308.5</ele>
        <time>2021-05-02T09:51:29.000Z</time>
      </trkpt>
      <trkpt lat="43.49952" lon="6.37106">
        <ele>308.6</ele>
        <time>2021-05-02T09:51:30.000Z</time>
      </trkpt>
      <trkpt lat="43.49952" lon="6.37106">
        <ele>308.5</ele>
        <time>2021-05-02T09:52:06.000Z</time>
      </trkpt>
      <trkpt lat="43.49952" lon="6.37106">
        <ele>308.7</ele>
        <time>2021-05-02T09:52:07.000Z</time>
      </trkpt>
      <trkpt lat="43.49952" lon="6.37106">
        <ele>308.9</ele>
        <time>2021-05-02T09:52:08.000Z</time>
      </trkpt>
      <trkpt lat="43.49952" lon="6.37106">
        <ele>309</ele>
        <time>2021-05-02T09:52:09.000Z</time>
      </trkpt>
      <trkpt lat="43.49952" lon="6.37107">
        <ele>308.6</ele>
        <time>2021-05-02T09:52:44.000Z</time>
      </trkpt>
      <trkpt lat="43.49952" lon="6.37108">
        <ele>308.6</ele>
        <time>2021-05-02T09:52:46.000Z</time>
      </trkpt>
      <trkpt lat="43.49951" lon="6.37109">
        <ele>308.9</ele>
        <time>2021-05-02T09:52:50.000Z</time>
      </trkpt>
      <trkpt lat="43.49951" lon="6.37109">
        <ele>308.9</ele>
        <time>2021-05-02T09:52:52.000Z</time>
      </trkpt>
      <trkpt lat="43.49951" lon="6.37109">
        <ele>308.6</ele>
        <time>2021-05-02T09:54:15.000Z</time>
      </trkpt>
      <trkpt lat="43.49951" lon="6.37109">
        <ele>308.6</ele>
        <time>2021-05-02T09:54:16.000Z</time>
      </trkpt>
      <trkpt lat="43.49951" lon="6.37109">
        <ele>308.8</ele>
        <time>2021-05-02T09:54:33.000Z</time>
      </trkpt>
      <trkpt lat="43.49951" lon="6.37109">
        <ele>308.8</ele>
        <time>2021-05-02T09:54:34.000Z</time>
      </trkpt>
      <trkpt lat="43.49952" lon="6.37109">
        <ele>308.9</ele>
        <time>2021-05-02T09:54:44.000Z</time>
      </trkpt>
      <trkpt lat="43.49958" lon="6.37118">
        <ele>310.8</ele>
        <time>2021-05-02T09:55:00.000Z</time>
      </trkpt>
      <trkpt lat="43.49957" lon="6.37131">
        <ele>311.8</ele>
        <time>2021-05-02T09:55:12.000Z</time>
      </trkpt>
      <trkpt lat="43.49962" lon="6.37139">
        <ele>312.4</ele>
        <time>2021-05-02T09:55:23.000Z</time>
      </trkpt>
      <trkpt lat="43.49961" lon="6.37138">
        <ele>312.5</ele>
        <time>2021-05-02T09:55:24.000Z</time>
      </trkpt>
      <trkpt lat="43.49963" lon="6.37143">
        <ele>312.8</ele>
        <time>2021-05-02T09:55:32.000Z</time>
      </trkpt>
      <trkpt lat="43.49964" lon="6.37143">
        <ele>312.6</ele>
        <time>2021-05-02T09:55:34.000Z</time>
      </trkpt>
      <trkpt lat="43.49964" lon="6.37143">
        <ele>312.4</ele>
        <time>2021-05-02T09:55:35.000Z</time>
      </trkpt>
      <trkpt lat="43.49964" lon="6.37143">
        <ele>311.3</ele>
        <time>2021-05-02T09:55:45.000Z</time>
      </trkpt>
      <trkpt lat="43.49964" lon="6.37143">
        <ele>311.5</ele>
        <time>2021-05-02T09:55:46.000Z</time>
      </trkpt>
      <trkpt lat="43.49964" lon="6.37142">
        <ele>311.9</ele>
        <time>2021-05-02T09:55:55.000Z</time>
      </trkpt>
      <trkpt lat="43.49964" lon="6.37142">
        <ele>311.8</ele>
        <time>2021-05-02T09:55:56.000Z</time>
      </trkpt>
      <trkpt lat="43.49964" lon="6.37142">
        <ele>312.2</ele>
        <time>2021-05-02T09:56:24.000Z</time>
      </trkpt>
      <trkpt lat="43.49964" lon="6.37142">
        <ele>312.2</ele>
        <time>2021-05-02T09:56:25.000Z</time>
      </trkpt>
      <trkpt lat="43.49964" lon="6.37142">
        <ele>312.4</ele>
        <time>2021-05-02T09:56:31.000Z</time>
      </trkpt>
      <trkpt lat="43.49964" lon="6.37142">
        <ele>312.2</ele>
        <time>2021-05-02T09:56:32.000Z</time>
      </trkpt>
      <trkpt lat="43.49964" lon="6.37142">
        <ele>312.2</ele>
        <time>2021-05-02T09:56:58.000Z</time>
      </trkpt>
      <trkpt lat="43.49964" lon="6.37142">
        <ele>312.1</ele>
        <time>2021-05-02T09:56:59.000Z</time>
      </trkpt>
      <trkpt lat="43.49964" lon="6.37142">
        <ele>311.8</ele>
        <time>2021-05-02T09:57:01.000Z</time>
      </trkpt>
      <trkpt lat="43.49965" lon="6.37145">
        <ele>312.2</ele>
        <time>2021-05-02T09:57:10.000Z</time>
      </trkpt>
      <trkpt lat="43.49965" lon="6.37144">
        <ele>312.8</ele>
        <time>2021-05-02T09:57:14.000Z</time>
      </trkpt>
      <trkpt lat="43.49966" lon="6.37143">
        <ele>313.2</ele>
        <time>2021-05-02T09:57:18.000Z</time>
      </trkpt>
      <trkpt lat="43.49966" lon="6.37143">
        <ele>313</ele>
        <time>2021-05-02T09:57:19.000Z</time>
      </trkpt>
      <trkpt lat="43.49966" lon="6.37144">
        <ele>312.3</ele>
        <time>2021-05-02T09:57:22.000Z</time>
      </trkpt>
      <trkpt lat="43.49966" lon="6.37144">
        <ele>312.2</ele>
        <time>2021-05-02T09:57:30.000Z</time>
      </trkpt>
      <trkpt lat="43.49965" lon="6.37143">
        <ele>312.1</ele>
        <time>2021-05-02T09:57:32.000Z</time>
      </trkpt>
      <trkpt lat="43.49965" lon="6.37143">
        <ele>311.6</ele>
        <time>2021-05-02T09:57:37.000Z</time>
      </trkpt>
      <trkpt lat="43.49965" lon="6.37143">
        <ele>311.6</ele>
        <time>2021-05-02T09:57:38.000Z</time>
      </trkpt>
      <trkpt lat="43.49965" lon="6.37143">
        <ele>311.6</ele>
        <time>2021-05-02T09:58:00.000Z</time>
      </trkpt>
      <trkpt lat="43.49964" lon="6.37142">
        <ele>311.9</ele>
        <time>2021-05-02T09:58:04.000Z</time>
      </trkpt>
      <trkpt lat="43.49964" lon="6.37142">
        <ele>312.2</ele>
        <time>2021-05-02T09:58:20.000Z</time>
      </trkpt>
      <trkpt lat="43.49964" lon="6.37141">
        <ele>311.9</ele>
        <time>2021-05-02T09:58:24.000Z</time>
      </trkpt>
      <trkpt lat="43.49963" lon="6.3714">
        <ele>311.9</ele>
        <time>2021-05-02T09:58:26.000Z</time>
      </trkpt>
      <trkpt lat="43.49963" lon="6.3714">
        <ele>311.8</ele>
        <time>2021-05-02T09:58:27.000Z</time>
      </trkpt>
      <trkpt lat="43.49963" lon="6.3714">
        <ele>311.8</ele>
        <time>2021-05-02T09:58:29.000Z</time>
      </trkpt>
      <trkpt lat="43.49963" lon="6.3714">
        <ele>312</ele>
        <time>2021-05-02T09:58:30.000Z</time>
      </trkpt>
      <trkpt lat="43.49963" lon="6.3714">
        <ele>312.2</ele>
        <time>2021-05-02T09:58:52.000Z</time>
      </trkpt>
      <trkpt lat="43.49963" lon="6.3714">
        <ele>312</ele>
        <time>2021-05-02T09:58:54.000Z</time>
      </trkpt>
      <trkpt lat="43.49962" lon="6.37139">
        <ele>312.2</ele>
        <time>2021-05-02T09:59:07.000Z</time>
      </trkpt>
      <trkpt lat="43.49962" lon="6.37139">
        <ele>312.3</ele>
        <time>2021-05-02T09:59:09.000Z</time>
      </trkpt>
      <trkpt lat="43.49962" lon="6.37139">
        <ele>312.4</ele>
        <time>2021-05-02T09:59:11.000Z</time>
      </trkpt>
      <trkpt lat="43.49962" lon="6.37139">
        <ele>312.5</ele>
        <time>2021-05-02T09:59:12.000Z</time>
      </trkpt>
      <trkpt lat="43.49963" lon="6.37138">
        <ele>311.7</ele>
        <time>2021-05-02T09:59:20.000Z</time>
      </trkpt>
      <trkpt lat="43.49963" lon="6.37125">
        <ele>310.9</ele>
        <time>2021-05-02T09:59:34.000Z</time>
      </trkpt>
      <trkpt lat="43.49963" lon="6.37121">
        <ele>310.7</ele>
        <time>2021-05-02T09:59:40.000Z</time>
      </trkpt>
      <trkpt lat="43.49963" lon="6.3712">
        <ele>310.3</ele>
        <time>2021-05-02T09:59:46.000Z</time>
      </trkpt>
      <trkpt lat="43.49963" lon="6.3712">
        <ele>310.5</ele>
        <time>2021-05-02T09:59:48.000Z</time>
      </trkpt>
      <trkpt lat="43.49963" lon="6.3712">
        <ele>310.4</ele>
        <time>2021-05-02T09:59:49.000Z</time>
      </trkpt>
      <trkpt lat="43.49963" lon="6.3712">
        <ele>310.3</ele>
        <time>2021-05-02T09:59:50.000Z</time>
      </trkpt>
      <trkpt lat="43.49963" lon="6.3712">
        <ele>310.4</ele>
        <time>2021-05-02T10:00:10.000Z</time>
      </trkpt>
      <trkpt lat="43.49963" lon="6.3712">
        <ele>310.3</ele>
        <time>2021-05-02T10:00:11.000Z</time>
      </trkpt>
      <trkpt lat="43.49963" lon="6.37121">
        <ele>310.3</ele>
        <time>2021-05-02T10:00:12.000Z</time>
      </trkpt>
      <trkpt lat="43.49963" lon="6.37121">
        <ele>310</ele>
        <time>2021-05-02T10:00:13.000Z</time>
      </trkpt>
      <trkpt lat="43.49963" lon="6.37121">
        <ele>309.8</ele>
        <time>2021-05-02T10:00:31.000Z</time>
      </trkpt>
      <trkpt lat="43.49962" lon="6.3712">
        <ele>309.6</ele>
        <time>2021-05-02T10:00:35.000Z</time>
      </trkpt>
      <trkpt lat="43.49962" lon="6.3712">
        <ele>310.1</ele>
        <time>2021-05-02T10:00:42.000Z</time>
      </trkpt>
      <trkpt lat="43.49962" lon="6.37121">
        <ele>310.1</ele>
        <time>2021-05-02T10:00:45.000Z</time>
      </trkpt>
      <trkpt lat="43.49962" lon="6.37121">
        <ele>310</ele>
        <time>2021-05-02T10:00:48.000Z</time>
      </trkpt>
      <trkpt lat="43.49962" lon="6.37121">
        <ele>310</ele>
        <time>2021-05-02T10:00:49.000Z</time>
      </trkpt>
      <trkpt lat="43.49962" lon="6.37121">
        <ele>310</ele>
        <time>2021-05-02T10:00:50.000Z</time>
      </trkpt>
      <trkpt lat="43.49962" lon="6.37121">
        <ele>310.1</ele>
        <time>2021-05-02T10:00:51.000Z</time>
      </trkpt>
      <trkpt lat="43.49961" lon="6.37121">
        <ele>309.9</ele>
        <time>2021-05-02T10:01:05.000Z</time>
      </trkpt>
      <trkpt lat="43.49957" lon="6.37109">
        <ele>309.2</ele>
        <time>2021-05-02T10:01:18.000Z</time>
      </trkpt>
      <trkpt lat="43.4995" lon="6.37101">
        <ele>308.1</ele>
        <time>2021-05-02T10:01:27.000Z</time>
      </trkpt>
      <trkpt lat="43.4994" lon="6.37098">
        <ele>307.8</ele>
        <time>2021-05-02T10:01:36.000Z</time>
      </trkpt>
      <trkpt lat="43.4993" lon="6.37102">
        <ele>307.4</ele>
        <time>2021-05-02T10:01:46.000Z</time>
      </trkpt>
      <trkpt lat="43.49921" lon="6.37103">
        <ele>308.6</ele>
        <time>2021-05-02T10:01:53.000Z</time>
      </trkpt>
      <trkpt lat="43.49912" lon="6.37103">
        <ele>308.9</ele>
        <time>2021-05-02T10:02:02.000Z</time>
      </trkpt>
      <trkpt lat="43.49903" lon="6.37104">
        <ele>308.8</ele>
        <time>2021-05-02T10:02:10.000Z</time>
      </trkpt>
      <trkpt lat="43.49894" lon="6.37103">
        <ele>308.1</ele>
        <time>2021-05-02T10:02:17.000Z</time>
      </trkpt>
      <trkpt lat="43.49884" lon="6.37104">
        <ele>309.4</ele>
        <time>2021-05-02T10:02:25.000Z</time>
      </trkpt>
      <trkpt lat="43.49875" lon="6.37104">
        <ele>308.4</ele>
        <time>2021-05-02T10:02:34.000Z</time>
      </trkpt>
      <trkpt lat="43.49867" lon="6.37111">
        <ele>309.5</ele>
        <time>2021-05-02T10:02:40.000Z</time>
      </trkpt>
      <trkpt lat="43.49859" lon="6.37118">
        <ele>310.6</ele>
        <time>2021-05-02T10:02:51.000Z</time>
      </trkpt>
      <trkpt lat="43.49852" lon="6.37128">
        <ele>310.8</ele>
        <time>2021-05-02T10:03:01.000Z</time>
      </trkpt>
      <trkpt lat="43.49847" lon="6.37139">
        <ele>311.8</ele>
        <time>2021-05-02T10:03:09.000Z</time>
      </trkpt>
      <trkpt lat="43.49846" lon="6.37152">
        <ele>313.6</ele>
        <time>2021-05-02T10:03:18.000Z</time>
      </trkpt>
      <trkpt lat="43.49843" lon="6.37165">
        <ele>314.7</ele>
        <time>2021-05-02T10:03:29.000Z</time>
      </trkpt>
      <trkpt lat="43.49834" lon="6.37168">
        <ele>314.9</ele>
        <time>2021-05-02T10:03:38.000Z</time>
      </trkpt>
      <trkpt lat="43.49827" lon="6.3718">
        <ele>315.9</ele>
        <time>2021-05-02T10:03:48.000Z</time>
      </trkpt>
      <trkpt lat="43.49824" lon="6.37189">
        <ele>316</ele>
        <time>2021-05-02T10:03:57.000Z</time>
      </trkpt>
      <trkpt lat="43.49824" lon="6.3719">
        <ele>316</ele>
        <time>2021-05-02T10:03:58.000Z</time>
      </trkpt>
      <trkpt lat="43.49816" lon="6.37197">
        <ele>316.4</ele>
        <time>2021-05-02T10:04:06.000Z</time>
      </trkpt>
      <trkpt lat="43.49809" lon="6.37206">
        <ele>315.3</ele>
        <time>2021-05-02T10:04:15.000Z</time>
      </trkpt>
      <trkpt lat="43.49802" lon="6.37213">
        <ele>314.8</ele>
        <time>2021-05-02T10:04:25.000Z</time>
      </trkpt>
      <trkpt lat="43.49796" lon="6.37224">
        <ele>314.8</ele>
        <time>2021-05-02T10:04:34.000Z</time>
      </trkpt>
      <trkpt lat="43.49794" lon="6.37237">
        <ele>313.5</ele>
        <time>2021-05-02T10:04:43.000Z</time>
      </trkpt>
      <trkpt lat="43.49792" lon="6.37251">
        <ele>313.9</ele>
        <time>2021-05-02T10:04:51.000Z</time>
      </trkpt>
      <trkpt lat="43.49793" lon="6.37263">
        <ele>314.8</ele>
        <time>2021-05-02T10:04:58.000Z</time>
      </trkpt>
      <trkpt lat="43.49793" lon="6.37277">
        <ele>315.6</ele>
        <time>2021-05-02T10:05:08.000Z</time>
      </trkpt>
      <trkpt lat="43.49794" lon="6.3729">
        <ele>317.3</ele>
        <time>2021-05-02T10:05:19.000Z</time>
      </trkpt>
      <trkpt lat="43.49798" lon="6.37303">
        <ele>318.6</ele>
        <time>2021-05-02T10:05:28.000Z</time>
      </trkpt>
      <trkpt lat="43.49804" lon="6.37314">
        <ele>319.7</ele>
        <time>2021-05-02T10:05:37.000Z</time>
      </trkpt>
      <trkpt lat="43.49806" lon="6.37327">
        <ele>320.7</ele>
        <time>2021-05-02T10:05:47.000Z</time>
      </trkpt>
      <trkpt lat="43.49806" lon="6.37341">
        <ele>320.9</ele>
        <time>2021-05-02T10:05:57.000Z</time>
      </trkpt>
      <trkpt lat="43.49808" lon="6.37354">
        <ele>320.4</ele>
        <time>2021-05-02T10:06:07.000Z</time>
      </trkpt>
      <trkpt lat="43.4981" lon="6.37367">
        <ele>319.9</ele>
        <time>2021-05-02T10:06:14.000Z</time>
      </trkpt>
      <trkpt lat="43.49812" lon="6.37381">
        <ele>319.5</ele>
        <time>2021-05-02T10:06:24.000Z</time>
      </trkpt>
      <trkpt lat="43.49813" lon="6.37393">
        <ele>319.2</ele>
        <time>2021-05-02T10:06:32.000Z</time>
      </trkpt>
      <trkpt lat="43.49811" lon="6.37406">
        <ele>318.2</ele>
        <time>2021-05-02T10:06:42.000Z</time>
      </trkpt>
      <trkpt lat="43.49811" lon="6.37419">
        <ele>318.4</ele>
        <time>2021-05-02T10:06:49.000Z</time>
      </trkpt>
      <trkpt lat="43.49814" lon="6.37432">
        <ele>319</ele>
        <time>2021-05-02T10:06:57.000Z</time>
      </trkpt>
      <trkpt lat="43.4981" lon="6.37445">
        <ele>318.5</ele>
        <time>2021-05-02T10:07:07.000Z</time>
      </trkpt>
      <trkpt lat="43.49807" lon="6.37457">
        <ele>318.7</ele>
        <time>2021-05-02T10:07:20.000Z</time>
      </trkpt>
      <trkpt lat="43.49802" lon="6.37469">
        <ele>317.4</ele>
        <time>2021-05-02T10:07:30.000Z</time>
      </trkpt>
      <trkpt lat="43.49797" lon="6.3748">
        <ele>316.3</ele>
        <time>2021-05-02T10:07:39.000Z</time>
      </trkpt>
      <trkpt lat="43.4979" lon="6.37489">
        <ele>314.4</ele>
        <time>2021-05-02T10:07:51.000Z</time>
      </trkpt>
      <trkpt lat="43.49783" lon="6.37499">
        <ele>312.6</ele>
        <time>2021-05-02T10:08:01.000Z</time>
      </trkpt>
      <trkpt lat="43.49774" lon="6.37504">
        <ele>312</ele>
        <time>2021-05-02T10:08:08.000Z</time>
      </trkpt>
      <trkpt lat="43.49769" lon="6.37509">
        <ele>310.5</ele>
        <time>2021-05-02T10:08:17.000Z</time>
      </trkpt>
      <trkpt lat="43.49769" lon="6.37509">
        <ele>310.5</ele>
        <time>2021-05-02T10:08:18.000Z</time>
      </trkpt>
      <trkpt lat="43.49761" lon="6.37517">
        <ele>308.2</ele>
        <time>2021-05-02T10:08:31.000Z</time>
      </trkpt>
      <trkpt lat="43.49754" lon="6.37525">
        <ele>306.3</ele>
        <time>2021-05-02T10:08:45.000Z</time>
      </trkpt>
      <trkpt lat="43.49746" lon="6.37532">
        <ele>304.4</ele>
        <time>2021-05-02T10:08:56.000Z</time>
      </trkpt>
      <trkpt lat="43.49741" lon="6.37543">
        <ele>304</ele>
        <time>2021-05-02T10:09:06.000Z</time>
      </trkpt>
      <trkpt lat="43.49739" lon="6.37549">
        <ele>303</ele>
        <time>2021-05-02T10:09:15.000Z</time>
      </trkpt>
      <trkpt lat="43.49739" lon="6.3755">
        <ele>302.9</ele>
        <time>2021-05-02T10:09:16.000Z</time>
      </trkpt>
      <trkpt lat="43.49729" lon="6.37549">
        <ele>302.7</ele>
        <time>2021-05-02T10:09:28.000Z</time>
      </trkpt>
      <trkpt lat="43.49729" lon="6.37545">
        <ele>301.3</ele>
        <time>2021-05-02T10:09:38.000Z</time>
      </trkpt>
      <trkpt lat="43.4973" lon="6.37545">
        <ele>301.5</ele>
        <time>2021-05-02T10:09:41.000Z</time>
      </trkpt>
      <trkpt lat="43.4973" lon="6.37545">
        <ele>301.5</ele>
        <time>2021-05-02T10:09:42.000Z</time>
      </trkpt>
      <trkpt lat="43.4973" lon="6.37546">
        <ele>301.7</ele>
        <time>2021-05-02T10:09:47.000Z</time>
      </trkpt>
      <trkpt lat="43.49729" lon="6.37557">
        <ele>302.3</ele>
        <time>2021-05-02T10:10:02.000Z</time>
      </trkpt>
      <trkpt lat="43.49729" lon="6.37558">
        <ele>302.6</ele>
        <time>2021-05-02T10:10:11.000Z</time>
      </trkpt>
      <trkpt lat="43.49731" lon="6.37558">
        <ele>302.4</ele>
        <time>2021-05-02T10:10:18.000Z</time>
      </trkpt>
      <trkpt lat="43.49731" lon="6.37559">
        <ele>302.4</ele>
        <time>2021-05-02T10:10:19.000Z</time>
      </trkpt>
      <trkpt lat="43.49731" lon="6.37559">
        <ele>302.5</ele>
        <time>2021-05-02T10:10:21.000Z</time>
      </trkpt>
      <trkpt lat="43.49732" lon="6.37559">
        <ele>302.8</ele>
        <time>2021-05-02T10:10:24.000Z</time>
      </trkpt>
      <trkpt lat="43.49735" lon="6.3756">
        <ele>302.4</ele>
        <time>2021-05-02T10:10:32.000Z</time>
      </trkpt>
      <trkpt lat="43.49736" lon="6.3756">
        <ele>302.5</ele>
        <time>2021-05-02T10:10:45.000Z</time>
      </trkpt>
      <trkpt lat="43.4974" lon="6.37559">
        <ele>303.2</ele>
        <time>2021-05-02T10:10:55.000Z</time>
      </trkpt>
      <trkpt lat="43.49739" lon="6.37559">
        <ele>303</ele>
        <time>2021-05-02T10:10:58.000Z</time>
      </trkpt>
      <trkpt lat="43.49739" lon="6.37559">
        <ele>302.8</ele>
        <time>2021-05-02T10:10:59.000Z</time>
      </trkpt>
      <trkpt lat="43.49739" lon="6.37559">
        <ele>302.8</ele>
        <time>2021-05-02T10:11:02.000Z</time>
      </trkpt>
      <trkpt lat="43.49739" lon="6.37559">
        <ele>302.7</ele>
        <time>2021-05-02T10:11:03.000Z</time>
      </trkpt>
      <trkpt lat="43.49739" lon="6.37558">
        <ele>303.2</ele>
        <time>2021-05-02T10:11:20.000Z</time>
      </trkpt>
      <trkpt lat="43.49739" lon="6.37553">
        <ele>303.3</ele>
        <time>2021-05-02T10:11:25.000Z</time>
      </trkpt>
      <trkpt lat="43.49739" lon="6.37553">
        <ele>303.3</ele>
        <time>2021-05-02T10:11:26.000Z</time>
      </trkpt>
      <trkpt lat="43.4974" lon="6.37553">
        <ele>303.4</ele>
        <time>2021-05-02T10:11:28.000Z</time>
      </trkpt>
      <trkpt lat="43.49739" lon="6.37553">
        <ele>303.3</ele>
        <time>2021-05-02T10:11:45.000Z</time>
      </trkpt>
      <trkpt lat="43.49738" lon="6.37552">
        <ele>303</ele>
        <time>2021-05-02T10:11:51.000Z</time>
      </trkpt>
      <trkpt lat="43.49737" lon="6.37551">
        <ele>302.7</ele>
        <time>2021-05-02T10:11:57.000Z</time>
      </trkpt>
      <trkpt lat="43.49737" lon="6.37551">
        <ele>302.7</ele>
        <time>2021-05-02T10:11:58.000Z</time>
      </trkpt>
      <trkpt lat="43.49737" lon="6.37551">
        <ele>302.8</ele>
        <time>2021-05-02T10:12:03.000Z</time>
      </trkpt>
      <trkpt lat="43.49731" lon="6.37561">
        <ele>301.2</ele>
        <time>2021-05-02T10:12:12.000Z</time>
      </trkpt>
      <trkpt lat="43.49729" lon="6.37574">
        <ele>300.5</ele>
        <time>2021-05-02T10:12:20.000Z</time>
      </trkpt>
      <trkpt lat="43.49728" lon="6.37587">
        <ele>299.6</ele>
        <time>2021-05-02T10:12:30.000Z</time>
      </trkpt>
      <trkpt lat="43.49728" lon="6.376">
        <ele>298.2</ele>
        <time>2021-05-02T10:12:39.000Z</time>
      </trkpt>
      <trkpt lat="43.49728" lon="6.37614">
        <ele>296.8</ele>
        <time>2021-05-02T10:12:51.000Z</time>
      </trkpt>
      <trkpt lat="43.49728" lon="6.37627">
        <ele>296.5</ele>
        <time>2021-05-02T10:13:00.000Z</time>
      </trkpt>
      <trkpt lat="43.49728" lon="6.3764">
        <ele>295.3</ele>
        <time>2021-05-02T10:13:08.000Z</time>
      </trkpt>
      <trkpt lat="43.4973" lon="6.37653">
        <ele>293.5</ele>
        <time>2021-05-02T10:13:18.000Z</time>
      </trkpt>
      <trkpt lat="43.49735" lon="6.37665">
        <ele>292.8</ele>
        <time>2021-05-02T10:13:27.000Z</time>
      </trkpt>
      <trkpt lat="43.49738" lon="6.37678">
        <ele>291.8</ele>
        <time>2021-05-02T10:13:37.000Z</time>
      </trkpt>
      <trkpt lat="43.49742" lon="6.37689">
        <ele>291.9</ele>
        <time>2021-05-02T10:13:47.000Z</time>
      </trkpt>
      <trkpt lat="43.49747" lon="6.37701">
        <ele>291.3</ele>
        <time>2021-05-02T10:13:56.000Z</time>
      </trkpt>
      <trkpt lat="43.4975" lon="6.37713">
        <ele>291</ele>
        <time>2021-05-02T10:14:05.000Z</time>
      </trkpt>
      <trkpt lat="43.49742" lon="6.37718">
        <ele>289.6</ele>
        <time>2021-05-02T10:14:17.000Z</time>
      </trkpt>
      <trkpt lat="43.49734" lon="6.37711">
        <ele>287.6</ele>
        <time>2021-05-02T10:14:27.000Z</time>
      </trkpt>
      <trkpt lat="43.49727" lon="6.37702">
        <ele>286.9</ele>
        <time>2021-05-02T10:14:36.000Z</time>
      </trkpt>
      <trkpt lat="43.49718" lon="6.37697">
        <ele>285.2</ele>
        <time>2021-05-02T10:14:46.000Z</time>
      </trkpt>
      <trkpt lat="43.49708" lon="6.37695">
        <ele>284</ele>
        <time>2021-05-02T10:14:54.000Z</time>
      </trkpt>
      <trkpt lat="43.49699" lon="6.37692">
        <ele>283.3</ele>
        <time>2021-05-02T10:15:01.000Z</time>
      </trkpt>
      <trkpt lat="43.49691" lon="6.37686">
        <ele>281.7</ele>
        <time>2021-05-02T10:15:13.000Z</time>
      </trkpt>
      <trkpt lat="43.49681" lon="6.37684">
        <ele>281.8</ele>
        <time>2021-05-02T10:15:21.000Z</time>
      </trkpt>
      <trkpt lat="43.49672" lon="6.37681">
        <ele>280.6</ele>
        <time>2021-05-02T10:15:34.000Z</time>
      </trkpt>
      <trkpt lat="43.49669" lon="6.37678">
        <ele>279.9</ele>
        <time>2021-05-02T10:15:45.000Z</time>
      </trkpt>
      <trkpt lat="43.49668" lon="6.37679">
        <ele>280.1</ele>
        <time>2021-05-02T10:15:46.000Z</time>
      </trkpt>
      <trkpt lat="43.49659" lon="6.37682">
        <ele>278.6</ele>
        <time>2021-05-02T10:15:58.000Z</time>
      </trkpt>
      <trkpt lat="43.49659" lon="6.37695">
        <ele>278.1</ele>
        <time>2021-05-02T10:16:06.000Z</time>
      </trkpt>
      <trkpt lat="43.49665" lon="6.37706">
        <ele>277.9</ele>
        <time>2021-05-02T10:16:14.000Z</time>
      </trkpt>
      <trkpt lat="43.49674" lon="6.37712">
        <ele>277</ele>
        <time>2021-05-02T10:16:22.000Z</time>
      </trkpt>
      <trkpt lat="43.49681" lon="6.37719">
        <ele>277.2</ele>
        <time>2021-05-02T10:16:29.000Z</time>
      </trkpt>
      <trkpt lat="43.49688" lon="6.37727">
        <ele>277.2</ele>
        <time>2021-05-02T10:16:36.000Z</time>
      </trkpt>
      <trkpt lat="43.49695" lon="6.37737">
        <ele>277.5</ele>
        <time>2021-05-02T10:16:44.000Z</time>
      </trkpt>
      <trkpt lat="43.497" lon="6.37748">
        <ele>277.7</ele>
        <time>2021-05-02T10:16:54.000Z</time>
      </trkpt>
      <trkpt lat="43.49705" lon="6.37759">
        <ele>277.6</ele>
        <time>2021-05-02T10:17:01.000Z</time>
      </trkpt>
      <trkpt lat="43.49709" lon="6.37771">
        <ele>277.4</ele>
        <time>2021-05-02T10:17:09.000Z</time>
      </trkpt>
      <trkpt lat="43.49714" lon="6.37781">
        <ele>278.1</ele>
        <time>2021-05-02T10:17:18.000Z</time>
      </trkpt>
      <trkpt lat="43.4972" lon="6.37792">
        <ele>278.6</ele>
        <time>2021-05-02T10:17:27.000Z</time>
      </trkpt>
      <trkpt lat="43.49724" lon="6.37803">
        <ele>278.5</ele>
        <time>2021-05-02T10:17:35.000Z</time>
      </trkpt>
      <trkpt lat="43.49728" lon="6.37815">
        <ele>278.5</ele>
        <time>2021-05-02T10:17:42.000Z</time>
      </trkpt>
      <trkpt lat="43.49732" lon="6.37826">
        <ele>278.9</ele>
        <time>2021-05-02T10:17:50.000Z</time>
      </trkpt>
      <trkpt lat="43.49738" lon="6.37836">
        <ele>279.2</ele>
        <time>2021-05-02T10:18:00.000Z</time>
      </trkpt>
      <trkpt lat="43.49745" lon="6.37846">
        <ele>278.9</ele>
        <time>2021-05-02T10:18:08.000Z</time>
      </trkpt>
      <trkpt lat="43.49751" lon="6.37855">
        <ele>278.5</ele>
        <time>2021-05-02T10:18:16.000Z</time>
      </trkpt>
      <trkpt lat="43.49755" lon="6.37859">
        <ele>278.4</ele>
        <time>2021-05-02T10:18:26.000Z</time>
      </trkpt>
      <trkpt lat="43.49755" lon="6.37859">
        <ele>278.3</ele>
        <time>2021-05-02T10:18:28.000Z</time>
      </trkpt>
      <trkpt lat="43.49754" lon="6.37857">
        <ele>278.2</ele>
        <time>2021-05-02T10:18:31.000Z</time>
      </trkpt>
      <trkpt lat="43.49755" lon="6.37858">
        <ele>278.2</ele>
        <time>2021-05-02T10:18:35.000Z</time>
      </trkpt>
      <trkpt lat="43.49761" lon="6.37868">
        <ele>278.2</ele>
        <time>2021-05-02T10:18:42.000Z</time>
      </trkpt>
      <trkpt lat="43.49768" lon="6.37878">
        <ele>277.9</ele>
        <time>2021-05-02T10:18:48.000Z</time>
      </trkpt>
      <trkpt lat="43.49775" lon="6.37886">
        <ele>277.6</ele>
        <time>2021-05-02T10:18:55.000Z</time>
      </trkpt>
      <trkpt lat="43.49783" lon="6.37894">
        <ele>277.2</ele>
        <time>2021-05-02T10:19:02.000Z</time>
      </trkpt>
      <trkpt lat="43.49791" lon="6.37902">
        <ele>276</ele>
        <time>2021-05-02T10:19:09.000Z</time>
      </trkpt>
      <trkpt lat="43.49799" lon="6.37908">
        <ele>276</ele>
        <time>2021-05-02T10:19:16.000Z</time>
      </trkpt>
      <trkpt lat="43.49806" lon="6.37916">
        <ele>275.4</ele>
        <time>2021-05-02T10:19:23.000Z</time>
      </trkpt>
      <trkpt lat="43.49813" lon="6.37927">
        <ele>275.4</ele>
        <time>2021-05-02T10:19:32.000Z</time>
      </trkpt>
      <trkpt lat="43.49819" lon="6.37936">
        <ele>275.3</ele>
        <time>2021-05-02T10:19:40.000Z</time>
      </trkpt>
      <trkpt lat="43.49824" lon="6.37948">
        <ele>274.2</ele>
        <time>2021-05-02T10:19:48.000Z</time>
      </trkpt>
      <trkpt lat="43.4983" lon="6.3796">
        <ele>273.9</ele>
        <time>2021-05-02T10:19:56.000Z</time>
      </trkpt>
      <trkpt lat="43.49836" lon="6.3797">
        <ele>274.1</ele>
        <time>2021-05-02T10:20:04.000Z</time>
      </trkpt>
      <trkpt lat="43.49842" lon="6.3798">
        <ele>274.7</ele>
        <time>2021-05-02T10:20:12.000Z</time>
      </trkpt>
      <trkpt lat="43.4985" lon="6.37989">
        <ele>275.3</ele>
        <time>2021-05-02T10:20:21.000Z</time>
      </trkpt>
      <trkpt lat="43.49858" lon="6.37997">
        <ele>275.4</ele>
        <time>2021-05-02T10:20:30.000Z</time>
      </trkpt>
      <trkpt lat="43.49865" lon="6.38005">
        <ele>276.3</ele>
        <time>2021-05-02T10:20:39.000Z</time>
      </trkpt>
      <trkpt lat="43.49873" lon="6.38012">
        <ele>275.8</ele>
        <time>2021-05-02T10:20:46.000Z</time>
      </trkpt>
      <trkpt lat="43.49881" lon="6.38017">
        <ele>275.9</ele>
        <time>2021-05-02T10:20:55.000Z</time>
      </trkpt>
      <trkpt lat="43.4989" lon="6.38024">
        <ele>275.1</ele>
        <time>2021-05-02T10:21:02.000Z</time>
      </trkpt>
      <trkpt lat="43.49899" lon="6.38027">
        <ele>274.7</ele>
        <time>2021-05-02T10:21:09.000Z</time>
      </trkpt>
      <trkpt lat="43.49909" lon="6.38029">
        <ele>274.9</ele>
        <time>2021-05-02T10:21:18.000Z</time>
      </trkpt>
      <trkpt lat="43.49918" lon="6.3803">
        <ele>274.5</ele>
        <time>2021-05-02T10:21:25.000Z</time>
      </trkpt>
      <trkpt lat="43.49928" lon="6.38028">
        <ele>274.6</ele>
        <time>2021-05-02T10:21:32.000Z</time>
      </trkpt>
      <trkpt lat="43.49935" lon="6.38036">
        <ele>274.2</ele>
        <time>2021-05-02T10:21:41.000Z</time>
      </trkpt>
      <trkpt lat="43.49929" lon="6.38047">
        <ele>271.3</ele>
        <time>2021-05-02T10:21:51.000Z</time>
      </trkpt>
      <trkpt lat="43.49927" lon="6.38055">
        <ele>269</ele>
        <time>2021-05-02T10:22:01.000Z</time>
      </trkpt>
      <trkpt lat="43.49927" lon="6.38055">
        <ele>269</ele>
        <time>2021-05-02T10:22:06.000Z</time>
      </trkpt>
      <trkpt lat="43.49924" lon="6.38067">
        <ele>265.8</ele>
        <time>2021-05-02T10:22:20.000Z</time>
      </trkpt>
      <trkpt lat="43.49921" lon="6.38079">
        <ele>263.3</ele>
        <time>2021-05-02T10:22:30.000Z</time>
      </trkpt>
      <trkpt lat="43.49922" lon="6.38092">
        <ele>259.6</ele>
        <time>2021-05-02T10:22:43.000Z</time>
      </trkpt>
      <trkpt lat="43.49922" lon="6.38098">
        <ele>258.4</ele>
        <time>2021-05-02T10:22:50.000Z</time>
      </trkpt>
      <trkpt lat="43.49922" lon="6.38099">
        <ele>258.4</ele>
        <time>2021-05-02T10:22:51.000Z</time>
      </trkpt>
      <trkpt lat="43.49921" lon="6.38112">
        <ele>257.7</ele>
        <time>2021-05-02T10:23:02.000Z</time>
      </trkpt>
      <trkpt lat="43.49918" lon="6.38124">
        <ele>256.1</ele>
        <time>2021-05-02T10:23:11.000Z</time>
      </trkpt>
      <trkpt lat="43.49917" lon="6.38137">
        <ele>254.2</ele>
        <time>2021-05-02T10:23:19.000Z</time>
      </trkpt>
      <trkpt lat="43.49918" lon="6.38149">
        <ele>252.9</ele>
        <time>2021-05-02T10:23:27.000Z</time>
      </trkpt>
      <trkpt lat="43.49915" lon="6.38162">
        <ele>250.9</ele>
        <time>2021-05-02T10:23:36.000Z</time>
      </trkpt>
      <trkpt lat="43.49906" lon="6.38165">
        <ele>249.7</ele>
        <time>2021-05-02T10:23:48.000Z</time>
      </trkpt>
      <trkpt lat="43.49896" lon="6.38168">
        <ele>248.2</ele>
        <time>2021-05-02T10:23:57.000Z</time>
      </trkpt>
      <trkpt lat="43.49889" lon="6.38166">
        <ele>247.3</ele>
        <time>2021-05-02T10:24:10.000Z</time>
      </trkpt>
      <trkpt lat="43.49889" lon="6.38166">
        <ele>247.3</ele>
        <time>2021-05-02T10:24:11.000Z</time>
      </trkpt>
      <trkpt lat="43.49882" lon="6.38157">
        <ele>247</ele>
        <time>2021-05-02T10:24:20.000Z</time>
      </trkpt>
      <trkpt lat="43.49873" lon="6.38151">
        <ele>247.2</ele>
        <time>2021-05-02T10:24:30.000Z</time>
      </trkpt>
      <trkpt lat="43.49865" lon="6.38144">
        <ele>246.7</ele>
        <time>2021-05-02T10:24:42.000Z</time>
      </trkpt>
      <trkpt lat="43.49855" lon="6.3814">
        <ele>247.2</ele>
        <time>2021-05-02T10:24:48.000Z</time>
      </trkpt>
      <trkpt lat="43.49846" lon="6.38134">
        <ele>246.4</ele>
        <time>2021-05-02T10:24:59.000Z</time>
      </trkpt>
      <trkpt lat="43.49838" lon="6.38128">
        <ele>246.3</ele>
        <time>2021-05-02T10:25:10.000Z</time>
      </trkpt>
      <trkpt lat="43.4983" lon="6.38123">
        <ele>246</ele>
        <time>2021-05-02T10:25:20.000Z</time>
      </trkpt>
      <trkpt lat="43.49827" lon="6.38121">
        <ele>246</ele>
        <time>2021-05-02T10:25:24.000Z</time>
      </trkpt>
      <trkpt lat="43.49827" lon="6.38122">
        <ele>245.9</ele>
        <time>2021-05-02T10:25:26.000Z</time>
      </trkpt>
      <trkpt lat="43.49827" lon="6.38122">
        <ele>246.3</ele>
        <time>2021-05-02T10:25:30.000Z</time>
      </trkpt>
      <trkpt lat="43.49827" lon="6.38122">
        <ele>246.4</ele>
        <time>2021-05-02T10:25:31.000Z</time>
      </trkpt>
      <trkpt lat="43.49818" lon="6.38116">
        <ele>245.5</ele>
        <time>2021-05-02T10:25:42.000Z</time>
      </trkpt>
      <trkpt lat="43.49808" lon="6.38114">
        <ele>245</ele>
        <time>2021-05-02T10:25:50.000Z</time>
      </trkpt>
      <trkpt lat="43.498" lon="6.38106">
        <ele>244.7</ele>
        <time>2021-05-02T10:26:00.000Z</time>
      </trkpt>
      <trkpt lat="43.49791" lon="6.38104">
        <ele>244</ele>
        <time>2021-05-02T10:26:13.000Z</time>
      </trkpt>
      <trkpt lat="43.49783" lon="6.38097">
        <ele>243.9</ele>
        <time>2021-05-02T10:26:23.000Z</time>
      </trkpt>
      <trkpt lat="43.49775" lon="6.3809">
        <ele>243.9</ele>
        <time>2021-05-02T10:26:28.000Z</time>
      </trkpt>
      <trkpt lat="43.49766" lon="6.38084">
        <ele>242.9</ele>
        <time>2021-05-02T10:26:35.000Z</time>
      </trkpt>
      <trkpt lat="43.4976" lon="6.38074">
        <ele>243</ele>
        <time>2021-05-02T10:26:42.000Z</time>
      </trkpt>
      <trkpt lat="43.49756" lon="6.38062">
        <ele>242.6</ele>
        <time>2021-05-02T10:26:50.000Z</time>
      </trkpt>
      <trkpt lat="43.49752" lon="6.3805">
        <ele>242.1</ele>
        <time>2021-05-02T10:26:58.000Z</time>
      </trkpt>
      <trkpt lat="43.49748" lon="6.38038">
        <ele>241.4</ele>
        <time>2021-05-02T10:27:06.000Z</time>
      </trkpt>
      <trkpt lat="43.49744" lon="6.38027">
        <ele>240.9</ele>
        <time>2021-05-02T10:27:15.000Z</time>
      </trkpt>
      <trkpt lat="43.49738" lon="6.38017">
        <ele>240.1</ele>
        <time>2021-05-02T10:27:24.000Z</time>
      </trkpt>
      <trkpt lat="43.4973" lon="6.3801">
        <ele>239.4</ele>
        <time>2021-05-02T10:27:32.000Z</time>
      </trkpt>
      <trkpt lat="43.4972" lon="6.38012">
        <ele>238.1</ele>
        <time>2021-05-02T10:27:40.000Z</time>
      </trkpt>
      <trkpt lat="43.49711" lon="6.38013">
        <ele>236.8</ele>
        <time>2021-05-02T10:27:48.000Z</time>
      </trkpt>
      <trkpt lat="43.49702" lon="6.38009">
        <ele>236</ele>
        <time>2021-05-02T10:27:56.000Z</time>
      </trkpt>
      <trkpt lat="43.49692" lon="6.38007">
        <ele>235.6</ele>
        <time>2021-05-02T10:28:03.000Z</time>
      </trkpt>
      <trkpt lat="43.49683" lon="6.38002">
        <ele>235.7</ele>
        <time>2021-05-02T10:28:12.000Z</time>
      </trkpt>
      <trkpt lat="43.49674" lon="6.37997">
        <ele>236.1</ele>
        <time>2021-05-02T10:28:22.000Z</time>
      </trkpt>
      <trkpt lat="43.49665" lon="6.37997">
        <ele>235.3</ele>
        <time>2021-05-02T10:28:30.000Z</time>
      </trkpt>
      <trkpt lat="43.49655" lon="6.38">
        <ele>234.3</ele>
        <time>2021-05-02T10:28:37.000Z</time>
      </trkpt>
      <trkpt lat="43.49653" lon="6.38002">
        <ele>232.8</ele>
        <time>2021-05-02T10:28:42.000Z</time>
      </trkpt>
      <trkpt lat="43.49653" lon="6.38003">
        <ele>232.8</ele>
        <time>2021-05-02T10:28:44.000Z</time>
      </trkpt>
      <trkpt lat="43.49647" lon="6.38013">
        <ele>230.5</ele>
        <time>2021-05-02T10:28:55.000Z</time>
      </trkpt>
      <trkpt lat="43.49653" lon="6.38023">
        <ele>230.2</ele>
        <time>2021-05-02T10:29:03.000Z</time>
      </trkpt>
      <trkpt lat="43.49662" lon="6.38028">
        <ele>231.1</ele>
        <time>2021-05-02T10:29:15.000Z</time>
      </trkpt>
      <trkpt lat="43.49672" lon="6.38027">
        <ele>231.8</ele>
        <time>2021-05-02T10:29:25.000Z</time>
      </trkpt>
      <trkpt lat="43.4968" lon="6.38022">
        <ele>232.6</ele>
        <time>2021-05-02T10:29:35.000Z</time>
      </trkpt>
      <trkpt lat="43.49689" lon="6.38028">
        <ele>233.1</ele>
        <time>2021-05-02T10:29:46.000Z</time>
      </trkpt>
      <trkpt lat="43.49696" lon="6.38036">
        <ele>232.8</ele>
        <time>2021-05-02T10:29:56.000Z</time>
      </trkpt>
      <trkpt lat="43.49699" lon="6.38035">
        <ele>232.7</ele>
        <time>2021-05-02T10:30:06.000Z</time>
      </trkpt>
      <trkpt lat="43.49699" lon="6.38035">
        <ele>232.8</ele>
        <time>2021-05-02T10:30:07.000Z</time>
      </trkpt>
      <trkpt lat="43.49699" lon="6.38035">
        <ele>232.9</ele>
        <time>2021-05-02T10:30:08.000Z</time>
      </trkpt>
      <trkpt lat="43.49699" lon="6.38035">
        <ele>233.1</ele>
        <time>2021-05-02T10:30:09.000Z</time>
      </trkpt>
      <trkpt lat="43.49701" lon="6.38034">
        <ele>232.7</ele>
        <time>2021-05-02T10:30:15.000Z</time>
      </trkpt>
      <trkpt lat="43.49701" lon="6.38034">
        <ele>232.8</ele>
        <time>2021-05-02T10:30:17.000Z</time>
      </trkpt>
      <trkpt lat="43.49702" lon="6.38034">
        <ele>232.6</ele>
        <time>2021-05-02T10:30:20.000Z</time>
      </trkpt>
      <trkpt lat="43.49702" lon="6.38034">
        <ele>232.6</ele>
        <time>2021-05-02T10:30:22.000Z</time>
      </trkpt>
      <trkpt lat="43.49702" lon="6.38034">
        <ele>232.7</ele>
        <time>2021-05-02T10:30:23.000Z</time>
      </trkpt>
      <trkpt lat="43.49702" lon="6.38034">
        <ele>232.7</ele>
        <time>2021-05-02T10:30:24.000Z</time>
      </trkpt>
      <trkpt lat="43.49703" lon="6.38034">
        <ele>232.6</ele>
        <time>2021-05-02T10:30:27.000Z</time>
      </trkpt>
      <trkpt lat="43.49703" lon="6.38034">
        <ele>233.1</ele>
        <time>2021-05-02T10:30:36.000Z</time>
      </trkpt>
      <trkpt lat="43.49703" lon="6.38034">
        <ele>233</ele>
        <time>2021-05-02T10:30:38.000Z</time>
      </trkpt>
      <trkpt lat="43.49703" lon="6.38034">
        <ele>233.1</ele>
        <time>2021-05-02T10:31:30.000Z</time>
      </trkpt>
      <trkpt lat="43.49703" lon="6.38033">
        <ele>233.4</ele>
        <time>2021-05-02T10:31:32.000Z</time>
      </trkpt>
      <trkpt lat="43.49703" lon="6.38033">
        <ele>232.9</ele>
        <time>2021-05-02T10:31:42.000Z</time>
      </trkpt>
      <trkpt lat="43.49703" lon="6.38033">
        <ele>232.8</ele>
        <time>2021-05-02T10:31:44.000Z</time>
      </trkpt>
      <trkpt lat="43.49703" lon="6.38034">
        <ele>233.1</ele>
        <time>2021-05-02T10:31:51.000Z</time>
      </trkpt>
      <trkpt lat="43.49704" lon="6.38035">
        <ele>233.6</ele>
        <time>2021-05-02T10:31:54.000Z</time>
      </trkpt>
      <trkpt lat="43.49704" lon="6.38035">
        <ele>233.5</ele>
        <time>2021-05-02T10:31:56.000Z</time>
      </trkpt>
      <trkpt lat="43.49704" lon="6.38035">
        <ele>233.5</ele>
        <time>2021-05-02T10:31:58.000Z</time>
      </trkpt>
      <trkpt lat="43.49704" lon="6.38036">
        <ele>233.6</ele>
        <time>2021-05-02T10:32:00.000Z</time>
      </trkpt>
      <trkpt lat="43.49704" lon="6.38036">
        <ele>233.3</ele>
        <time>2021-05-02T10:32:03.000Z</time>
      </trkpt>
      <trkpt lat="43.49704" lon="6.38036">
        <ele>233.6</ele>
        <time>2021-05-02T10:32:08.000Z</time>
      </trkpt>
      <trkpt lat="43.49705" lon="6.38035">
        <ele>234</ele>
        <time>2021-05-02T10:32:11.000Z</time>
      </trkpt>
      <trkpt lat="43.49704" lon="6.38035">
        <ele>233.8</ele>
        <time>2021-05-02T10:32:14.000Z</time>
      </trkpt>
      <trkpt lat="43.49704" lon="6.38035">
        <ele>233.7</ele>
        <time>2021-05-02T10:32:15.000Z</time>
      </trkpt>
      <trkpt lat="43.49704" lon="6.38035">
        <ele>233.6</ele>
        <time>2021-05-02T10:32:24.000Z</time>
      </trkpt>
      <trkpt lat="43.49703" lon="6.38034">
        <ele>234.2</ele>
        <time>2021-05-02T10:32:32.000Z</time>
      </trkpt>
      <trkpt lat="43.49702" lon="6.38034">
        <ele>234.2</ele>
        <time>2021-05-02T10:32:37.000Z</time>
      </trkpt>
      <trkpt lat="43.49702" lon="6.38033">
        <ele>234.4</ele>
        <time>2021-05-02T10:32:39.000Z</time>
      </trkpt>
      <trkpt lat="43.49702" lon="6.38033">
        <ele>234.4</ele>
        <time>2021-05-02T10:32:41.000Z</time>
      </trkpt>
      <trkpt lat="43.49702" lon="6.38033">
        <ele>234.1</ele>
        <time>2021-05-02T10:32:44.000Z</time>
      </trkpt>
      <trkpt lat="43.49702" lon="6.38033">
        <ele>234.1</ele>
        <time>2021-05-02T10:32:48.000Z</time>
      </trkpt>
      <trkpt lat="43.49702" lon="6.38033">
        <ele>233.9</ele>
        <time>2021-05-02T10:32:49.000Z</time>
      </trkpt>
      <trkpt lat="43.49702" lon="6.38033">
        <ele>233.7</ele>
        <time>2021-05-02T10:32:51.000Z</time>
      </trkpt>
      <trkpt lat="43.49702" lon="6.38032">
        <ele>234</ele>
        <time>2021-05-02T10:32:55.000Z</time>
      </trkpt>
      <trkpt lat="43.49701" lon="6.38032">
        <ele>233.9</ele>
        <time>2021-05-02T10:32:57.000Z</time>
      </trkpt>
      <trkpt lat="43.49701" lon="6.38032">
        <ele>233.7</ele>
        <time>2021-05-02T10:32:58.000Z</time>
      </trkpt>
      <trkpt lat="43.49701" lon="6.38032">
        <ele>233.6</ele>
        <time>2021-05-02T10:33:15.000Z</time>
      </trkpt>
      <trkpt lat="43.497" lon="6.38032">
        <ele>233.4</ele>
        <time>2021-05-02T10:33:19.000Z</time>
      </trkpt>
      <trkpt lat="43.497" lon="6.38033">
        <ele>233.5</ele>
        <time>2021-05-02T10:33:23.000Z</time>
      </trkpt>
      <trkpt lat="43.497" lon="6.38033">
        <ele>233.4</ele>
        <time>2021-05-02T10:33:25.000Z</time>
      </trkpt>
      <trkpt lat="43.497" lon="6.38032">
        <ele>233.1</ele>
        <time>2021-05-02T10:33:26.000Z</time>
      </trkpt>
      <trkpt lat="43.497" lon="6.38032">
        <ele>233.1</ele>
        <time>2021-05-02T10:33:27.000Z</time>
      </trkpt>
      <trkpt lat="43.497" lon="6.38032">
        <ele>232.8</ele>
        <time>2021-05-02T10:33:38.000Z</time>
      </trkpt>
      <trkpt lat="43.49702" lon="6.38034">
        <ele>233.1</ele>
        <time>2021-05-02T10:33:45.000Z</time>
      </trkpt>
      <trkpt lat="43.49703" lon="6.38035">
        <ele>233.1</ele>
        <time>2021-05-02T10:33:53.000Z</time>
      </trkpt>
      <trkpt lat="43.49703" lon="6.38035">
        <ele>233.2</ele>
        <time>2021-05-02T10:33:54.000Z</time>
      </trkpt>
      <trkpt lat="43.49703" lon="6.38035">
        <ele>233.3</ele>
        <time>2021-05-02T10:33:55.000Z</time>
      </trkpt>
      <trkpt lat="43.49703" lon="6.38035">
        <ele>233.2</ele>
        <time>2021-05-02T10:33:56.000Z</time>
      </trkpt>
      <trkpt lat="43.49703" lon="6.38035">
        <ele>233.3</ele>
        <time>2021-05-02T10:34:05.000Z</time>
      </trkpt>
      <trkpt lat="43.49703" lon="6.38035">
        <ele>233.5</ele>
        <time>2021-05-02T10:34:06.000Z</time>
      </trkpt>
      <trkpt lat="43.49703" lon="6.38035">
        <ele>233.3</ele>
        <time>2021-05-02T10:34:08.000Z</time>
      </trkpt>
      <trkpt lat="43.49703" lon="6.38035">
        <ele>233.4</ele>
        <time>2021-05-02T10:34:10.000Z</time>
      </trkpt>
      <trkpt lat="43.49704" lon="6.38035">
        <ele>233.3</ele>
        <time>2021-05-02T10:34:18.000Z</time>
      </trkpt>
      <trkpt lat="43.49704" lon="6.38035">
        <ele>233.3</ele>
        <time>2021-05-02T10:34:21.000Z</time>
      </trkpt>
      <trkpt lat="43.49703" lon="6.38035">
        <ele>233</ele>
        <time>2021-05-02T10:34:29.000Z</time>
      </trkpt>
      <trkpt lat="43.49703" lon="6.38035">
        <ele>234.7</ele>
        <time>2021-05-02T10:34:34.000Z</time>
      </trkpt>
      <trkpt lat="43.49703" lon="6.38035">
        <ele>234.9</ele>
        <time>2021-05-02T10:34:38.000Z</time>
      </trkpt>
      <trkpt lat="43.49703" lon="6.38035">
        <ele>234.9</ele>
        <time>2021-05-02T10:34:38.000Z</time>
      </trkpt>
    </trkseg>
  </trk>
</gpx>